[[{"header":{"parameterUnit":"m.s-1","parameterCategory":1,"la1":30.6,"la2":28.766,"lo1":-90.7593,"lo2":-88.6598,"dy":0.0162,"dx":0.0183,"nx":116,"ny":114,"refTime":"2023-07-04T06:00:00:Z","depth":0,"parameterNumber":2,"parameterNumberName":"U-component_of_WINDS"},"data":[0.0,0.0,0.0,0.0,0.0,0.0,0.0,0.0,0.0,0.0,0.0,0.0,0.0,0.0,0.0,0.0,0.0,0.0,0.0,0.0,0.0,0.0,0.0,0.0,0.0,0.0,0.0,0.0,0.0,0.0,0.0,0.0,0.0,0.0,0.0,0.0,0.0,0.0,0.0,0.0,0.0,0.0,0.0,0.0,0.0,0.0,0.0,0.0,0.0,0.0,0.0,0.0,0.0,0.0,0.0,0.0,0.0,0.0,0.0,0.0,0.0,0.0,0.0,0.0,0.0,0.0,0.0,0.0,0.0,0.0,0.0,0.0,0.0,0.0,0.0,0.0,0.0,0.0,0.0,0.0,0.0,0.0,0.0,0.0,0.0,0.0,0.0,0.0,0.0,0.0,0.0,0.0,0.0,0.0,0.0,0.0,0.0,0.0,0.0,0.0,0.0,0.0,0.0,0.0,0.0,0.0,0.0,0.0,0.0,0.0,0.0,0.0,0.0,0.0,0.0,0.0,0.0,0.0,0.0,0.0,0.0,0.0,0.0,0.0,0.0,0.0,0.0,0.0,0.0,0.0,0.0,0.0,0.0,0.0,0.0,0.0,0.0,0.0,0.0,0.0,0.0,0.0,0.0,0.0,0.0,0.0,0.0,0.0,0.0,0.0,0.0,0.0,0.0,0.0,0.0,0.0,0.0,0.0,0.0,0.0,0.0,0.0,0.0,0.0,0.0,0.0,0.0,0.0,0.0,0.0,0.0,0.0,0.0,0.0,0.0,0.0,0.0,0.0,0.0,0.0,0.0,0.0,0.0,0.0,0.0,0.0,0.0,0.0,0.0,0.0,0.0,0.0,0.0,0.0,0.0,0.0,0.0,0.0,0.0,0.0,0.0,0.0,0.0,0.0,0.0,0.0,0.0,0.0,0.0,0.0,0.0,0.0,0.0,0.0,0.0,0.0,0.0,0.0,0.0,0.0,0.0,0.0,0.0,0.0,0.0,0.0,0.0,0.0,0.0,0.0,0.0,0.0,0.0,0.0,0.0,0.0,0.0,0.0,0.0,0.0,0.0,0.0,0.0,0.0,0.0,0.0,0.0,0.0,0.0,0.0,0.0,0.0,0.0,0.0,0.0,0.0,0.0,0.0,0.0,0.0,0.0,0.0,0.0,0.0,0.0,0.0,0.0,0.0,0.0,0.0,0.0,0.0,0.0,0.0,0.0,0.0,0.0,0.0,0.0,0.0,0.0,0.0,0.0,0.0,0.0,0.0,0.0,0.0,0.0,0.0,0.0,0.0,0.0,0.0,0.0,0.0,0.0,0.0,0.0,0.0,0.0,0.0,0.0,0.0,0.0,0.0,0.0,0.0,0.0,0.0,0.0,0.0,0.0,0.0,0.0,0.0,0.0,0.0,0.0,0.0,0.0,0.0,0.0,0.0,0.0,0.0,0.0,0.0,0.0,0.0,0.0,0.0,0.0,0.0,0.0,0.0,0.0,0.0,0.0,0.0,0.0,0.0,0.0,0.0,0.0,0.0,0.0,0.0,0.0,0.0,0.0,0.0,0.0,0.0,0.0,0.0,0.0,0.0,0.0,0.0,0.0,0.0,0.0,0.0,0.0,0.0,0.0,0.0,0.0,0.0,0.0,0.0,0.0,0.0,0.0,0.0,0.0,0.0,0.0,0.0,0.0,0.0,0.0,0.0,0.0,0.0,0.0,0.0,0.0,0.0,0.0,0.0,0.0,0.0,0.0,0.0,0.0,0.0,0.0,0.0,0.0,0.0,0.0,0.0,0.0,0.0,0.0,0.0,0.0,0.0,0.0,0.0,0.0,0.0,0.0,0.0,0.0,0.0,0.0,0.0,0.0,0.0,0.0,0.0,0.0,0.0,0.0,0.0,0.0,0.0,0.0,0.0,0.0,0.0,0.0,0.0,0.0,0.0,0.0,0.0,0.0,0.0,0.0,0.0,0.0,0.0,0.0,0.0,0.0,0.0,0.0,0.0,0.0,0.0,0.0,0.0,0.0,0.0,0.0,0.0,0.0,0.0,0.0,0.0,0.0,0.0,0.0,0.0,0.0,0.0,0.0,0.0,0.0,0.0,0.0,0.0,0.0,0.0,0.0,0.0,0.0,0.0,0.0,0.0,0.0,0.0,0.0,0.0,0.0,0.0,0.0,0.0,0.0,0.0,0.0,0.0,0.0,0.0,0.0,0.0,0.0,0.0,0.0,0.0,0.0,0.0,0.0,0.0,0.0,0.0,0.0,0.0,0.0,0.0,0.0,0.0,0.0,0.0,0.0,0.0,0.0,0.0,0.0,0.0,0.0,0.0,0.0,0.0,0.0,0.0,0.0,0.0,0.0,0.0,0.0,0.0,0.0,0.0,0.0,0.0,0.0,0.0,0.0,0.0,0.0,0.0,0.0,0.0,0.0,0.0,0.0,0.0,0.0,0.0,0.0,0.0,0.0,0.0,0.0,0.0,0.0,0.0,0.0,0.0,0.0,0.0,0.0,0.0,0.0,0.0,0.0,0.0,0.0,0.0,0.0,0.0,0.0,0.0,0.0,0.0,0.0,0.0,0.0,0.0,0.0,0.0,0.0,0.0,0.0,0.0,0.0,0.0,0.0,0.0,0.0,0.0,0.0,0.0,0.0,0.0,0.0,0.0,0.0,0.0,0.0,0.0,0.0,0.0,0.0,0.0,0.0,0.0,0.0,0.0,0.0,0.0,0.0,0.0,0.0,0.0,0.0,0.0,0.0,0.0,0.0,0.0,0.0,0.0,0.0,0.0,0.0,0.0,0.0,0.0,0.0,0.0,0.0,0.0,0.0,0.0,0.0,0.0,0.0,0.0,0.0,0.0,0.0,0.0,0.0,0.0,0.0,0.0,0.0,0.0,0.0,0.0,0.0,0.0,0.0,0.0,0.0,0.0,0.0,0.0,0.0,0.0,0.0,0.0,0.0,0.0,0.0,0.0,0.0,0.0,0.0,0.0,0.0,0.0,0.0,0.0,0.0,0.0,0.0,0.0,0.0,0.0,0.0,0.0,0.0,0.0,0.0,0.0,0.0,0.0,0.0,0.0,0.0,0.0,0.0,0.0,0.0,0.0,0.0,0.0,0.0,0.0,0.0,0.0,0.0,0.0,0.0,0.0,0.0,0.0,0.0,0.0,0.0,0.0,0.0,0.0,0.0,0.0,0.0,0.0,0.0,0.0,0.0,0.0,0.0,0.0,0.0,0.0,0.0,0.0,0.0,0.0,0.0,0.0,0.0,0.0,0.0,0.0,0.0,0.0,0.0,0.0,0.0,0.0,0.0,0.0,0.0,0.0,0.0,0.0,0.0,0.0,0.0,0.0,0.0,0.0,0.0,0.0,0.0,0.0,0.0,0.0,0.0,0.0,0.0,0.0,0.0,0.0,0.0,0.0,0.0,0.0,0.0,0.0,0.0,0.0,0.0,0.0,0.0,0.0,0.0,0.0,0.0,0.0,0.0,0.0,0.0,0.0,0.0,0.0,0.0,0.0,0.0,0.0,0.0,0.0,0.0,0.0,0.0,0.0,0.0,0.0,0.0,0.0,0.0,0.0,0.0,0.0,0.0,0.0,0.0,0.0,0.0,0.0,0.0,0.0,0.0,0.0,0.0,0.0,0.0,0.0,0.0,0.0,0.0,0.0,0.0,0.0,0.0,0.0,0.0,0.0,0.0,0.0,0.0,0.0,0.0,0.0,0.0,0.0,0.0,0.0,0.0,0.0,0.0,0.0,0.0,0.0,0.0,0.0,0.0,0.0,0.0,0.0,0.0,0.0,0.0,0.0,0.0,0.0,0.0,0.0,0.0,0.0,0.0,0.0,0.0,0.0,0.0,0.0,0.0,0.0,0.0,0.0,0.0,0.0,0.0,0.0,0.0,0.0,0.0,0.0,0.0,0.0,0.0,0.0,0.0,0.0,0.0,0.0,0.0,0.0,0.0,0.0,0.0,0.0,0.0,0.0,0.0,0.0,0.0,0.0,0.0,0.0,0.0,0.0,0.0,0.0,0.0,0.0,0.0,0.0,0.0,0.0,0.0,0.0,0.0,0.0,0.0,0.0,0.0,0.0,0.0,0.0,0.0,0.0,0.0,0.0,0.0,0.0,0.0,0.0,0.0,0.0,0.0,0.0,0.0,0.0,0.0,0.0,0.0,0.0,0.0,0.0,0.0,0.0,0.0,0.0,0.0,0.0,0.0,0.0,0.0,0.0,0.0,0.0,0.0,0.0,0.0,0.0,0.0,0.0,0.0,0.0,0.0,0.0,0.0,0.0,0.0,0.0,0.0,0.0,0.0,0.0,0.0,0.0,0.0,0.0,0.0,0.0,0.0,0.0,0.0,0.0,0.0,0.0,0.0,0.0,0.0,0.0,0.0,0.0,0.0,0.0,0.0,0.0,0.0,0.0,0.0,0.0,0.0,0.0,0.0,0.0,0.0,0.0,0.0,0.0,0.0,0.0,0.0,0.0,0.0,0.0,0.0,0.0,0.0,0.0,0.0,0.0,0.0,0.0,0.0,0.0,0.0,0.0,0.0,0.0,0.0,0.0,0.0,0.0,0.0,0.0,0.0,0.0,0.0,0.0,0.0,0.0,0.0,0.0,0.0,0.0,0.0,0.0,0.0,0.0,0.0,0.0,0.0,0.0,0.0,0.0,0.0,0.0,0.0,0.0,0.0,0.0,0.0,0.0,0.0,0.0,0.0,0.0,0.0,0.0,0.0,0.0,0.0,0.0,0.0,0.0,0.0,0.0,0.0,0.0,0.0,0.0,0.0,0.0,0.0,0.0,0.0,0.0,0.0,0.0,0.0,0.0,0.0,0.0,0.0,0.0,0.0,0.0,0.0,0.0,0.0,0.0,0.0,0.0,0.0,0.0,0.0,0.0,0.0,0.0,0.0,0.0,0.0,0.0,0.0,0.0,0.0,0.0,0.0,0.0,0.0,0.0,0.0,0.0,0.0,0.0,0.0,0.0,0.0,0.0,0.0,0.0,0.0,0.0,0.0,0.0,0.0,0.0,0.0,0.0,0.0,0.0,0.0,0.0,0.0,0.0,0.0,0.0,0.0,0.0,0.0,0.0,0.0,0.0,0.0,0.0,0.0,0.0,0.0,0.0,0.0,0.0,0.0,0.0,0.0,0.0,0.0,0.0,0.0,0.0,0.0,0.0,0.0,0.0,0.0,0.0,0.0,0.0,0.0,0.0,0.0,0.0,0.0,0.0,0.0,0.0,0.0,0.0,0.0,0.0,0.0,0.0,0.0,0.0,0.0,0.0,0.0,0.0,0.0,0.0,0.0,0.0,0.0,0.0,0.0,0.0,0.0,0.0,0.0,0.0,0.0,0.0,0.0,0.0,0.0,0.0,0.0,0.0,0.0,0.0,0.0,0.0,0.0,0.0,0.0,0.0,0.0,0.0,0.0,0.0,0.0,0.0,0.0,0.0,0.0,0.0,0.0,0.0,0.0,0.0,0.0,0.0,0.0,0.0,0.0,0.0,0.0,0.0,0.0,0.0,0.0,0.0,0.0,0.0,0.0,0.0,0.0,0.0,0.0,0.0,0.0,0.0,0.0,0.0,0.0,0.0,0.0,0.0,0.0,0.0,0.0,0.0,0.0,0.0,0.0,0.0,0.0,0.0,0.0,0.0,0.0,0.0,0.0,0.0,0.0,0.0,0.0,0.0,0.0,0.0,0.0,0.0,0.0,0.0,0.0,0.0,0.0,0.0,0.0,0.0,0.0,0.0,0.0,0.0,0.0,0.0,0.0,0.0,0.0,0.0,0.0,0.0,0.0,0.0,0.0,0.0,0.0,0.0,0.0,0.0,0.0,0.0,0.0,0.0,0.0,0.0,0.0,0.0,0.0,0.0,0.0,0.0,0.0,0.0,0.0,0.0,0.0,0.0,0.0,0.0,0.0,0.0,0.0,0.0,0.0,0.0,0.0,0.0,0.0,0.0,0.0,0.0,0.0,0.0,0.0,0.0,0.0,0.0,0.0,0.0,0.0,0.0,0.0,0.0,0.0,0.0,0.0,0.0,0.0,0.0,0.0,0.0,0.0,0.0,0.0,0.0,0.0,0.0,-2.5825,0.0,0.0,0.0,0.0,0.0,0.0,0.0,0.0,0.0,0.0,0.0,0.0,0.0,0.0,0.0,0.0,0.0,0.0,0.0,0.0,0.0,0.0,0.0,0.0,0.0,0.0,0.0,0.0,0.0,0.0,0.0,0.0,0.0,0.0,0.0,0.0,0.0,0.0,0.0,0.0,0.0,0.0,0.0,0.0,0.0,0.0,0.0,0.0,0.0,0.0,0.0,0.0,0.0,0.0,0.0,0.0,0.0,0.0,0.0,0.0,0.0,0.0,0.0,0.0,0.0,0.0,0.0,0.0,0.0,0.0,0.0,0.0,0.0,0.0,0.0,0.0,0.0,0.0,0.0,0.0,0.0,0.0,0.0,0.0,0.0,0.0,0.0,0.0,0.0,0.0,0.0,0.0,0.0,0.0,0.0,0.0,0.0,0.0,0.0,0.0,0.0,0.0,0.0,0.0,0.0,0.0,0.0,0.0,0.0,0.0,0.0,0.0,0.0,0.0,0.0,0.0,-2.578,0.0,0.0,0.0,0.0,0.0,0.0,0.0,0.0,0.0,0.0,0.0,0.0,0.0,0.0,0.0,0.0,0.0,0.0,0.0,0.0,0.0,0.0,0.0,0.0,0.0,0.0,0.0,0.0,0.0,0.0,0.0,0.0,0.0,0.0,0.0,0.0,0.0,0.0,0.0,0.0,0.0,0.0,0.0,0.0,0.0,0.0,0.0,0.0,0.0,0.0,0.0,0.0,0.0,0.0,0.0,0.0,0.0,0.0,0.0,0.0,0.0,0.0,0.0,0.0,0.0,0.0,0.0,0.0,0.0,0.0,0.0,0.0,0.0,0.0,0.0,0.0,0.0,0.0,0.0,0.0,0.0,0.0,0.0,0.0,0.0,0.0,0.0,0.0,0.0,0.0,0.0,0.0,0.0,0.0,0.0,0.0,0.0,0.0,0.0,0.0,0.0,0.0,0.0,0.0,0.0,0.0,0.0,0.0,-2.5751,-2.6138,-2.5962,-2.6244,-2.6551,-2.6758,-2.5307,-2.4728,-2.4872,0.0,0.0,0.0,0.0,0.0,0.0,0.0,0.0,0.0,0.0,0.0,0.0,0.0,0.0,0.0,0.0,0.0,0.0,0.0,0.0,0.0,0.0,0.0,0.0,0.0,0.0,0.0,0.0,0.0,0.0,0.0,0.0,0.0,0.0,0.0,0.0,0.0,0.0,0.0,-2.4477,-2.4477,-2.4787,-2.5366,0.0,0.0,0.0,0.0,0.0,0.0,0.0,0.0,0.0,0.0,0.0,0.0,0.0,0.0,0.0,0.0,0.0,0.0,0.0,0.0,0.0,0.0,0.0,0.0,0.0,0.0,0.0,0.0,0.0,0.0,0.0,0.0,0.0,0.0,0.0,0.0,0.0,0.0,0.0,0.0,0.0,0.0,0.0,0.0,-2.2383,-2.2578,0.0,0.0,0.0,0.0,0.0,0.0,0.0,0.0,0.0,0.0,0.0,0.0,0.0,-2.6109,-2.6577,-2.6637,-2.6637,-2.6635,-2.6295,-2.6111,-2.6055,-2.514,-2.5225,-2.6097,-2.5414,0.0,-2.667,-2.6042,0.0,0.0,0.0,0.0,0.0,0.0,0.0,0.0,0.0,0.0,0.0,0.0,0.0,0.0,0.0,0.0,0.0,0.0,0.0,0.0,0.0,0.0,0.0,0.0,0.0,0.0,0.0,0.0,0.0,0.0,0.0,0.0,0.0,0.0,0.0,0.0,-2.5145,-2.5352,-2.495,-2.495,-2.5105,-2.5382,-2.501,-2.5472,-2.651,-2.6734,0.0,0.0,0.0,0.0,0.0,0.0,0.0,0.0,0.0,0.0,0.0,0.0,0.0,0.0,0.0,0.0,0.0,0.0,0.0,0.0,0.0,0.0,0.0,0.0,0.0,0.0,0.0,0.0,0.0,0.0,0.0,0.0,0.0,0.0,0.0,0.0,0.0,0.0,0.0,-2.3159,-2.3844,-2.3538,-2.4301,-2.4793,0.0,0.0,0.0,0.0,0.0,0.0,0.0,0.0,0.0,-2.5914,-2.6363,-2.6592,-2.6604,-2.6889,-2.6834,-2.6494,-2.6565,-2.658,-2.6482,-2.6293,-2.6527,-2.7091,-2.6718,-2.6747,-2.6984,-2.6181,-2.6643,-2.789,0.0,0.0,0.0,0.0,-2.7432,-2.6398,0.0,0.0,0.0,0.0,0.0,0.0,0.0,0.0,0.0,0.0,0.0,0.0,0.0,0.0,0.0,0.0,0.0,0.0,0.0,0.0,0.0,0.0,0.0,0.0,0.0,0.0,0.0,0.0,-2.5654,-2.5978,-2.5601,-2.5601,-2.5694,-2.5863,-2.5841,-2.6226,-2.6933,-2.7418,-2.7875,0.0,0.0,0.0,0.0,0.0,0.0,0.0,0.0,0.0,0.0,0.0,0.0,0.0,0.0,0.0,0.0,0.0,0.0,0.0,0.0,0.0,0.0,0.0,0.0,0.0,0.0,0.0,0.0,0.0,0.0,0.0,0.0,0.0,0.0,0.0,0.0,0.0,0.0,-2.4003,-2.4634,-2.4283,-2.4935,-2.536,0.0,0.0,0.0,0.0,0.0,0.0,-2.6459,-2.6874,-2.6916,-2.6543,-2.6833,-2.689,-2.6744,-2.6987,-2.7003,-2.6764,-2.706,-2.7314,-2.7509,-2.7611,-2.791,-2.8368,-2.802,-2.7842,-2.7728,-2.6431,-2.6465,-2.7443,-2.7677,-2.7937,-2.8126,-2.7684,-2.7044,-2.6198,0.0,0.0,0.0,0.0,0.0,0.0,0.0,0.0,0.0,0.0,0.0,0.0,0.0,0.0,0.0,0.0,0.0,0.0,0.0,0.0,0.0,0.0,0.0,0.0,0.0,0.0,0.0,-2.5437,-2.5515,-2.5855,-2.6437,-2.6437,-2.6777,-2.7373,-2.7319,-2.6663,-2.5685,-2.6887,-2.7232,-2.7077,0.0,0.0,0.0,0.0,0.0,0.0,0.0,0.0,0.0,0.0,0.0,0.0,0.0,0.0,0.0,0.0,0.0,0.0,0.0,0.0,0.0,0.0,0.0,0.0,0.0,0.0,0.0,0.0,0.0,0.0,0.0,0.0,0.0,0.0,0.0,0.0,0.0,0.0,0.0,-2.4344,-2.4986,0.0,0.0,0.0,0.0,-2.6862,-2.6408,-2.6337,-2.6933,-2.7171,-2.7227,-2.717,-2.7045,-2.7287,-2.791,-2.7187,-2.7426,-2.8549,-2.8016,-2.8368,-2.942,-2.8283,-2.8381,-2.9406,-2.8798,-2.9146,-2.9885,-2.6783,-2.5869,-2.6465,-2.7369,-2.7343,-2.6884,-2.7757,-2.7302,-2.6174,0.0,0.0,0.0,0.0,0.0,0.0,0.0,0.0,0.0,0.0,0.0,0.0,0.0,0.0,0.0,0.0,0.0,0.0,0.0,0.0,0.0,0.0,0.0,0.0,0.0,0.0,-2.4394,-2.5376,-2.5861,-2.6432,-2.7072,-2.7072,-2.7211,-2.7427,-2.7419,-2.6755,-2.5683,-2.6385,-2.6655,-2.6632,-2.6552,-2.6696,0.0,0.0,0.0,0.0,0.0,0.0,0.0,0.0,0.0,0.0,0.0,0.0,0.0,0.0,0.0,0.0,0.0,0.0,0.0,0.0,0.0,0.0,0.0,0.0,0.0,0.0,0.0,0.0,0.0,0.0,0.0,0.0,0.0,0.0,0.0,0.0,0.0,-2.5495,-2.5775,0.0,-2.6392,-2.6224,-2.6563,-2.7669,-2.7088,-2.6777,-2.7003,-2.7753,-2.8205,-2.8176,-2.8878,-2.958,-3.026,-2.9971,-3.0052,-3.0488,-2.9855,-2.9771,-3.0164,-3.0129,-3.0221,-3.0412,-3.0894,-3.1195,-3.1232,-3.0002,-2.9273,-2.8928,-2.8729,-2.8268,-2.7661,-2.7605,-2.7023,-2.6206,0.0,0.0,0.0,0.0,0.0,0.0,0.0,0.0,0.0,0.0,0.0,0.0,0.0,0.0,0.0,0.0,0.0,0.0,0.0,0.0,0.0,0.0,0.0,0.0,0.0,-2.4317,-2.4764,-2.5672,-2.638,-2.7072,-2.7734,-2.7734,-2.7734,-2.7734,-2.7734,-2.7195,-2.6336,-2.6615,-2.6421,-2.5911,-2.5803,-2.6106,-2.6632,0.0,0.0,0.0,0.0,0.0,0.0,0.0,0.0,0.0,0.0,0.0,0.0,0.0,0.0,0.0,0.0,0.0,0.0,0.0,0.0,0.0,0.0,0.0,0.0,0.0,0.0,0.0,0.0,0.0,0.0,0.0,0.0,0.0,0.0,0.0,-2.6208,-2.638,-2.6334,-2.656,-2.7202,-2.6947,-2.7272,-2.8564,-2.781,-2.7654,-2.8457,-2.8834,-2.9195,-2.9617,-3.0207,-3.0694,-3.1162,-3.0951,-3.1081,-3.1525,-3.0809,-3.0644,-3.0902,-3.1494,-3.1545,-3.1204,-3.2353,-3.2804,-3.2776,-3.269,-3.241,-3.1942,-3.0383,-2.9418,-2.8798,-2.813,-2.7598,-2.7108,0.0,0.0,0.0,0.0,0.0,0.0,0.0,0.0,0.0,0.0,0.0,0.0,0.0,0.0,0.0,0.0,0.0,0.0,0.0,0.0,0.0,0.0,0.0,0.0,-2.4467,-2.4395,-2.501,-2.6402,-2.7095,-2.775,-2.8411,-2.8411,-2.8411,-2.8411,-2.8411,-2.8059,-2.7504,-2.7589,-2.6536,-2.497,-2.619,-2.6387,-2.6085,0.0,0.0,0.0,0.0,0.0,0.0,0.0,0.0,0.0,0.0,0.0,0.0,0.0,0.0,0.0,0.0,0.0,0.0,0.0,0.0,0.0,0.0,0.0,0.0,0.0,0.0,0.0,0.0,0.0,0.0,0.0,0.0,0.0,-2.6126,-2.5735,-2.5832,-2.6904,-2.6632,-2.676,-2.7764,-2.7978,-2.8501,-2.9574,-2.8549,-2.8944,-3.1331,-3.0305,-3.0207,-3.1443,-3.0895,-3.0568,-3.0582,-3.0024,-3.0372,-3.1631,-3.0938,-3.097,-3.1676,-3.2288,-3.2261,-3.1753,-3.3048,-3.3939,-3.4548,-3.4517,-3.4865,-3.5093,-3.222,-3.0778,-3.0208,-2.9421,-2.9075,-2.8821,0.0,0.0,0.0,0.0,0.0,0.0,0.0,0.0,0.0,0.0,0.0,0.0,0.0,0.0,0.0,0.0,0.0,0.0,0.0,0.0,0.0,0.0,0.0,0.0,-2.4343,-2.4884,-2.558,-2.6402,-2.7172,-2.7852,-2.8411,-2.8411,-2.8411,-2.8411,-2.8411,-2.8106,-2.765,-2.7673,-2.7132,-2.6339,-2.6489,-2.6829,-2.7187,0.0,0.0,0.0,0.0,0.0,0.0,0.0,0.0,0.0,0.0,0.0,0.0,0.0,0.0,0.0,0.0,0.0,0.0,0.0,0.0,0.0,0.0,0.0,0.0,0.0,0.0,0.0,0.0,0.0,0.0,0.0,0.0,-2.7301,-2.6819,-2.6786,-2.6999,-2.7655,-2.7627,-2.7952,-2.9015,-2.9141,-2.9662,-3.0881,-3.0221,-3.0066,-3.0755,-3.0427,-3.0656,-3.1471,-3.1752,-3.2103,-3.2519,-3.2384,-3.2472,-3.2832,-3.2607,-3.2641,-3.2865,-3.4061,-3.4227,-3.3645,-3.5003,-3.5421,-3.5136,-3.5141,-3.4923,-3.4549,-3.4012,-3.3288,-3.2464,-3.2063,-3.091,-2.9315,0.0,0.0,0.0,0.0,0.0,0.0,0.0,0.0,0.0,0.0,0.0,0.0,0.0,0.0,0.0,0.0,0.0,0.0,0.0,0.0,0.0,0.0,0.0,0.0,0.0,-2.507,-2.5744,-2.6447,-2.7156,-2.7829,-2.8411,-2.8411,-2.8411,-2.8411,-2.8411,-2.8252,-2.8008,-2.8062,-2.7914,-2.76,-2.7433,-2.7472,-2.7581,-2.7264,-2.7607,-2.8231,-2.7731,-2.7622,-2.767,-2.7265,0.0,0.0,0.0,0.0,0.0,0.0,0.0,0.0,0.0,0.0,0.0,0.0,0.0,0.0,0.0,0.0,0.0,0.0,0.0,0.0,0.0,0.0,0.0,0.0,-2.7653,-2.7949,-2.8076,-2.7797,-2.7868,-2.8645,-2.8699,-2.9118,-3.0277,-3.0403,-3.0811,-3.1794,-3.1288,-3.1148,-3.1634,-3.141,-3.1597,-3.223,-3.2848,-3.3304,-3.3655,-3.3958,-3.4263,-3.4519,-3.4554,-3.4573,-3.4645,-3.5771,-3.5752,0.0,-3.6259,-3.6449,-3.5845,-3.6144,-3.6039,0.0,0.0,0.0,0.0,0.0,-3.0791,-2.8915,0.0,0.0,0.0,0.0,0.0,0.0,0.0,0.0,0.0,0.0,0.0,0.0,0.0,0.0,0.0,0.0,0.0,0.0,0.0,0.0,0.0,0.0,0.0,0.0,0.0,0.0,-2.57,-2.6476,-2.7165,-2.7811,-2.8372,-2.8387,-2.8411,-2.8411,-2.8411,-2.8411,-2.842,-2.8565,-2.8597,-2.8597,-2.8597,-2.8217,-2.7636,-2.7774,-2.7882,-2.7984,-2.8,-2.7874,-2.7674,-2.7759,0.0,0.0,0.0,0.0,0.0,0.0,0.0,0.0,0.0,0.0,0.0,0.0,0.0,0.0,0.0,0.0,0.0,0.0,0.0,0.0,0.0,0.0,0.0,0.0,-2.803,-2.8464,-2.956,-2.8965,-2.8785,-2.9843,-2.989,-3.0291,-3.1485,-3.1597,-3.185,-3.2469,-3.1935,-3.2131,-3.3333,0.0,0.0,0.0,0.0,-3.4301,-3.4301,-3.4922,-3.5506,-3.6079,-3.6165,-3.6219,-3.628,-3.7103,-3.6799,-3.5657,-3.7001,-3.7199,-3.6569,-3.7133,-3.7352,-3.7069,-3.5208,-3.4081,-3.3341,-3.1525,-2.982,-2.8343,0.0,0.0,0.0,0.0,0.0,0.0,0.0,0.0,0.0,0.0,0.0,0.0,0.0,0.0,0.0,0.0,0.0,0.0,0.0,0.0,0.0,0.0,0.0,0.0,0.0,0.0,0.0,-2.6274,-2.7666,-2.833,-2.8235,-2.8348,-2.8411,-2.8411,-2.8411,-2.8468,-2.8565,-2.8589,-2.8597,-2.8597,-2.8597,-2.8519,-2.8372,-2.8419,-2.8512,-2.8629,-2.8685,-2.874,-2.8724,-2.8332,-2.8196,-2.8143,-2.779,0.0,0.0,0.0,0.0,0.0,0.0,0.0,0.0,0.0,0.0,0.0,0.0,0.0,0.0,0.0,0.0,0.0,0.0,0.0,0.0,-2.867,-2.9411,-3.008,-3.0273,-3.0618,-3.0932,-3.1139,-3.1167,-3.1415,-3.2159,-3.223,-3.2483,-3.3066,-3.2581,-3.2764,-3.395,-3.3445,0.0,-3.4809,-3.495,-3.502,-3.502,-3.5133,-3.5263,-3.5396,0.0,0.0,-3.5489,-3.6759,-3.6905,-3.6236,-3.7683,-3.7919,-3.7232,-3.6803,-3.6295,-3.5777,-3.5645,-3.5367,-3.4812,-3.2691,-3.1217,-3.0069,0.0,0.0,0.0,0.0,0.0,0.0,0.0,0.0,0.0,0.0,0.0,0.0,0.0,0.0,0.0,0.0,0.0,0.0,0.0,0.0,0.0,0.0,0.0,0.0,0.0,0.0,0.0,0.0,0.0,-2.7727,-2.8284,-2.8033,-2.8088,-2.8396,-2.8057,-2.8136,-2.8493,-2.8493,-2.8541,-2.8597,-2.8597,-2.8636,-2.8684,-2.8636,-2.8684,-2.8771,-2.849,-2.8707,-2.9005,-2.8396,-2.842,-2.8654,-2.8391,-2.7987,-2.755,0.0,0.0,0.0,0.0,0.0,0.0,0.0,0.0,0.0,0.0,0.0,0.0,0.0,0.0,-2.8269,0.0,0.0,-2.9282,-2.9654,-3.0154,-3.0708,-3.134,-3.1738,-3.1949,-3.1949,-3.1949,-3.2188,-3.2806,-3.2862,-3.308,-3.3697,-3.3459,-3.3719,-3.4646,-3.4112,-3.4197,-3.5161,-3.5189,-3.533,-3.5653,-3.5949,-3.6103,-3.6117,-3.6518,-3.6705,-3.6728,-3.7848,-3.8011,-3.739,-3.8522,-3.8623,-3.8004,-3.7964,-3.7705,-3.7315,-3.7134,-3.6103,-3.4575,-3.2976,-3.1837,-3.084,0.0,0.0,0.0,0.0,0.0,0.0,0.0,0.0,0.0,0.0,0.0,0.0,0.0,0.0,0.0,0.0,0.0,0.0,0.0,0.0,0.0,0.0,0.0,0.0,0.0,0.0,0.0,0.0,0.0,-2.708,-2.8148,-2.7757,-2.7864,-2.8381,-2.7818,-2.7803,-2.8211,-2.835,-2.8391,-2.8411,-2.855,-2.8606,-2.8592,-2.8646,-2.8732,-2.8764,-2.83,-2.8455,-2.883,-2.8442,-2.8568,-2.8925,-2.9067,-2.874,-2.8207,-2.769,-2.7174,0.0,0.0,0.0,0.0,0.0,0.0,0.0,0.0,0.0,-2.7651,-2.7777,-2.8199,-2.8549,-2.8675,-2.9195,-2.9813,-3.0385,-3.0694,-3.1246,-3.2258,-3.2511,-3.2581,-3.2581,-3.2581,-3.282,-3.3403,-3.3459,-3.3712,-3.4329,-3.4385,-3.4688,-3.5344,-3.4857,-3.4871,-3.5527,-3.5541,-3.578,-3.6286,-3.674,-3.6978,-3.7017,-3.7825,-3.8202,-3.8211,-3.9169,-3.9162,-3.8457,-3.9173,-3.9279,-3.8972,-3.9487,-3.955,-3.9251,-3.8592,-3.6878,-3.4607,-3.3545,-3.2526,-3.1538,0.0,0.0,0.0,0.0,0.0,0.0,0.0,0.0,0.0,0.0,0.0,0.0,0.0,0.0,0.0,0.0,0.0,0.0,0.0,0.0,0.0,0.0,0.0,0.0,0.0,0.0,0.0,0.0,0.0,0.0,-2.7362,-2.7883,-2.8222,-2.8396,-2.8183,-2.7885,-2.755,-2.815,-2.8114,-2.7744,-2.8364,-2.8295,-2.7905,-2.8592,-2.8873,-2.8881,-2.8934,-2.864,-2.8284,-2.8798,-2.8647,-2.8316,-2.8909,-2.874,-2.8231,-2.7805,0.0,-2.6837,-2.6563,-2.6915,-2.739,-2.7462,-2.7269,-2.7088,0.0,0.0,-2.7074,-2.7693,-2.7862,-2.8072,-2.8591,-2.9195,-2.9813,-3.0385,-3.1471,-3.2244,-3.2384,-3.2876,-3.3178,-3.3178,-3.3178,-3.3431,-3.4034,-3.4104,-3.4379,-3.5048,-3.5091,-3.5358,-3.5977,-3.5934,-3.6188,-3.6768,-3.6782,-3.681,-3.688,-3.695,-3.6978,-3.7017,-3.7825,-3.8202,-3.824,-3.9723,-3.9638,-3.8437,-3.9171,-3.9819,-4.0386,-4.045,-4.0023,-3.9266,-3.8997,-3.8245,-3.711,-3.5707,-3.4182,-3.2783,0.0,0.0,0.0,0.0,0.0,0.0,0.0,0.0,0.0,0.0,0.0,0.0,0.0,0.0,0.0,0.0,0.0,0.0,0.0,0.0,0.0,0.0,0.0,0.0,0.0,0.0,0.0,0.0,0.0,0.0,0.0,-2.7018,-2.7595,-2.8381,-2.7933,-2.7825,-2.7996,-2.8369,-2.8418,-2.8342,-2.8639,-2.8654,-2.855,-2.8895,-2.9013,-2.9013,-2.9075,-2.8925,0.0,0.0,-2.8909,-2.8719,-2.9019,-2.8803,-2.8328,-2.7854,-2.7378,0.0,-2.7052,-2.7506,-2.7924,0.0,-2.7826,-2.7612,-2.7584,-2.7498,-2.7551,-2.8183,-2.831,-2.8605,-2.9574,-2.9968,-3.0441,0.0,-3.2061,-3.2525,-3.289,-3.3122,-3.329,-3.329,-3.3599,-3.3922,-3.4175,-3.4562,-3.5062,-3.5681,-3.5723,-3.5991,-3.661,-3.63,-3.6399,-3.6964,-3.668,-3.6652,-3.6978,-3.7344,-3.7512,-3.7512,-3.8249,-3.8631,-3.8657,-3.981,-4.0314,-4.0269,-4.0587,-4.0917,-4.1178,-4.1178,-4.0906,-4.0443,-4.0361,-3.9743,-3.8674,-3.677,-3.5401,-3.441,0.0,0.0,0.0,0.0,0.0,0.0,0.0,0.0,0.0,0.0,0.0,0.0,0.0,0.0,0.0,0.0,0.0,0.0,0.0,0.0,0.0,0.0,0.0,0.0,0.0,0.0,0.0,0.0,0.0,0.0,0.0,0.0,-2.7157,-2.8119,-2.7764,-2.7818,-2.8134,-2.8439,-2.8528,-2.849,-2.8764,-2.8826,-2.88,-2.9012,-2.8988,-2.8846,-2.9035,-2.8972,0.0,0.0,-2.8903,-2.8692,-2.8873,-2.8622,-2.8174,-2.768,-2.7358,-2.7263,-2.7764,0.0,0.0,-2.8541,-2.8211,-2.7883,-2.7981,-2.7654,-2.7539,-2.8312,-2.8436,-2.8816,-3.0052,-3.0558,-3.1148,-3.223,-3.2553,-3.2806,-3.322,-3.329,-3.3347,-3.3515,-3.4112,-3.4562,-3.4731,-3.5138,-3.5695,-3.6314,-3.6356,-3.6553,-3.6964,-3.661,-3.6567,-3.6978,-3.6764,-3.6796,-3.7231,-3.7864,-3.8173,-3.8173,-3.9133,-3.9547,-3.9599,-4.0077,-4.0876,-4.1873,-4.1297,-4.1234,-4.1588,-4.1588,-4.1489,-4.129,-4.1272,-4.0649,-3.9575,-3.7725,-3.6615,-3.5968,0.0,0.0,0.0,0.0,0.0,0.0,0.0,0.0,0.0,0.0,0.0,0.0,0.0,0.0,0.0,0.0,0.0,0.0,0.0,0.0,0.0,0.0,0.0,0.0,0.0,0.0,0.0,0.0,0.0,0.0,0.0,0.0,0.0,-2.7457,-2.7953,-2.7891,-2.7473,-2.8119,-2.8122,-2.769,-2.8506,-2.8459,-2.8025,-2.88,-2.8688,-2.8221,-2.8861,0.0,0.0,0.0,-2.8411,-2.7666,-2.831,-2.8149,0.0,-2.7251,-2.7198,-2.7511,0.0,0.0,-2.8498,-2.8954,-2.8283,-2.7608,-2.7925,-2.7032,-2.6466,-2.7609,-2.7833,-2.8213,-2.9406,-3.0642,-3.1668,-3.23,-3.2904,-3.3262,-3.329,-3.329,-3.3515,-3.4104,-3.4745,-3.54,0.0,-3.6061,-3.6328,-3.6908,-3.695,-3.6964,-3.6978,-3.6964,-3.6964,-3.6978,-3.754,-3.785,-3.7864,-3.855,-3.8874,-3.8874,-4.0475,-4.1242,-4.1197,-4.0792,-4.1342,-4.2534,-4.0469,-4.0351,-4.1588,-4.1588,-4.1489,-4.129,-4.1169,-4.058,-3.9699,-3.8774,-3.8015,-3.7338,0.0,0.0,0.0,0.0,0.0,0.0,0.0,0.0,0.0,0.0,0.0,0.0,0.0,0.0,0.0,0.0,0.0,0.0,0.0,0.0,0.0,0.0,0.0,0.0,0.0,0.0,0.0,0.0,0.0,0.0,0.0,0.0,0.0,-2.7411,-2.7579,-2.781,-2.8073,-2.84,-2.8425,-2.8295,-2.8701,-2.8748,-2.8606,-2.8957,-2.9025,-2.8919,0.0,0.0,0.0,0.0,0.0,0.0,-2.8314,-2.761,0.0,-2.6214,-2.689,-2.7798,-2.7925,0.0,-2.8639,-2.8268,-2.7667,-2.7115,-2.6916,-2.672,-2.6919,-2.8157,-2.8717,-2.9504,-3.1162,-3.1808,-3.23,-3.2918,-3.2848,-3.2848,-3.322,-3.2974,-3.3066,-3.4076,-3.4773,0.0,0.0,0.0,0.0,-3.6936,-3.6652,-3.6595,-3.6964,-3.6978,-3.7161,-3.7569,-3.7793,-3.8102,-3.8579,-3.9156,-3.9796,-4.038,-4.1863,-4.2342,-4.1878,-4.1818,-4.2148,-4.2631,-4.127,-4.0955,-4.139,-4.1321,-4.1221,-4.1153,-4.1102,-4.0844,-4.0365,-3.9617,-3.8853,-3.8,0.0,0.0,0.0,0.0,0.0,0.0,0.0,0.0,0.0,0.0,0.0,0.0,0.0,0.0,0.0,0.0,0.0,0.0,0.0,0.0,0.0,0.0,0.0,0.0,0.0,0.0,0.0,0.0,0.0,0.0,0.0,0.0,0.0,0.0,-2.6987,-2.7411,-2.8042,-2.8137,-2.8332,-2.8636,-2.8795,-2.8873,-2.8904,-2.9052,-2.9167,0.0,0.0,0.0,0.0,0.0,0.0,0.0,-2.8027,-2.722,-2.6327,-2.6443,-2.7015,-2.7669,-2.7883,-2.8125,-2.8211,-2.7678,-2.7249,-2.6897,-2.6711,-2.6803,-2.7315,-2.8466,-2.9181,-3.0038,-3.1471,-3.1921,-3.2286,-3.289,-3.2665,-3.2623,-3.3206,-3.2988,-3.3185,-3.4421,-3.4927,-3.5287,0.0,0.0,0.0,-3.6652,-3.6328,-3.637,-3.695,-3.7189,-3.7498,-3.7892,-3.8341,-3.8777,-3.924,-3.9802,-4.0545,-4.1436,-4.2648,-4.3133,-4.3007,-4.3156,-4.3169,-4.3026,-4.2165,-4.1592,-4.129,-4.1221,-4.1135,-4.1115,-4.1264,-4.1118,-4.0737,-4.0235,-3.9393,-3.8354,0.0,0.0,0.0,0.0,0.0,0.0,0.0,0.0,0.0,0.0,0.0,0.0,0.0,0.0,0.0,0.0,0.0,0.0,0.0,0.0,0.0,0.0,0.0,0.0,0.0,0.0,0.0,0.0,0.0,0.0,0.0,0.0,0.0,0.0,0.0,-2.6834,-2.7442,-2.7481,-2.789,-2.8574,-2.8755,-2.8818,-2.8857,-2.9036,0.0,0.0,0.0,0.0,0.0,0.0,0.0,0.0,0.0,-2.6959,-2.6691,-2.7584,-2.7471,-2.7244,-2.8299,-2.7938,-2.7282,-2.7253,-2.7027,-2.6859,-2.7207,-2.7268,-2.7555,-2.8526,-2.9181,-2.9799,0.0,0.0,-3.1724,-3.2314,-3.237,-3.2567,-3.315,-3.322,-3.3691,0.0,0.0,0.0,0.0,0.0,0.0,-3.6019,0.0,-3.6356,-3.6993,-3.7583,-3.7934,-3.799,-3.9156,-3.9788,-3.9831,-4.0449,-4.1184,-4.199,-4.2841,-4.3711,-4.4495,-4.4642,-4.4338,-4.3655,-4.2995,-4.2167,-4.129,-4.129,-4.1171,-4.1112,-4.1593,-4.1384,-4.0826,-4.0651,-3.9736,-3.8523,0.0,0.0,0.0,0.0,0.0,0.0,0.0,0.0,0.0,0.0,0.0,0.0,0.0,0.0,0.0,0.0,0.0,0.0,0.0,0.0,0.0,0.0,0.0,0.0,0.0,0.0,0.0,0.0,0.0,0.0,0.0,0.0,0.0,0.0,0.0,0.0,-2.8301,-2.8388,-2.8241,-2.7968,0.0,-2.8591,-2.8229,0.0,0.0,0.0,0.0,0.0,0.0,0.0,0.0,0.0,0.0,-2.6269,-2.6622,-2.6055,-2.6707,-2.7483,-2.6919,-2.703,-2.7209,-2.6804,-2.664,-2.6594,-2.6673,-2.6884,-2.74,-2.8615,-2.9242,-2.994,0.0,0.0,0.0,-3.237,-3.2019,0.0,-3.2553,-3.2244,0.0,-3.4267,0.0,-3.5259,-3.5414,-3.5287,0.0,0.0,-3.5428,-3.6103,-3.7583,-3.7821,-3.8327,-3.9269,-3.962,-4.0013,-4.0463,-4.1267,-4.1784,-4.2032,-4.3476,-4.4266,-4.4495,-4.4642,-4.4338,-4.364,-4.2842,-4.2032,-4.129,-4.0851,-4.0696,-4.0705,-4.1081,-4.1199,-4.1214,-4.1684,-4.1045,-3.989,0.0,0.0,0.0,0.0,0.0,0.0,0.0,0.0,0.0,0.0,0.0,0.0,0.0,0.0,0.0,0.0,0.0,0.0,0.0,0.0,0.0,0.0,0.0,0.0,0.0,0.0,0.0,0.0,0.0,0.0,0.0,0.0,0.0,0.0,0.0,0.0,-2.8186,0.0,0.0,0.0,0.0,0.0,0.0,0.0,0.0,0.0,0.0,0.0,0.0,0.0,0.0,-2.7008,-2.5919,-2.6081,-2.6534,-2.5879,0.0,-2.6976,-2.6524,-2.6633,-2.6796,-2.6492,-2.6525,-2.6736,-2.7148,-2.7384,-2.7839,-2.8981,-2.9425,0.0,0.0,0.0,0.0,0.0,0.0,0.0,-3.1921,-3.1935,-3.2483,0.0,-3.4773,0.0,-3.5189,-3.5189,-3.5189,0.0,-3.5189,-3.5991,-3.7793,-3.8173,-3.8777,-3.9746,-4.0041,-4.035,-4.0702,-4.1548,-4.199,-4.2032,-4.3687,-4.451,-4.451,-4.4987,-4.4654,-4.3671,0.0,-4.2349,-4.129,-4.0987,-4.073,-4.0597,-4.1367,-4.1458,-4.1285,-4.2356,-4.174,-4.0339,0.0,0.0,0.0,0.0,0.0,0.0,0.0,0.0,0.0,0.0,0.0,0.0,0.0,0.0,0.0,0.0,0.0,0.0,0.0,0.0,0.0,0.0,0.0,0.0,0.0,0.0,0.0,0.0,0.0,0.0,0.0,0.0,0.0,0.0,0.0,0.0,0.0,0.0,0.0,0.0,0.0,0.0,0.0,0.0,0.0,0.0,0.0,0.0,0.0,0.0,-2.6887,-2.6585,-2.5854,-2.6,-2.639,-2.6199,-2.6165,-2.6255,-2.6596,-2.6466,-2.6286,-2.6313,-2.6527,-2.7004,-2.7896,-2.8083,-2.8353,-2.9315,0.0,-2.9518,-2.9602,-2.9743,-3.001,-3.0445,0.0,-3.0811,-3.1321,-3.1822,-3.2651,-3.3922,-3.466,-3.5105,-3.5175,-3.5189,-3.5161,-3.5077,-3.5184,-3.6071,-3.792,-3.8566,-3.9226,-3.9887,-4.0421,-4.0702,-4.0702,-4.1548,-4.2073,-4.2181,-4.3765,-4.4564,-4.4715,-4.5447,-4.5049,-4.3687,0.0,0.0,-4.1323,-4.1223,-4.0919,-4.0628,-4.1873,-4.1839,-4.1337,-4.2846,-4.2187,-4.0521,0.0,0.0,0.0,0.0,0.0,0.0,0.0,0.0,0.0,0.0,0.0,0.0,0.0,0.0,0.0,0.0,0.0,0.0,0.0,0.0,0.0,0.0,0.0,0.0,0.0,0.0,0.0,0.0,0.0,0.0,0.0,0.0,0.0,0.0,0.0,0.0,0.0,0.0,0.0,0.0,0.0,0.0,0.0,0.0,0.0,0.0,0.0,0.0,0.0,0.0,-2.6731,-2.6138,-2.5063,-2.5386,-2.6038,-2.5422,-2.592,-2.6596,-2.616,-2.6087,-2.6165,-2.6286,-2.6433,-2.6739,-2.7462,-2.7551,0.0,0.0,-2.8949,-2.9012,-2.9518,-3.0459,0.0,-3.0793,0.0,0.0,0.0,0.0,-3.1466,0.0,0.0,0.0,0.0,0.0,0.0,0.0,0.0,-3.642,-3.8607,-3.8846,-3.9422,-4.0505,-4.0645,-4.0702,-4.0702,-4.1548,-4.233,-4.2986,-4.4036,-4.488,-4.5573,-4.5735,-4.5049,-4.3687,-4.3687,0.0,-4.1489,-4.0885,-4.0593,-4.0558,-4.1306,-4.1685,-4.1984,-4.3358,-4.3159,-4.2099,0.0,0.0,0.0,0.0,0.0,0.0,0.0,0.0,0.0,0.0,-2.8956,-2.9337,0.0,0.0,0.0,0.0,0.0,0.0,0.0,0.0,0.0,0.0,0.0,0.0,0.0,0.0,0.0,0.0,0.0,0.0,0.0,0.0,0.0,0.0,0.0,0.0,0.0,0.0,0.0,0.0,0.0,0.0,0.0,0.0,0.0,0.0,0.0,0.0,0.0,0.0,-2.6664,-2.607,-2.5218,-2.5812,-2.6599,-2.5447,-2.596,-2.6764,-2.6089,-2.6002,-2.6111,-2.6179,-2.6338,-2.6716,-2.7582,0.0,0.0,0.0,-2.9198,-2.9265,-2.956,0.0,0.0,0.0,0.0,0.0,0.0,0.0,0.0,0.0,0.0,0.0,0.0,0.0,0.0,0.0,0.0,-3.5869,-3.8229,-3.9721,-4.0572,-4.0688,-4.1142,-4.1142,-4.0688,-4.1976,-4.2801,-4.3225,-4.4548,-4.541,-4.5807,-4.5807,-4.5049,-4.3687,-4.3687,0.0,-4.1555,-4.1021,-4.0897,-4.1085,-4.1485,-4.1957,-4.244,-4.319,-4.3038,-4.2349,0.0,0.0,0.0,0.0,0.0,0.0,0.0,-2.8304,-2.8358,-2.8358,-2.8463,-2.8776,-2.9434,-2.9768,0.0,0.0,0.0,0.0,0.0,0.0,0.0,0.0,0.0,0.0,0.0,0.0,0.0,0.0,0.0,0.0,0.0,0.0,0.0,0.0,0.0,0.0,0.0,0.0,0.0,0.0,0.0,0.0,0.0,0.0,0.0,0.0,0.0,0.0,0.0,0.0,-2.6952,-2.657,-2.5893,-2.639,-2.6936,-2.5568,-2.6014,-2.6792,-2.6089,-2.5975,-2.6056,-2.6084,-2.6258,-2.6694,-2.774,-2.8053,0.0,0.0,-2.9571,-2.9571,-2.9571,0.0,0.0,0.0,0.0,0.0,0.0,0.0,0.0,0.0,0.0,0.0,0.0,0.0,0.0,0.0,0.0,0.0,-3.7793,-4.031,-4.1423,-4.0702,-4.1339,-4.1464,-4.0972,-4.2438,-4.3304,-4.3515,-4.5046,-4.5807,-4.5807,-4.5649,-4.4891,-4.3706,-4.3564,0.0,0.0,-4.1138,-4.1167,-4.1459,-4.1717,-4.2229,-4.2864,-4.3115,-4.2833,-4.2312,0.0,0.0,0.0,0.0,0.0,0.0,0.0,-2.8291,-2.8209,-2.8209,-2.8223,-2.8309,-2.8501,-2.93,0.0,0.0,0.0,0.0,0.0,0.0,0.0,0.0,0.0,0.0,0.0,0.0,0.0,0.0,0.0,0.0,0.0,0.0,0.0,0.0,0.0,0.0,0.0,0.0,0.0,0.0,0.0,0.0,0.0,0.0,0.0,0.0,0.0,0.0,0.0,0.0,0.0,-2.8082,-2.6931,-2.6418,-2.6068,-2.5256,0.0,0.0,-2.6062,-2.5921,-2.5948,-2.6056,-2.6111,-2.6478,-2.7726,0.0,0.0,-2.935,-2.9509,-2.9446,-2.9571,-3.0066,-3.0281,0.0,0.0,-3.021,0.0,0.0,0.0,0.0,0.0,0.0,0.0,0.0,0.0,0.0,0.0,0.0,-3.7864,-3.9759,-4.0773,-4.0702,-4.0787,-4.1142,-4.1867,-4.2761,-4.3594,-4.4396,-4.5358,-4.5807,-4.5792,-4.5128,-4.4401,-4.3693,-4.3042,0.0,0.0,-4.073,-4.087,-4.1347,-4.1414,-4.2191,-4.3289,-4.3746,-4.3357,-4.2565,0.0,0.0,0.0,0.0,0.0,0.0,0.0,-2.8291,-2.8196,-2.8196,-2.8196,-2.8044,-2.7611,-2.8393,-2.9239,0.0,0.0,0.0,0.0,0.0,0.0,0.0,0.0,0.0,0.0,0.0,0.0,0.0,0.0,0.0,0.0,0.0,0.0,0.0,0.0,0.0,0.0,0.0,0.0,0.0,0.0,0.0,0.0,0.0,0.0,0.0,0.0,0.0,0.0,0.0,0.0,0.0,-2.7045,-2.6962,0.0,0.0,-2.6689,-2.7639,-2.627,-2.5893,-2.5921,-2.5975,-2.6084,-2.6478,-2.7452,0.0,0.0,-2.9257,-2.9446,-2.9446,-2.9571,-2.9813,-2.9883,0.0,0.0,0.0,0.0,0.0,0.0,0.0,0.0,0.0,0.0,0.0,0.0,0.0,0.0,0.0,-3.7429,-4.0017,-4.1464,-4.1464,-4.1976,-4.2356,-4.2721,-4.3554,-4.4151,-4.451,-4.5373,-4.5586,-4.5144,-4.4843,-4.4117,-4.3074,-4.2805,0.0,0.0,-4.1279,-4.1556,-4.2256,-4.2092,-4.2719,-4.3678,-4.3479,-4.3067,-4.254,0.0,0.0,0.0,0.0,0.0,0.0,-2.8406,-2.8291,-2.8196,-2.8196,-2.8196,-2.7981,-2.7424,-2.8241,-2.9219,-3.0189,0.0,0.0,0.0,0.0,0.0,0.0,0.0,0.0,0.0,0.0,0.0,0.0,0.0,0.0,0.0,0.0,0.0,0.0,0.0,0.0,0.0,0.0,0.0,0.0,0.0,0.0,0.0,0.0,0.0,0.0,0.0,0.0,0.0,0.0,0.0,0.0,0.0,0.0,0.0,0.0,-2.7506,-2.8362,-2.6856,-2.6413,-2.6297,-2.5975,-2.6165,-2.6614,0.0,0.0,0.0,-2.9149,-2.9352,-2.9383,-2.954,-2.9602,-2.9602,0.0,0.0,-2.9111,0.0,0.0,0.0,0.0,0.0,0.0,0.0,0.0,0.0,0.0,0.0,0.0,0.0,-4.0402,-4.1887,-4.2038,-4.2624,-4.3109,-4.3594,-4.4006,-4.4331,-4.4555,-4.4966,-4.4922,-4.4366,-4.409,-4.3551,-4.2895,0.0,0.0,0.0,-4.1761,-4.2108,-4.2803,-4.2511,-4.3049,-4.3912,-4.3244,-4.2801,-4.2421,0.0,0.0,0.0,0.0,0.0,0.0,0.0,-2.8291,-2.8196,-2.8196,-2.8196,-2.8196,-2.8196,-2.913,-2.999,-3.0454,0.0,0.0,0.0,0.0,0.0,0.0,0.0,0.0,0.0,0.0,0.0,0.0,0.0,0.0,0.0,0.0,0.0,0.0,0.0,0.0,0.0,0.0,0.0,0.0,0.0,0.0,0.0,0.0,0.0,0.0,0.0,0.0,0.0,0.0,0.0,0.0,0.0,0.0,0.0,0.0,-2.8184,-2.8477,-2.7935,-2.7635,-2.7236,-2.6177,-2.6312,-2.6829,0.0,0.0,0.0,-2.9101,-2.9226,-2.9194,-2.954,-2.9602,-2.9602,-2.9602,-2.9602,0.0,0.0,0.0,0.0,0.0,0.0,0.0,0.0,0.0,0.0,0.0,0.0,0.0,0.0,-4.0753,-4.164,-4.2198,-4.2213,-4.293,-4.4472,-4.3848,-4.3894,-4.4682,-4.4018,-4.3703,-4.3671,-4.2601,-4.2579,0.0,0.0,0.0,0.0,-4.1997,-4.2198,-4.2695,-4.2488,-4.3049,-4.3912,-4.3244,-4.2711,-4.2224,0.0,0.0,0.0,0.0,0.0,0.0,0.0,-2.8345,-2.8223,-2.8331,-2.825,-2.7999,-2.7442,-2.8422,-2.9067,-2.8939,0.0,0.0,0.0,0.0,0.0,0.0,0.0,0.0,0.0,0.0,0.0,0.0,0.0,0.0,0.0,0.0,0.0,0.0,0.0,0.0,0.0,0.0,0.0,0.0,0.0,0.0,0.0,0.0,0.0,0.0,0.0,0.0,0.0,0.0,0.0,0.0,0.0,0.0,0.0,0.0,0.0,0.0,-2.7343,-2.6722,-2.651,-2.6916,-2.6642,-2.66,-2.7783,0.0,0.0,-2.9132,-2.9226,-2.9194,-2.954,-2.9602,-2.9757,-3.0133,-3.0203,0.0,0.0,0.0,0.0,0.0,0.0,0.0,0.0,0.0,0.0,0.0,0.0,0.0,0.0,-4.0501,-4.1357,-4.2315,-4.2345,-4.2836,-4.3948,-4.3606,-4.3568,-4.3815,-4.3576,-4.3195,-4.2617,-4.2887,0.0,0.0,0.0,0.0,0.0,-4.2824,-4.2932,-4.3109,-4.303,-4.3322,-4.3717,-4.3206,-4.2711,-4.2224,0.0,0.0,0.0,0.0,0.0,0.0,0.0,-2.8345,-2.8223,-2.8318,-2.825,-2.8124,-2.7924,-2.8768,-2.9339,-2.9379,0.0,0.0,0.0,0.0,0.0,0.0,0.0,0.0,0.0,0.0,0.0,0.0,0.0,0.0,0.0,0.0,0.0,0.0,0.0,0.0,0.0,0.0,0.0,0.0,0.0,0.0,-2.8548,0.0,0.0,0.0,0.0,0.0,0.0,0.0,0.0,0.0,0.0,0.0,0.0,0.0,-2.8396,0.0,0.0,-2.7117,-2.6927,-2.7373,-2.6916,0.0,0.0,0.0,0.0,0.0,0.0,-2.9194,-2.9477,-2.9571,-2.9729,-3.0091,-3.0147,0.0,0.0,0.0,0.0,0.0,0.0,0.0,0.0,0.0,0.0,0.0,0.0,0.0,0.0,-4.1041,-4.1484,-4.2097,-4.2357,-4.2884,-4.3687,-4.3334,-4.3123,-4.3123,-4.2771,-4.2463,-4.2219,-4.2537,0.0,0.0,0.0,0.0,0.0,-4.3297,-4.3268,-4.329,-4.329,-4.3384,-4.3476,-4.2826,-4.2393,-4.2053,0.0,0.0,0.0,0.0,0.0,0.0,0.0,0.0,0.0,0.0,-2.8209,-2.8503,-2.9273,-2.9837,-3.0425,0.0,0.0,0.0,0.0,0.0,0.0,0.0,0.0,0.0,0.0,0.0,0.0,-2.8329,-2.6704,-2.6078,-2.6405,0.0,0.0,0.0,0.0,0.0,0.0,0.0,0.0,0.0,0.0,0.0,0.0,0.0,0.0,0.0,0.0,0.0,0.0,0.0,0.0,0.0,0.0,0.0,0.0,0.0,0.0,0.0,0.0,0.0,0.0,0.0,0.0,0.0,0.0,0.0,0.0,0.0,0.0,0.0,0.0,-2.9509,-2.9617,-2.9673,-2.9673,0.0,0.0,0.0,0.0,0.0,0.0,0.0,0.0,0.0,0.0,0.0,0.0,0.0,0.0,-4.2077,-4.1948,-4.1621,-4.2252,-4.2916,-4.3529,-4.2932,-4.2616,-4.26,-4.172,-4.1651,-4.2275,-4.1817,0.0,0.0,0.0,0.0,0.0,-4.3503,-4.3329,-4.329,-4.329,-4.329,-4.318,-4.2251,-4.1901,-4.1778,0.0,0.0,0.0,0.0,0.0,0.0,0.0,0.0,0.0,0.0,0.0,-2.8383,-2.8881,-2.932,0.0,0.0,0.0,0.0,0.0,0.0,0.0,0.0,0.0,0.0,0.0,0.0,0.0,-2.6829,-2.6209,-2.5815,-2.5638,-2.5222,0.0,0.0,0.0,0.0,0.0,0.0,0.0,0.0,0.0,0.0,0.0,0.0,0.0,0.0,-3.0363,-3.0339,0.0,0.0,0.0,0.0,0.0,0.0,0.0,0.0,-2.8114,-2.8855,-2.8461,0.0,-2.7352,-2.8455,-2.7388,-2.6572,0.0,0.0,0.0,0.0,0.0,0.0,0.0,0.0,0.0,0.0,0.0,0.0,0.0,0.0,0.0,0.0,0.0,0.0,0.0,0.0,0.0,0.0,0.0,0.0,0.0,-4.1963,-4.185,-4.1621,-4.1762,-4.192,-4.2078,-4.1787,-4.1641,-4.1608,-4.1299,-4.118,-4.1215,-4.2081,0.0,0.0,0.0,0.0,-4.3769,-4.3636,-4.3503,-4.329,-4.329,-4.329,-4.318,-4.2251,-4.1901,-4.1778,0.0,0.0,0.0,0.0,0.0,0.0,0.0,0.0,0.0,0.0,0.0,0.0,0.0,0.0,0.0,0.0,0.0,0.0,0.0,0.0,0.0,0.0,0.0,0.0,0.0,0.0,0.0,0.0,0.0,-2.5508,0.0,0.0,0.0,0.0,0.0,0.0,0.0,0.0,0.0,0.0,-2.5473,0.0,0.0,0.0,0.0,0.0,-2.9784,-2.9911,0.0,-2.9801,-2.9414,-2.8988,0.0,0.0,0.0,0.0,-2.834,-2.9029,-2.874,-2.8061,-2.769,-2.8826,-2.7864,-2.7132,0.0,0.0,0.0,0.0,0.0,0.0,0.0,0.0,0.0,0.0,0.0,0.0,0.0,0.0,0.0,0.0,0.0,0.0,0.0,0.0,0.0,0.0,0.0,0.0,0.0,-4.1166,-4.1055,-4.0881,-4.0881,-4.1118,-4.1588,-4.1489,-4.1423,-4.1423,-4.1272,-4.1398,-4.1899,-4.2523,-4.2952,0.0,0.0,0.0,-4.369,-4.3557,-4.3259,-4.288,-4.2959,-4.2818,-4.2511,-4.2062,-4.1778,-4.1523,0.0,0.0,0.0,0.0,0.0,0.0,0.0,0.0,0.0,0.0,0.0,0.0,0.0,0.0,0.0,0.0,0.0,0.0,0.0,0.0,0.0,0.0,0.0,0.0,0.0,0.0,0.0,0.0,0.0,0.0,0.0,0.0,-2.5005,0.0,0.0,0.0,0.0,0.0,0.0,0.0,-2.5005,0.0,0.0,0.0,0.0,0.0,0.0,0.0,0.0,-2.9304,-2.9098,-2.8972,-2.8189,0.0,0.0,0.0,0.0,0.0,-2.9098,-2.8764,-2.8535,-2.8982,-2.8295,-2.7895,-2.9452,0.0,0.0,0.0,0.0,0.0,0.0,0.0,0.0,0.0,0.0,0.0,0.0,0.0,0.0,0.0,0.0,0.0,0.0,0.0,0.0,0.0,0.0,0.0,0.0,-4.0137,-4.0046,-3.9861,-3.9907,-4.034,-4.1257,-4.1416,-4.1479,-4.1479,-4.1266,-4.1648,-4.2594,-4.2567,-4.3009,-4.3783,0.0,0.0,-4.3563,-4.3337,-4.289,-4.2381,-4.2415,-4.207,-4.152,-4.1501,-4.1228,-4.0868,0.0,0.0,0.0,0.0,0.0,0.0,0.0,0.0,0.0,0.0,0.0,0.0,0.0,0.0,0.0,0.0,0.0,0.0,0.0,0.0,0.0,0.0,0.0,0.0,0.0,0.0,0.0,0.0,0.0,0.0,-2.5005,-2.5005,-2.5005,0.0,0.0,0.0,-2.5005,-2.5048,-2.5048,-2.5005,-2.5048,0.0,0.0,0.0,0.0,0.0,0.0,0.0,0.0,-2.9146,-2.9098,-2.8877,-2.7652,0.0,0.0,0.0,0.0,0.0,-2.9098,-2.9029,-2.9006,-2.9075,-2.8295,-2.7895,-2.9452,0.0,0.0,0.0,0.0,0.0,0.0,0.0,0.0,0.0,0.0,0.0,0.0,0.0,0.0,0.0,0.0,0.0,0.0,0.0,0.0,0.0,0.0,0.0,0.0,-3.9424,-3.925,-3.925,-3.9472,-3.9676,-3.9819,-4.0563,-4.0928,-4.0912,-4.0719,-4.0498,-4.0262,-4.1119,-4.1507,-4.1584,0.0,-4.2987,-4.3016,-4.2978,-4.2741,-4.2336,-4.1919,-4.1362,-4.0691,-3.9879,-3.9581,-3.9413,0.0,0.0,0.0,0.0,0.0,0.0,0.0,0.0,0.0,0.0,0.0,0.0,0.0,0.0,0.0,0.0,0.0,0.0,0.0,0.0,0.0,0.0,0.0,0.0,0.0,0.0,0.0,0.0,0.0,-2.5259,-2.5005,-2.5005,-2.5005,-2.5005,0.0,0.0,-2.5005,-2.5029,-2.5025,-2.5005,0.0,0.0,0.0,0.0,0.0,0.0,0.0,0.0,0.0,0.0,-2.8568,-2.8331,-2.6941,0.0,0.0,0.0,0.0,0.0,-2.9098,-2.9098,-2.9098,-2.9098,-2.8732,-2.8722,-3.0119,0.0,0.0,0.0,0.0,0.0,0.0,0.0,0.0,0.0,0.0,0.0,0.0,0.0,0.0,0.0,0.0,0.0,0.0,0.0,0.0,0.0,0.0,0.0,0.0,0.0,-3.8198,-3.8198,-3.8472,-3.8707,-3.881,-3.9359,-3.9879,-4.037,-4.026,-4.0229,-4.0261,-4.0767,-4.0929,-4.0882,0.0,-4.151,-4.131,-4.1674,-4.1503,-4.1044,-4.0889,-4.043,-3.9753,-3.9054,-3.8947,-3.896,0.0,0.0,0.0,0.0,0.0,0.0,0.0,0.0,0.0,0.0,0.0,0.0,0.0,0.0,0.0,0.0,0.0,0.0,0.0,0.0,0.0,0.0,0.0,0.0,0.0,0.0,-2.6171,-2.5897,-2.5549,-2.5259,-2.5005,-2.5005,-2.5005,0.0,0.0,0.0,-2.5005,-2.5005,-2.5005,-2.5041,0.0,0.0,0.0,0.0,0.0,0.0,0.0,0.0,0.0,0.0,0.0,0.0,0.0,0.0,0.0,-2.7304,-2.804,-2.9098,-2.9098,-2.9098,-2.9098,-2.9098,0.0,-2.9659,-3.0741,0.0,0.0,0.0,0.0,0.0,0.0,0.0,0.0,0.0,0.0,0.0,0.0,0.0,0.0,0.0,0.0,0.0,0.0,0.0,0.0,0.0,0.0,0.0,0.0,0.0,-3.7178,-3.7178,-3.7506,-3.7775,-3.7933,-3.8253,-3.8814,-3.9682,-3.9637,-3.9751,-4.0054,-4.0087,-4.0115,-4.0137,-4.0241,-4.0139,-3.9858,-4.0375,-4.0198,-3.9657,-3.9695,-3.9268,-3.8524,-3.815,-3.8172,-3.8211,0.0,0.0,0.0,0.0,0.0,0.0,0.0,0.0,0.0,0.0,0.0,0.0,0.0,0.0,0.0,0.0,0.0,0.0,0.0,0.0,0.0,0.0,0.0,0.0,0.0,-2.6452,-2.6171,-2.5897,-2.5549,-2.5259,-2.5005,-2.5005,-2.5005,-2.5005,0.0,0.0,-2.5005,-2.5005,-2.5045,-2.5135,-2.5702,0.0,0.0,0.0,0.0,0.0,0.0,0.0,0.0,0.0,0.0,0.0,0.0,0.0,-2.7968,-2.7304,-2.804,-2.9098,-2.9098,-2.9098,-2.9098,-2.9098,-2.9611,0.0,-3.0867,-3.1444,0.0,0.0,0.0,0.0,0.0,0.0,0.0,0.0,0.0,0.0,0.0,0.0,0.0,0.0,0.0,0.0,0.0,0.0,0.0,0.0,0.0,0.0,0.0,0.0,0.0,-3.6554,-3.6908,-3.7061,-3.7077,-3.7363,-3.7933,-3.8782,-3.8478,-3.8253,-3.8097,-3.8302,-3.8387,-3.8419,-3.8982,-3.9329,-3.9518,-3.9579,-3.9344,-3.8929,-3.8507,-3.7667,-3.6707,-3.6661,-3.652,-3.6378,0.0,0.0,0.0,0.0,0.0,0.0,0.0,0.0,0.0,0.0,0.0,0.0,0.0,0.0,0.0,0.0,0.0,0.0,0.0,0.0,0.0,0.0,0.0,-2.6624,-2.6453,-2.6348,-2.6171,-2.5897,-2.5394,-2.5103,-2.5005,-2.5005,0.0,0.0,0.0,0.0,-2.5005,-2.5029,-2.5282,-2.569,-2.6041,-2.6676,0.0,0.0,0.0,0.0,0.0,0.0,0.0,0.0,-2.7004,-2.6372,0.0,0.0,0.0,0.0,-2.8395,-2.9098,-2.9098,-2.9098,-2.9098,-2.9098,0.0,0.0,0.0,0.0,0.0,0.0,0.0,0.0,0.0,0.0,0.0,0.0,0.0,0.0,0.0,0.0,0.0,0.0,0.0,0.0,0.0,0.0,0.0,0.0,0.0,0.0,0.0,0.0,0.0,-3.6461,-3.5962,-3.6021,-3.6677,-3.6531,-3.6866,-3.7648,-3.7677,-3.767,-3.7594,-3.7656,-3.7617,-3.7481,-3.7701,-3.7732,-3.7677,-3.8092,-3.8163,-3.8002,-3.7822,-3.7259,-3.6492,-3.6352,-3.6211,-3.6053,0.0,0.0,0.0,0.0,0.0,0.0,0.0,0.0,0.0,0.0,0.0,0.0,0.0,0.0,0.0,0.0,0.0,0.0,0.0,0.0,0.0,0.0,0.0,-2.6607,-2.6418,-2.626,-2.6028,-2.5733,-2.524,-2.5005,-2.5005,0.0,0.0,0.0,0.0,0.0,0.0,-2.5362,-2.5758,-2.6419,-2.6745,-2.737,0.0,0.0,0.0,0.0,0.0,0.0,0.0,0.0,0.0,0.0,0.0,0.0,0.0,0.0,-2.8426,-2.8783,-2.8783,-2.8783,-2.883,0.0,0.0,0.0,0.0,0.0,0.0,0.0,0.0,0.0,0.0,0.0,0.0,0.0,0.0,0.0,0.0,0.0,0.0,0.0,0.0,0.0,0.0,0.0,0.0,0.0,0.0,0.0,0.0,0.0,0.0,0.0,-3.5145,-3.5236,-3.6168,-3.5903,-3.6102,-3.6739,-3.6734,-3.6899,-3.7254,-3.7148,-3.7029,-3.6847,-3.6847,-3.6724,-3.6522,-3.6921,-3.7074,-3.7025,-3.7025,-3.6734,-3.6336,-3.6179,-3.6053,-3.5894,0.0,0.0,0.0,0.0,0.0,0.0,0.0,0.0,0.0,0.0,0.0,0.0,0.0,0.0,0.0,0.0,0.0,0.0,0.0,0.0,0.0,0.0,0.0,-2.6691,-2.6691,-2.6171,-2.5733,-2.5413,-2.5143,-2.5005,-2.5005,-2.5005,0.0,0.0,0.0,0.0,0.0,0.0,-2.6466,-2.7248,-2.7854,-2.8145,-2.8275,0.0,0.0,0.0,0.0,0.0,0.0,0.0,-2.6107,0.0,0.0,0.0,0.0,0.0,-2.811,-2.811,-2.811,-2.8094,-2.8252,0.0,0.0,0.0,0.0,0.0,0.0,0.0,0.0,0.0,0.0,0.0,0.0,0.0,0.0,0.0,0.0,0.0,0.0,0.0,0.0,0.0,0.0,0.0,0.0,0.0,0.0,0.0,0.0,0.0,0.0,0.0,-3.4505,-3.4828,-3.5521,-3.5506,-3.5738,-3.618,-3.5523,-3.5814,-3.6969,-3.6647,-3.6492,-3.6492,-3.6492,-3.6492,-3.6492,-3.6274,-3.6116,-3.6005,-3.6005,-3.6005,-3.6005,-3.6005,-3.5863,-3.5688,0.0,0.0,0.0,0.0,0.0,0.0,0.0,0.0,0.0,0.0,0.0,0.0,0.0,0.0,0.0,0.0,0.0,0.0,0.0,0.0,0.0,0.0,0.0,0.0,0.0,0.0,-2.564,-2.5123,-2.5045,-2.5005,0.0,0.0,0.0,-2.5017,0.0,0.0,0.0,0.0,-2.7238,-2.786,-2.8088,-2.8145,-2.8155,0.0,0.0,0.0,0.0,0.0,0.0,0.0,0.0,0.0,0.0,0.0,0.0,-2.8679,-2.8798,-2.8798,-2.8798,-2.8474,0.0,0.0,0.0,0.0,0.0,0.0,0.0,0.0,0.0,0.0,0.0,0.0,0.0,0.0,0.0,0.0,0.0,0.0,0.0,0.0,0.0,0.0,0.0,0.0,0.0,0.0,0.0,0.0,0.0,0.0,0.0,0.0,-3.4706,-3.4887,-3.6536,-3.523,-3.4896,-3.5492,-3.5186,-3.5476,-3.6289,-3.5721,-3.569,-3.6132,-3.6132,-3.6132,-3.6132,-3.6068,-3.6037,-3.6005,-3.6005,-3.6005,-3.5973,-3.5831,-3.5752,-3.5688,0.0,0.0,0.0,0.0,0.0,0.0,0.0,0.0,0.0,0.0,0.0,0.0,0.0,0.0,0.0,0.0,0.0,0.0,0.0,0.0,0.0,0.0,0.0,0.0,0.0,-2.6171,-2.5791,0.0,0.0,0.0,0.0,0.0,0.0,-2.5412,0.0,-2.6309,0.0,0.0,-2.7923,-2.8474,-2.8256,-2.8123,-2.8063,0.0,0.0,0.0,0.0,0.0,0.0,0.0,0.0,0.0,0.0,0.0,0.0,-2.8656,-2.8688,-2.8625,-2.8372,0.0,0.0,0.0,0.0,0.0,0.0,0.0,0.0,0.0,0.0,0.0,0.0,0.0,0.0,0.0,0.0,0.0,0.0,0.0,0.0,0.0,0.0,0.0,0.0,0.0,0.0,0.0,0.0,0.0,0.0,0.0,0.0,0.0,-3.4178,-3.4166,-3.5559,-3.4445,-3.4132,-3.4638,-3.4288,-3.4424,-3.5028,-3.5001,-3.523,-3.5625,-3.5883,-3.5941,-3.5863,-3.5863,-3.5846,-3.5797,-3.5797,-3.5797,-3.5797,-3.5653,-3.5621,-3.5621,0.0,0.0,0.0,0.0,0.0,0.0,0.0,0.0,0.0,0.0,0.0,0.0,0.0,0.0,0.0,0.0,0.0,0.0,0.0,0.0,0.0,0.0,0.0,0.0,0.0,0.0,0.0,0.0,0.0,0.0,0.0,0.0,-2.5428,-2.6009,0.0,-2.6893,0.0,-2.8094,-2.8489,-2.9035,-2.83,-2.8047,-2.8015,-2.7367,0.0,0.0,0.0,0.0,0.0,0.0,0.0,0.0,0.0,0.0,-2.8972,-2.8379,-2.8142,-2.7984,0.0,0.0,0.0,0.0,0.0,0.0,0.0,0.0,0.0,0.0,0.0,0.0,0.0,0.0,0.0,0.0,0.0,0.0,0.0,0.0,0.0,0.0,0.0,0.0,0.0,0.0,0.0,0.0,0.0,0.0,0.0,0.0,0.0,-3.3991,-3.3357,-3.3193,-3.3519,-3.3429,-3.3505,0.0,-3.3095,-3.2991,-3.3411,-3.4333,-3.4834,-3.4986,-3.5593,-3.5785,-3.5688,-3.5688,-3.5621,-3.5504,-3.5504,-3.5504,-3.5504,-3.5504,-3.5504,-3.5504,0.0,0.0,0.0,0.0,0.0,0.0,0.0,0.0,0.0,0.0,0.0,0.0,0.0,0.0,0.0,0.0,0.0,0.0,0.0,0.0,0.0,0.0,0.0,0.0,0.0,0.0,0.0,0.0,0.0,0.0,0.0,0.0,0.0,-2.6056,0.0,-2.781,-2.8094,-2.8094,-2.8489,-2.9004,-2.781,-2.762,-2.8015,-2.7367,-2.7004,0.0,0.0,0.0,0.0,0.0,0.0,0.0,-2.8719,-2.8988,-2.9082,-2.8925,-2.8521,-2.8173,0.0,0.0,0.0,0.0,0.0,0.0,0.0,0.0,0.0,0.0,0.0,0.0,0.0,0.0,0.0,0.0,0.0,0.0,0.0,0.0,0.0,0.0,0.0,0.0,0.0,0.0,0.0,0.0,0.0,0.0,0.0,0.0,0.0,-3.459,-3.4221,-3.4199,-3.4574,-3.369,-3.3261,0.0,-3.2809,-3.2465,-3.2322,-3.281,-3.3622,-3.4613,-3.4748,-3.5091,-3.5554,-3.5554,-3.5537,-3.5504,-3.5504,-3.5504,-3.5504,-3.5504,-3.5504,-3.5504,0.0,0.0,0.0,0.0,0.0,0.0,0.0,0.0,0.0,0.0,0.0,0.0,0.0,0.0,0.0,0.0,0.0,0.0,0.0,0.0,0.0,0.0,0.0,0.0,0.0,0.0,0.0,0.0,0.0,0.0,0.0,0.0,0.0,-2.7036,0.0,-2.8284,-2.8568,-2.8237,-2.83,-2.8537,-2.751,-2.732,-2.7589,-2.7225,-2.7099,-2.7146,-2.7462,0.0,0.0,0.0,0.0,0.0,0.0,0.0,-2.9035,-2.8726,-2.8616,-2.8561,0.0,0.0,0.0,0.0,0.0,0.0,0.0,0.0,0.0,0.0,0.0,0.0,0.0,0.0,0.0,0.0,0.0,0.0,0.0,0.0,0.0,0.0,0.0,0.0,0.0,0.0,0.0,0.0,0.0,0.0,0.0,-3.3969,-3.4197,-3.4547,-3.4085,-3.3857,-3.3942,-3.3333,-3.298,-3.2824,-3.244,-3.2101,-3.1784,-3.2272,-3.2886,-3.3574,-3.4234,-3.4713,-3.5011,-3.5011,-3.5011,-3.4981,-3.4666,-3.4741,-3.5011,-3.5011,-3.522,-3.5504,0.0,0.0,0.0,0.0,0.0,0.0,0.0,0.0,0.0,0.0,0.0,0.0,0.0,0.0,0.0,0.0,0.0,0.0,0.0,0.0,0.0,0.0,0.0,0.0,0.0,0.0,0.0,0.0,0.0,0.0,0.0,0.0,0.0,-2.8094,0.0,0.0,-2.8893,-2.8347,-2.8094,-2.8031,-2.7367,-2.7241,-2.7446,-2.732,-2.7352,-2.7525,-2.8079,-2.8268,-2.8363,-2.8909,0.0,0.0,0.0,0.0,-2.8988,-2.8442,-2.8679,-2.9004,0.0,0.0,0.0,0.0,0.0,0.0,0.0,0.0,0.0,0.0,0.0,0.0,0.0,0.0,0.0,0.0,0.0,0.0,0.0,0.0,0.0,0.0,0.0,0.0,0.0,0.0,0.0,0.0,0.0,0.0,-3.3666,-3.4016,-3.4106,-3.3887,-3.3488,-3.3176,-3.2897,-3.2897,-3.2746,-3.248,-3.2206,-3.1868,-3.1525,-3.2064,-3.2378,-3.2572,-3.3664,-3.4234,-3.4339,-3.4339,-3.4339,-3.4279,-3.3709,-3.3829,-3.4339,-3.4339,-3.4741,-3.5325,0.0,0.0,0.0,0.0,0.0,0.0,0.0,0.0,0.0,0.0,0.0,0.0,0.0,0.0,0.0,0.0,0.0,0.0,-2.6691,0.0,0.0,-2.6691,-2.6691,0.0,0.0,0.0,0.0,0.0,0.0,0.0,0.0,0.0,0.0,-2.8126,0.0,0.0,-2.8221,-2.8126,-2.8094,-2.8031,-2.7367,-2.781,-2.8767,-2.8189,-2.8331,-2.8846,-2.8925,-2.8972,-2.8972,-2.9082,-2.9098,0.0,0.0,0.0,-2.9082,-2.8988,-2.9035,-2.9209,0.0,0.0,0.0,0.0,0.0,0.0,0.0,0.0,0.0,0.0,0.0,0.0,0.0,0.0,0.0,0.0,0.0,0.0,0.0,0.0,0.0,0.0,0.0,0.0,0.0,0.0,0.0,0.0,0.0,0.0,-3.1273,-3.2126,-3.2483,-3.2233,-3.2919,-3.3176,-3.2897,-3.2897,-3.287,-3.2843,-3.2496,-3.2051,-3.1511,-3.1585,-3.1944,-3.2497,-3.2706,-3.3095,-3.3619,-3.3619,-3.3619,-3.3619,-3.3529,-3.3544,-3.3619,-3.3619,-3.4038,-3.4638,0.0,0.0,0.0,0.0,0.0,0.0,0.0,0.0,0.0,0.0,0.0,0.0,0.0,0.0,0.0,-2.6708,-2.6691,-2.6691,-2.6691,-2.6691,-2.6691,-2.6691,-2.7097,-2.7247,0.0,0.0,0.0,0.0,0.0,0.0,0.0,-2.862,-2.8586,0.0,0.0,0.0,0.0,0.0,0.0,-2.8085,-2.8067,0.0,0.0,-2.8852,-2.892,-2.8777,-2.9025,-2.9098,-2.9098,-2.9098,-2.9098,-2.9098,-2.9098,0.0,0.0,0.0,-2.9722,0.0,0.0,0.0,0.0,0.0,0.0,0.0,0.0,0.0,0.0,0.0,0.0,0.0,0.0,0.0,0.0,0.0,0.0,0.0,0.0,0.0,0.0,0.0,0.0,0.0,0.0,0.0,0.0,0.0,0.0,-3.0747,-3.1017,-3.1291,-3.1413,-3.1285,-3.154,-3.1804,-3.2048,-3.2251,-3.2438,-3.2621,-3.2453,-3.2064,-3.1511,-3.1511,-3.166,-3.1959,-3.2333,-3.2677,-3.2946,-3.2946,-3.2946,-3.2901,-3.2542,-3.2617,-3.2991,-3.3365,-3.3903,-3.4563,0.0,0.0,0.0,0.0,0.0,0.0,0.0,0.0,0.0,0.0,0.0,0.0,0.0,0.0,0.0,0.0,-2.6691,-2.6776,-2.6962,-2.7165,-2.7283,-2.7283,-2.7824,-2.8005,-2.7823,0.0,0.0,0.0,0.0,0.0,-3.0048,-2.9846,-3.0001,0.0,-2.9772,0.0,0.0,0.0,0.0,0.0,0.0,0.0,0.0,0.0,-2.9065,-2.8608,-2.8944,-2.922,-2.9425,-2.919,-2.9167,-2.9275,-2.9366,-2.9367,0.0,0.0,0.0,0.0,0.0,0.0,0.0,0.0,0.0,0.0,0.0,0.0,0.0,0.0,0.0,0.0,0.0,0.0,0.0,0.0,0.0,0.0,0.0,0.0,0.0,0.0,0.0,0.0,0.0,0.0,0.0,0.0,0.0,-3.0037,-3.0532,-3.0622,-3.0617,-3.0567,-3.052,-3.0758,-3.1226,-3.1596,-3.1874,-3.2041,-3.221,-3.2023,-3.1511,-3.1511,-3.1511,-3.1525,-3.2019,-3.2243,-3.2243,-3.2243,-3.2333,-3.2422,-3.1765,-3.2004,-3.2796,-3.3125,-3.3769,-3.4578,0.0,0.0,0.0,0.0,0.0,0.0,0.0,0.0,0.0,0.0,0.0,0.0,-2.6725,-2.6809,-2.6842,-2.6708,-2.6691,-2.6996,-2.7705,-2.845,-2.8874,-2.8874,-2.8925,0.0,-2.8924,0.0,0.0,0.0,0.0,0.0,-3.0758,-3.0917,-3.1418,-3.2124,-3.1083,-3.0283,-2.976,0.0,0.0,0.0,0.0,0.0,0.0,0.0,0.0,0.0,0.0,-2.9556,-3.0288,-2.9403,-2.9403,-2.9812,-3.0061,-3.0141,-3.0283,0.0,0.0,0.0,0.0,0.0,0.0,0.0,0.0,0.0,0.0,0.0,0.0,0.0,0.0,0.0,0.0,0.0,0.0,0.0,0.0,0.0,0.0,0.0,0.0,0.0,0.0,0.0,0.0,0.0,0.0,0.0,0.0,-2.8771,-2.8818,-2.9721,-3.0107,-2.9848,-3.0464,-3.0797,-3.0828,-3.1232,-3.1305,-3.1083,-3.1721,-3.1855,-3.1511,-3.1511,-3.1511,-3.1511,-3.154,-3.1555,-3.1555,-3.1555,-3.1929,-3.2422,-3.1765,-3.2288,-3.338,-3.2781,-3.338,-3.4503,0.0,0.0,0.0,0.0,0.0,0.0,0.0,0.0,0.0,0.0,0.0,0.0,0.0,-2.7233,-2.7453,-2.7401,-2.7875,-2.8299,-2.8552,-2.884,-2.9029,-2.9049,-2.9468,-2.9739,-2.9761,0.0,0.0,0.0,0.0,-3.1168,-3.1252,-3.1805,-3.2103,-3.2137,-3.1462,-3.1227,-3.1358,-3.1188,0.0,0.0,0.0,0.0,0.0,0.0,0.0,0.0,0.0,0.0,0.0,-2.9531,-2.9986,-3.0712,-3.0813,-3.0844,-3.0986,-3.1706,-3.2418,0.0,0.0,0.0,0.0,0.0,0.0,0.0,0.0,0.0,0.0,0.0,0.0,0.0,0.0,0.0,0.0,0.0,0.0,0.0,0.0,0.0,0.0,0.0,0.0,0.0,0.0,0.0,0.0,0.0,0.0,0.0,-2.8501,-2.87,-2.875,-2.8652,-2.8882,-2.9279,-2.9912,-3.0293,-3.0445,-3.0369,-3.1025,-3.1177,-3.0853,-3.1301,-3.1511,-3.1511,-3.1511,-3.175,-3.2168,-3.2617,-3.2931,-3.3125,-3.2886,-3.308,-3.3514,-3.3709,-3.4099,-3.4578,0.0,0.0,0.0,0.0,0.0,0.0,0.0,0.0,0.0,0.0,0.0,0.0,0.0,0.0,-2.8094,-2.7824,-2.8535,-2.8909,-2.8691,-2.9113,-2.9402,-2.9478,-3.0114,-3.0482,-3.0525,0.0,0.0,0.0,0.0,0.0,0.0,-3.2684,-3.2929,-3.2754,-3.2362,-3.2341,0.0,0.0,0.0,-3.1069,0.0,0.0,-2.9752,0.0,0.0,0.0,0.0,0.0,0.0,0.0,0.0,-3.1459,-3.1598,-3.1878,-3.2224,-3.2548,-3.3085,0.0,-3.2594,0.0,0.0,0.0,0.0,0.0,0.0,0.0,0.0,0.0,0.0,0.0,0.0,0.0,0.0,0.0,0.0,0.0,0.0,0.0,0.0,0.0,0.0,0.0,0.0,0.0,0.0,0.0,0.0,0.0,-2.8501,-2.8332,-2.8177,-2.8005,-2.7995,-2.8292,-2.8903,-2.9336,-2.9591,-2.967,-3.0261,-3.0416,-3.0223,-3.0881,-3.1152,-3.1182,-3.163,-3.1959,-3.2213,-3.2901,-3.3305,-3.3499,-3.3499,-3.3769,-3.4203,-3.4429,-3.4653,-3.4891,0.0,0.0,0.0,0.0,0.0,0.0,0.0,0.0,0.0,0.0,0.0,0.0,0.0,0.0,0.0,-2.7908,-2.8552,-2.8724,-2.8117,-2.9334,-3.0146,-3.0223,-3.0859,-3.119,-3.121,0.0,0.0,0.0,0.0,0.0,0.0,0.0,-3.3977,-3.4093,-3.3856,-3.3522,-3.3187,0.0,-3.3015,-3.261,0.0,-3.0055,-2.9889,0.0,0.0,0.0,-3.1879,-3.285,0.0,-3.1873,0.0,0.0,0.0,-3.3232,-3.3975,-3.345,-3.3658,0.0,0.0,0.0,0.0,0.0,0.0,0.0,0.0,0.0,0.0,0.0,0.0,0.0,0.0,0.0,0.0,0.0,0.0,0.0,0.0,0.0,0.0,0.0,0.0,0.0,0.0,0.0,0.0,0.0,0.0,-2.8708,-2.8685,-2.8685,-2.8462,-2.8005,-2.798,-2.798,-2.7995,-2.8377,-2.8692,-2.8965,-2.9369,-2.9577,-2.9592,-3.0193,-3.0492,-3.0567,-3.1884,-3.2079,-3.1555,-3.2228,-3.2931,-3.3529,-3.3529,-3.4337,-3.5429,-3.4788,-3.4936,-3.5504,0.0,0.0,0.0,0.0,0.0,0.0,0.0,0.0,0.0,0.0,0.0,0.0,-2.8745,-2.8894,-2.8926,-2.876,-2.893,-2.9219,-2.9578,-2.9949,-3.0425,-3.0972,-3.1131,-3.1213,-3.1274,0.0,0.0,0.0,0.0,0.0,0.0,0.0,0.0,0.0,-3.4486,-3.4031,-3.2983,-3.2774,0.0,0.0,-3.0594,-3.0434,0.0,0.0,0.0,0.0,0.0,-3.2605,-3.2981,0.0,-3.2758,-3.3153,0.0,0.0,0.0,0.0,0.0,0.0,-3.3085,0.0,0.0,0.0,0.0,0.0,0.0,0.0,0.0,0.0,0.0,0.0,0.0,0.0,0.0,0.0,0.0,0.0,0.0,0.0,0.0,0.0,0.0,0.0,0.0,0.0,0.0,0.0,-2.8708,-2.8629,-2.8493,-2.8284,-2.8128,-2.8005,-2.7815,-2.779,-2.7995,-2.7921,-2.7895,-2.7986,-2.8599,-2.8876,-2.8891,-2.9549,-3.0088,-3.0522,-3.1052,-3.1369,-3.1585,-3.2766,-3.3604,-3.4234,-3.4234,-3.4741,-3.5489,-3.5295,-3.534,-3.5504,0.0,0.0,0.0,0.0,0.0,0.0,0.0,0.0,0.0,0.0,0.0,0.0,-2.9563,-2.9578,-2.9458,-2.9135,-2.9101,-2.9271,-2.9714,-2.9999,-3.0355,-3.0819,-3.1063,-3.1365,-3.1712,0.0,0.0,0.0,0.0,0.0,0.0,0.0,0.0,0.0,0.0,0.0,0.0,0.0,0.0,0.0,-3.0968,0.0,0.0,-3.2221,-3.2428,0.0,0.0,0.0,-3.3505,-3.3505,-3.3781,0.0,0.0,0.0,0.0,0.0,0.0,0.0,0.0,0.0,0.0,0.0,0.0,0.0,-3.1384,-3.0752,0.0,0.0,0.0,0.0,0.0,0.0,0.0,0.0,0.0,0.0,0.0,0.0,0.0,0.0,0.0,0.0,0.0,0.0,0.0,-2.8889,-2.8865,-2.8771,-2.8549,-2.8299,-2.8168,-2.8168,-2.7905,-2.789,-2.8152,-2.779,-2.765,-2.7765,-2.8055,-2.8173,-2.8214,-2.8861,-2.937,-2.9729,-3.0123,-3.0591,-3.1137,-3.1928,-3.2811,-3.3709,-3.4294,-3.4758,-3.5115,-3.54,-3.5504,-3.5504,0.0,0.0,0.0,0.0,0.0,0.0,0.0,0.0,0.0,0.0,0.0,0.0,0.0,-3.0229,-2.9941,-2.917,-2.9101,-2.9169,-2.9339,-2.991,-3.0332,-3.0562,-3.1128,-3.1769,-3.2432,0.0,0.0,0.0,0.0,0.0,0.0,0.0,0.0,0.0,0.0,0.0,0.0,0.0,0.0,-3.2679,-3.1881,-3.2383,0.0,0.0,-3.4049,-3.4763,-3.5187,-3.4996,-3.4489,-3.4344,-3.4464,0.0,0.0,0.0,0.0,0.0,-3.3182,0.0,0.0,0.0,0.0,0.0,0.0,0.0,-3.0905,-3.0435,-3.0101,0.0,0.0,0.0,0.0,0.0,0.0,0.0,0.0,0.0,0.0,0.0,0.0,0.0,0.0,0.0,0.0,-2.9029,-2.9075,-2.9098,-2.9075,-2.8936,-2.8677,-2.8453,-2.8363,-2.8363,-2.8103,-2.8079,-2.8348,-2.785,-2.7715,-2.7955,-2.77,-2.76,-2.7615,-2.8203,-2.8532,-2.8637,-2.9247,-2.9846,-3.0402,-3.043,-3.124,-3.2632,-3.3799,-3.4384,-3.4578,-3.516,-3.5444,-3.5489,-2.8923,0.0,0.0,0.0,0.0,0.0,0.0,0.0,0.0,0.0,0.0,0.0,0.0,-2.9661,-2.9235,-2.9101,-2.9101,-2.9611,-3.0781,-3.0983,-3.1591,-3.2733,-3.2899,-3.3093,-3.3349,-3.308,0.0,0.0,0.0,0.0,0.0,0.0,0.0,0.0,0.0,0.0,0.0,0.0,0.0,-3.3636,-3.3281,0.0,-3.359,-3.359,-3.4066,-3.4618,-3.4037,-3.4117,-3.4344,-3.3323,-3.3678,-3.4346,0.0,0.0,0.0,-3.3409,0.0,0.0,0.0,0.0,0.0,0.0,0.0,0.0,-3.2446,-3.1907,-3.1404,0.0,0.0,0.0,0.0,0.0,0.0,0.0,0.0,0.0,0.0,0.0,0.0,0.0,0.0,0.0,0.0,-2.8677,-2.8865,-2.9075,-2.8912,-2.8677,-2.8468,-2.8226,-2.8094,-2.8094,-2.7815,-2.7815,-2.8094,-2.775,-2.7625,-2.7675,-2.7625,-2.76,-2.76,-2.7735,-2.8094,-2.8607,-2.8843,-2.9278,-2.9786,-2.988,-3.0949,-3.2542,-3.2796,-3.3544,-3.4518,-3.4653,-3.5026,-3.5429,-3.0038,0.0,0.0,0.0,0.0,0.0,0.0,0.0,0.0,0.0,0.0,0.0,0.0,0.0,0.0,-3.0172,-2.9849,-3.0121,-3.1225,-3.1271,-3.1571,-3.232,-3.2354,-3.273,-3.3573,-3.3714,-3.4343,0.0,0.0,0.0,0.0,0.0,0.0,0.0,0.0,0.0,0.0,0.0,-3.4082,-3.4415,-3.3932,0.0,-3.4184,-3.3792,-3.4091,-3.4589,-3.3719,-3.3643,-3.3736,-3.2353,-3.3064,0.0,0.0,-3.3488,-3.4171,0.0,-3.3246,-3.2756,0.0,0.0,0.0,-3.2621,0.0,0.0,0.0,-3.1766,-3.1385,0.0,0.0,0.0,0.0,0.0,0.0,0.0,0.0,0.0,0.0,0.0,0.0,0.0,0.0,0.0,0.0,-2.8493,-2.8597,-2.874,-2.8621,-2.8501,-2.8411,-2.8275,-2.8217,-2.8217,-2.794,-2.7855,-2.7995,-2.774,-2.76,-2.76,-2.7675,-2.765,-2.76,-2.7675,-2.7845,-2.8124,-2.8171,-2.8535,-2.9112,-2.9165,-2.9931,-3.112,-3.1735,-3.2856,-3.4132,-3.4415,-3.4728,-3.4936,-3.1232,0.0,0.0,0.0,0.0,0.0,0.0,0.0,0.0,0.0,0.0,0.0,0.0,0.0,0.0,0.0,-3.0747,-3.0715,0.0,-3.1452,-3.1433,-3.1497,-3.1633,-3.2227,-3.3373,-3.371,-3.448,-3.5757,0.0,0.0,0.0,0.0,0.0,0.0,0.0,0.0,0.0,0.0,0.0,-3.4799,0.0,-3.4507,-3.4998,-3.4175,-3.4214,-3.4538,-3.355,-3.3102,-3.2814,-3.1765,-3.2679,-3.4136,-3.3251,-3.3688,0.0,0.0,0.0,0.0,0.0,0.0,0.0,0.0,0.0,-3.2532,0.0,0.0,0.0,0.0,0.0,0.0,0.0,0.0,0.0,0.0,0.0,0.0,0.0,0.0,0.0,0.0,0.0,0.0,0.0,-2.8693,-2.8656,-2.8411,-2.8568,-2.8583,-2.8339,-2.8275,-2.8275,-2.8339,-2.8054,-2.7955,-2.7995,-2.774,-2.7625,-2.765,-2.7765,-2.7765,-2.7675,-2.779,-2.779,-2.7675,-2.7675,-2.7965,-2.849,-2.8464,-2.8854,-2.96,-3.0821,-3.2107,-3.3352,-3.3905,-3.4219,-3.4294,-3.1388,-3.2218,0.0,0.0,0.0,0.0,0.0,0.0,0.0,0.0,0.0,0.0,0.0,0.0,0.0,0.0,0.0,0.0,-3.2144,0.0,-3.2175,-3.2195,-3.2818,-3.2978,-3.2644,-3.3339,-3.3867,-3.4157,0.0,0.0,0.0,0.0,0.0,0.0,-3.2576,0.0,0.0,0.0,-3.4194,0.0,-3.4815,-3.5317,0.0,-3.487,-3.455,-3.4341,-3.2936,-3.2005,-3.1512,0.0,-3.2784,-3.3605,0.0,-3.3946,-3.3703,-3.4475,0.0,0.0,0.0,0.0,0.0,0.0,-3.3485,0.0,0.0,0.0,0.0,0.0,0.0,0.0,0.0,0.0,0.0,0.0,0.0,0.0,0.0,0.0,0.0,0.0,0.0,0.0,0.0,0.0,-2.9555,-2.8466,-2.9164,-2.9177,-2.8084,-2.7815,-2.7815,-2.8044,-2.779,-2.7765,-2.7995,-2.774,-2.765,-2.779,-2.779,-2.784,-2.7955,-2.7955,-2.7955,-2.7955,-2.7955,-2.8,-2.8051,-2.7936,-2.8354,-2.9171,-3.0201,-3.1091,-3.1839,-3.2497,-3.3095,-3.3529,-3.2462,-3.2955,0.0,0.0,0.0,0.0,0.0,0.0,0.0,0.0,0.0,0.0,0.0,0.0,0.0,0.0,0.0,-3.1805,0.0,0.0,0.0,-3.1712,-3.2035,-3.2275,-3.2508,-3.2878,-3.3314,-3.3836,-3.3937,0.0,0.0,0.0,0.0,0.0,-3.3007,0.0,-3.3869,0.0,0.0,0.0,0.0,0.0,0.0,-3.3932,-3.3135,-3.2561,-3.1933,-3.1526,-3.1305,0.0,-3.2469,0.0,0.0,0.0,0.0,0.0,0.0,0.0,0.0,0.0,0.0,0.0,0.0,0.0,-3.3298,0.0,-3.2958,0.0,0.0,0.0,0.0,0.0,0.0,0.0,0.0,0.0,0.0,0.0,0.0,0.0,0.0,0.0,0.0,0.0,0.0,0.0,0.0,-2.8387,-2.7806,-2.765,-2.765,-2.7765,-2.765,-2.7675,-2.788,-2.7765,-2.779,-2.793,-2.7989,-2.8014,-2.7995,-2.8079,-2.8079,-2.7995,-2.7995,-2.7995,-2.7995,-2.793,-2.8072,-2.8379,-2.9211,-3.0406,-3.17,-3.1854,-3.2333,-3.2886,-3.2669,0.0,0.0,0.0,0.0,0.0,0.0,0.0,0.0,0.0,0.0,0.0,-3.3288,-3.2544,0.0,0.0,-3.2408,-3.1788,0.0,0.0,-3.1128,0.0,0.0,0.0,0.0,-3.2102,-3.2537,-3.31,0.0,0.0,0.0,0.0,0.0,0.0,0.0,-3.3886,-3.3483,0.0,0.0,-3.4835,-3.3862,-3.3719,-3.3965,-3.2975,-3.2073,-3.1351,-3.1351,-3.1351,-3.1385,-3.1589,-3.2329,0.0,-3.2798,0.0,0.0,0.0,0.0,0.0,-3.4562,0.0,0.0,0.0,0.0,0.0,0.0,0.0,0.0,0.0,0.0,0.0,0.0,0.0,0.0,0.0,0.0,0.0,0.0,0.0,0.0,0.0,0.0,0.0,0.0,0.0,0.0,-2.8047,-2.8332,-2.8265,-2.7625,-2.76,-2.76,-2.76,-2.76,-2.765,-2.779,-2.779,-2.7905,-2.8054,-2.8137,-2.8177,-2.8103,-2.8226,-2.8201,-2.8103,-2.8103,-2.8103,-2.8118,-2.8079,-2.8005,-2.796,-2.8409,-2.9682,-3.13,-3.1252,-3.1645,-3.2213,-3.1234,-3.1089,0.0,0.0,0.0,0.0,0.0,0.0,0.0,0.0,0.0,0.0,0.0,0.0,0.0,0.0,0.0,-3.1224,-3.121,0.0,-3.0869,0.0,0.0,-3.0869,0.0,0.0,-3.1346,-3.1383,0.0,0.0,0.0,0.0,0.0,0.0,0.0,-3.4395,-3.4899,-3.4329,-3.4113,-3.4059,-3.3266,-3.2431,-3.1768,0.0,-3.213,-3.1498,-3.1498,0.0,0.0,-3.2317,-3.2591,0.0,0.0,0.0,0.0,0.0,0.0,0.0,0.0,0.0,0.0,-3.4928,0.0,0.0,0.0,0.0,-3.333,0.0,0.0,0.0,0.0,0.0,0.0,-3.2583,0.0,0.0,0.0,0.0,0.0,0.0,0.0,0.0,0.0,0.0,0.0,-2.9139,-2.9878,-2.9603,-2.7705,-2.76,-2.76,-2.76,-2.76,-2.765,-2.779,-2.779,-2.794,-2.8186,-2.821,-2.8275,-2.8387,-2.8387,-2.8387,-2.8387,-2.8387,-2.8387,-2.8387,-2.825,-2.8186,-2.8186,-2.8084,-2.8844,-3.0091,-3.0396,-3.0943,-3.154,0.0,0.0,0.0,0.0,0.0,0.0,0.0,-3.1775,0.0,0.0,0.0,0.0,0.0,-3.251,-3.2039,0.0,0.0,-3.1718,-3.1224,-3.119,0.0,0.0,0.0,-3.1072,0.0,0.0,0.0,0.0,0.0,0.0,0.0,0.0,0.0,0.0,0.0,-3.4497,0.0,0.0,0.0,0.0,0.0,-3.2689,-3.2483,0.0,0.0,-3.1559,-3.1559,-3.1559,0.0,-3.185,-3.2222,-3.2556,-3.2317,-3.2727,-3.3294,-3.3034,-3.3117,0.0,0.0,0.0,-3.3973,-3.4246,0.0,0.0,0.0,0.0,0.0,0.0,0.0,0.0,0.0,0.0,-3.2934,-3.2986,-3.3435,0.0,0.0,0.0,0.0,0.0,0.0,0.0,0.0,0.0,0.0,-2.9441,-2.9131,-2.8645,0.0,-2.7855,-2.7855,-2.7855,-2.7855,-2.7915,-2.8063,-2.8063,-2.8137,-2.8323,-2.8323,-2.8348,-2.8411,-2.8411,-2.8411,-2.8411,-2.8411,-2.8411,-2.8411,-2.8348,-2.8275,-2.8232,-2.8641,-2.9281,-2.9997,-3.0036,-3.0751,-3.167,-3.1318,0.0,0.0,0.0,0.0,0.0,0.0,0.0,0.0,0.0,-3.3038,0.0,-3.2991,0.0,-3.2005,0.0,-3.2056,-3.1819,-3.1616,-3.1343,0.0,-3.1562,-3.1326,0.0,0.0,0.0,0.0,0.0,0.0,-3.2951,0.0,0.0,0.0,0.0,0.0,0.0,0.0,0.0,-3.283,0.0,0.0,-3.267,0.0,0.0,-3.2292,-3.2032,0.0,-3.1671,-3.1671,-3.1671,-3.196,-3.2229,-3.1749,-3.2263,-3.2931,-3.2451,-3.262,-3.2989,-3.3124,-3.3209,0.0,-3.3567,-3.3359,0.0,-3.3444,0.0,0.0,0.0,0.0,0.0,0.0,0.0,0.0,-3.3405,-3.3965,0.0,0.0,-3.3313,0.0,0.0,0.0,0.0,0.0,0.0,-3.0752,-2.9605,-2.9309,-2.8714,0.0,0.0,-2.7874,-2.7582,-2.7834,-2.8054,-2.821,-2.821,-2.8259,-2.8411,-2.8411,-2.8411,-2.8411,-2.8411,-2.8411,-2.8411,-2.8411,-2.8411,-2.8411,-2.8411,-2.8348,-2.8336,-2.901,-2.9649,-3.0144,-3.0201,-3.0878,-3.1784,0.0,0.0,0.0,0.0,-3.1796,0.0,0.0,0.0,-3.3721,0.0,-3.2907,-3.279,-3.2374,-3.1738,-3.1619,-3.2334,-3.1718,-3.1596,-3.231,-3.1698,0.0,0.0,-3.1664,-3.165,-3.2344,0.0,0.0,0.0,0.0,0.0,0.0,0.0,0.0,0.0,-3.5866,0.0,-3.359,-3.3659,-3.3239,-3.2559,-3.2674,-3.2378,-3.1833,-3.1817,-3.2248,-3.28,-3.2059,-3.18,-3.18,-3.18,-3.18,-3.18,-3.18,-3.18,-3.18,-3.18,-3.1709,-3.1751,-3.2393,-3.2463,-3.2493,-3.3039,0.0,0.0,0.0,0.0,-3.3545,0.0,0.0,0.0,0.0,0.0,0.0,-3.3839,-3.4244,-3.4673,0.0,0.0,0.0,0.0,0.0,0.0,0.0,-3.3788,-3.3426,-2.9788,-3.0368,0.0,0.0,0.0,-2.7707,-2.685,-2.7606,-2.8079,-2.821,-2.821,-2.8259,-2.8411,-2.8411,-2.8411,-2.8411,-2.8411,-2.8411,-2.8411,-2.8411,-2.8411,-2.8411,-2.8411,-2.8411,-2.8473,-2.9156,-2.9879,-3.0545,-3.0921,-3.1382,-3.1799,-3.3063,-3.3177,-3.3222,0.0,-3.3108,-3.3328,0.0,0.0,0.0,0.0,-3.3178,-3.3459,-3.2831,-3.308,-3.3373,-3.3542,-3.3121,0.0,0.0,0.0,0.0,-3.3119,-3.2933,-3.2916,-3.3119,-3.3119,0.0,-3.3406,0.0,0.0,-3.4506,0.0,0.0,0.0,0.0,0.0,-3.359,-3.3511,-3.2768,-3.164,-3.1679,-3.1959,0.0,0.0,-3.2152,-3.2739,-3.2057,-3.18,-3.18,-3.18,-3.18,-3.18,-3.18,-3.18,-3.18,-3.18,-3.1781,-3.1797,-3.1967,-3.1982,-3.2095,-3.2613,-3.2219,-3.183,0.0,0.0,0.0,0.0,0.0,0.0,0.0,0.0,0.0,0.0,0.0,0.0,0.0,0.0,0.0,-3.4586,0.0,0.0,-3.3966,-3.2358,-3.121,-3.0917,-2.9943,0.0,0.0,0.0,0.0,-2.7152,-2.7874,-2.8299,-2.8348,-2.8348,-2.8372,-2.8411,-2.8411,-2.8411,-2.8411,-2.8411,-2.8411,-2.8411,-2.8411,-2.8411,-2.8411,-2.8411,-2.8411,-2.8519,-2.9679,-3.0848,-3.1878,-3.1774,-3.1775,-3.1784,-3.3647,0.0,0.0,-3.3563,0.0,0.0,-3.3506,0.0,0.0,-3.3135,-3.4057,0.0,-3.3465,-3.3753,-3.3933,-3.3747,-3.3535,0.0,-3.3863,0.0,0.0,-3.3863,-3.3575,-3.3558,-3.388,-3.388,0.0,-3.4349,0.0,0.0,-3.4996,0.0,0.0,0.0,0.0,-3.5001,0.0,-3.3207,-3.2486,-3.1788,-3.1431,0.0,0.0,-3.1692,-3.1852,-3.2217,-3.1845,-3.1746,-3.18,-3.18,-3.18,-3.18,-3.18,-3.18,-3.18,-3.18,-3.18,-3.18,-3.18,-3.18,-3.1885,-3.2166,-3.1805,-3.1466,-3.2,-3.1733,-3.1357,0.0,0.0,0.0,0.0,0.0,0.0,0.0,0.0,0.0,0.0,0.0,0.0,0.0,-3.5054,0.0,-3.4911,-3.2658,-3.1366,-3.181,0.0,0.0,0.0,0.0,0.0,-2.7507,-2.7954,-2.825,-2.8323,-2.8323,-2.8348,-2.8411,-2.8411,-2.8411,-2.8411,-2.8411,-2.8411,-2.8411,-2.8411,-2.8411,-2.8411,-2.8411,-2.8411,-2.8535,-2.9879,-3.1228,-3.237,-3.2163,-3.2038,-3.1968,0.0,0.0,0.0,0.0,0.0,0.0,0.0,-3.4605,0.0,-3.4257,0.0,-3.5551,-3.4434,-3.4393,-3.4306,-3.3973,0.0,-3.405,-3.4699,-3.4092,-3.3981,-3.4624,-3.4032,-3.3998,-3.4624,-3.4641,-3.4962,0.0,0.0,0.0,0.0,0.0,0.0,0.0,0.0,0.0,0.0,-3.3038,-3.2503,0.0,-3.1854,-3.1589,-3.1596,-3.1615,-3.1604,-3.156,-3.1579,-3.169,-3.18,-3.18,-3.18,-3.18,-3.18,-3.18,-3.18,-3.18,-3.18,-3.18,-3.18,-3.18,-3.18,-3.18,-3.1651,-3.163,-3.208,-3.2015,-3.1838,-3.1817,-3.2316,-3.2479,0.0,0.0,0.0,0.0,0.0,0.0,0.0,0.0,0.0,0.0,0.0,0.0,0.0,-3.3712,-3.2624,0.0,0.0,0.0,0.0,0.0,0.0,-2.771,-2.7885,-2.8079,-2.8268,0.0,-2.8284,-2.8468,-2.842,-2.8411,-2.8411,-2.8411,-2.8411,-2.8411,-2.8411,-2.8411,-2.8411,-2.8411,-2.8504,-2.8796,-3.0033,-3.1305,-3.2398,-3.2274,-3.2219,-3.2219,0.0,0.0,0.0,0.0,0.0,-3.5564,-3.5419,-3.5573,-3.5519,-3.5057,-3.6049,-3.657,-3.6043,-3.6522,-3.6858,-3.6783,-3.6177,0.0,0.0,0.0,0.0,-3.5397,-3.5278,-3.5278,-3.5397,-3.5397,-3.5464,0.0,0.0,0.0,0.0,0.0,0.0,0.0,0.0,0.0,-3.4438,-3.3575,0.0,-3.3224,-3.3089,-3.2686,-3.2167,-3.2281,-3.193,-3.1372,-3.1542,-3.169,-3.18,-3.18,-3.18,-3.18,-3.18,-3.18,-3.18,-3.18,-3.18,-3.18,-3.18,-3.18,-3.18,-3.18,-3.1651,-3.1513,-3.163,-3.1609,-3.1514,-3.1357,-3.1435,-3.1641,-3.2033,0.0,0.0,0.0,0.0,0.0,0.0,0.0,0.0,0.0,0.0,0.0,0.0,0.0,0.0,0.0,0.0,0.0,0.0,0.0,0.0,0.0,-2.7643,0.0,0.0,0.0,-2.8414,-2.8803,-2.8525,-2.8411,-2.8411,-2.8411,-2.8411,-2.8411,-2.8411,-2.8411,-2.8411,-2.8411,-2.9058,-3.0125,-3.092,-3.1705,-3.2398,-3.237,-3.237,-3.2315,0.0,0.0,0.0,0.0,0.0,0.0,0.0,-3.6556,0.0,-3.6222,-3.7038,-3.733,-3.6452,-3.6738,-3.6702,-3.5986,-3.5782,-3.5521,-3.5142,-3.5423,-3.543,-3.5064,-3.5397,0.0,-3.56,-3.56,-3.56,-3.56,0.0,0.0,0.0,0.0,0.0,0.0,0.0,-3.5047,0.0,0.0,0.0,-3.3931,-3.3558,-3.2949,-3.231,-3.2368,-3.1936,-3.1315,-3.1411,-3.154,-3.1651,-3.1763,-3.18,-3.18,-3.18,-3.18,-3.18,-3.18,-3.18,-3.18,-3.18,-3.18,-3.18,-3.18,-3.1651,-3.1498,-3.1498,-3.1421,-3.1344,-3.1346,-3.1363,-3.1584,-3.2312,-3.284,0.0,0.0,0.0,0.0,0.0,0.0,0.0,0.0,0.0,0.0,0.0,0.0,0.0,0.0,0.0,0.0,0.0,0.0,0.0,0.0,0.0,0.0,0.0,0.0,0.0,-2.8438,-2.8332,-2.8299,-2.8299,-2.8372,-2.8411,-2.8411,-2.8411,-2.8411,-2.8427,-2.8781,-2.9494,-3.0463,-3.1136,-3.1797,-3.2398,-3.2398,-3.2342,-3.2274,0.0,-3.6084,0.0,0.0,-3.6771,0.0,-3.651,-3.7489,-3.8,-3.7134,-3.7637,-3.7647,-3.6608,-3.6428,-3.5985,-3.4907,-3.5189,-3.5057,-3.4214,-3.5031,-3.5162,-3.4286,-3.4979,-3.5363,-3.5363,-3.5515,-3.56,0.0,0.0,0.0,0.0,0.0,0.0,0.0,0.0,0.0,0.0,0.0,-3.4201,-3.4675,-3.41,-3.3423,-3.275,-3.2598,-3.2113,-3.1497,-3.1363,-3.137,-3.1481,-3.167,-3.1744,-3.1746,-3.1746,-3.1781,-3.18,-3.18,-3.18,-3.18,-3.18,-3.18,-3.18,-3.18,-3.167,-3.1557,-3.1557,-3.1443,-3.1366,-3.1479,-3.146,-3.1662,-3.2395,-3.271,0.0,0.0,0.0,0.0,0.0,0.0,0.0,0.0,0.0,0.0,0.0,0.0,0.0,0.0,0.0,0.0,0.0,0.0,0.0,0.0,0.0,-2.8097,-2.8311,0.0,-2.7999,-2.8113,-2.8284,-2.8293,-2.821,-2.8348,-2.8411,-2.8411,-2.8411,-2.8488,-2.8673,-2.9325,-3.0002,-3.0663,-3.1351,-3.1921,-3.2398,-3.2398,-3.2342,-3.2262,0.0,0.0,0.0,0.0,0.0,0.0,-3.8089,-3.8198,-3.8033,-3.7294,-3.7239,-3.7257,-3.7119,-3.6482,-3.5996,-3.5875,-3.6223,-3.5936,-3.4709,-3.5066,-3.4782,-3.3563,-3.4201,-3.459,-3.459,-3.5267,-3.56,0.0,0.0,0.0,0.0,0.0,0.0,0.0,0.0,0.0,0.0,-3.5182,-3.543,-3.5481,-3.5414,-3.4962,-3.4218,-3.3541,-3.2831,-3.2127,-3.1531,-3.1315,-3.1351,-3.1481,-3.1576,-3.1617,-3.1617,-3.1709,-3.18,-3.18,-3.18,-3.18,-3.18,-3.18,-3.18,-3.18,-3.1781,-3.1763,-3.1763,-3.1763,-3.1688,-3.1536,-3.1346,-3.1447,-3.2192,-3.1816,-3.161,0.0,0.0,0.0,0.0,0.0,0.0,0.0,0.0,0.0,0.0,-3.3414,0.0,0.0,0.0,0.0,0.0,0.0,0.0,-2.936,0.0,-2.9474,-2.9966,-2.8941,-2.8455,-2.8455,-2.8716,-2.8614,-2.821,-2.8348,-2.8411,-2.8411,-2.8411,-2.8725,-2.9356,-3.0017,-3.0705,-3.1366,-3.2028,-3.2336,-3.2398,-3.2398,-3.2398,-3.2435,0.0,0.0,0.0,0.0,0.0,0.0,0.0,-3.8172,-3.8188,-3.7524,-3.7775,-3.7773,-3.7252,-3.6988,-3.6419,-3.5356,-3.6083,-3.5999,-3.456,-3.4983,-3.4884,-3.3922,-3.3849,-3.4049,-3.4472,-3.4793,-3.5165,0.0,0.0,0.0,0.0,0.0,0.0,0.0,0.0,-3.503,-3.5165,-3.5013,-3.5199,-3.56,-3.56,-3.5165,-3.4421,-3.3677,-3.2933,-3.2209,-3.1503,-3.1232,-3.1252,-3.1308,-3.1423,-3.1557,-3.1596,-3.1635,-3.169,-3.1781,-3.18,-3.18,-3.18,-3.18,-3.18,-3.18,-3.18,-3.18,-3.18,-3.18,-3.1781,-3.1688,-3.1519,-3.1506,-3.1912,-3.1924,-3.1836,0.0,0.0,0.0,0.0,0.0,0.0,0.0,0.0,0.0,0.0,0.0,0.0,0.0,0.0,0.0,0.0,0.0,0.0,-2.9901,0.0,-2.901,-2.9524,-2.8482,-2.8116,-2.8376,-2.8286,-2.8171,-2.8079,-2.8128,-2.8201,-2.8275,-2.8372,-2.8781,-2.9433,-3.0125,-3.0812,-3.1486,-3.2136,-3.2398,-3.2398,-3.2398,-3.2604,-3.289,-3.8656,0.0,-3.8661,0.0,-3.8572,-3.8389,-3.7948,-3.8239,-3.8447,-3.8309,-3.8609,-3.8426,-3.7402,-3.7153,-3.6582,-3.5352,-3.6238,-3.6138,-3.4438,-3.4995,-3.4878,-3.3749,-3.3561,0.0,-3.4065,-3.4265,-3.4674,-3.5284,-3.5284,0.0,0.0,0.0,0.0,0.0,-3.4962,-3.4996,-3.5267,-3.4962,-3.5131,-3.56,-3.56,-3.5301,-3.4726,-3.3761,-3.3068,-3.2513,-3.1529,-3.119,-3.119,-3.119,-3.1288,-3.1423,-3.1485,-3.1542,-3.1596,-3.1709,-3.1727,-3.1746,-3.18,-3.18,-3.18,-3.18,-3.18,-3.18,-3.18,-3.18,-3.18,-3.18,-3.1632,-3.1574,-3.1763,-3.1944,-3.1936,-3.1564,0.0,0.0,0.0,0.0,0.0,0.0,-3.2363,-3.2531,-3.2388,0.0,0.0,0.0,0.0,0.0,0.0,0.0,0.0,0.0,0.0,0.0,0.0,-2.87,-2.8255,-2.8288,-2.8262,-2.8137,-2.793,-2.8029,-2.8113,-2.8226,-2.8563,-2.9064,-2.974,-3.0428,-3.1089,-3.1747,-3.2213,-3.2398,-3.2398,-3.2398,-3.2773,-3.3244,-3.9101,-3.9101,-3.9045,-3.8921,-3.8892,-3.8862,-3.8788,-3.8618,-3.8834,-3.9758,-3.9703,-3.9049,-3.7661,-3.678,-3.6303,-3.6285,-3.7019,-3.6614,-3.453,-3.5146,-3.4684,0.0,0.0,-3.3406,-3.3038,-3.3725,-3.4243,-3.4506,0.0,0.0,-3.4506,0.0,-3.4506,-3.4539,-3.5261,-3.5199,-3.4556,-3.5278,-3.5583,-3.56,-3.56,-3.5583,-3.543,-3.3964,-3.3406,-3.3203,-3.1732,-3.119,-3.119,-3.119,-3.119,-3.121,-3.1293,-3.1406,-3.15,-3.1578,-3.1598,-3.1635,-3.1764,-3.18,-3.18,-3.18,-3.18,-3.18,-3.18,-3.18,-3.18,-3.18,-3.1632,-3.1574,-3.1763,-3.1649,-3.1515,-3.1498,0.0,0.0,0.0,0.0,0.0,0.0,-3.261,-3.2591,-3.2591,0.0,0.0,0.0,0.0,0.0,0.0,0.0,0.0,-3.0901,-3.0878,0.0,-3.0885,-3.0127,-2.9287,-2.8328,-2.8974,-2.8756,-2.7815,-2.8088,-2.821,-2.8241,-2.9029,-2.9756,-3.0432,-3.1105,-3.1767,-3.2382,-3.2398,-3.2398,-3.2398,-3.2398,-3.2813,-3.3433,-3.9101,-3.9059,-3.9021,-3.8983,-3.8921,-3.9076,-3.966,-3.9659,-3.9878,-4.0678,-4.0691,-4.041,-3.9814,-3.9524,-3.8953,0.0,-3.8541,-3.8052,0.0,-3.5628,-3.5063,-3.386,-3.3198,-3.3035,-3.3389,-3.3634,-3.4279,-3.5377,0.0,0.0,0.0,-3.5404,-3.5245,-3.5267,-3.5498,-3.5464,-3.5261,-3.5498,-3.56,-3.56,-3.56,-3.56,-3.5481,-3.4523,-3.3846,-3.3271,-3.231,-3.1633,-3.119,-3.119,-3.119,-3.121,-3.123,-3.1291,-3.1387,-3.15,-3.1559,-3.1598,-3.1635,-3.1727,-3.18,-3.18,-3.18,-3.18,-3.18,-3.18,-3.18,-3.18,-3.1632,-3.1574,-3.1763,-3.1649,-3.1555,-3.167,-3.1763,0.0,0.0,0.0,0.0,0.0,-3.1935,-3.1839,0.0,-3.1588,0.0,0.0,0.0,0.0,0.0,0.0,0.0,0.0,-3.0587,0.0,-3.0624,-2.9752,-2.9325,-2.9332,-2.9212,-2.8997,-2.8693,-2.8967,-2.9077,-2.9141,-2.9831,-3.0451,-3.1025,-3.1964,-3.2582,-3.2949,-3.2949,-3.2949,-3.2958,-3.2934,-3.3378,-3.3993,-3.9991,-3.9703,-3.9548,-3.9882,-3.9678,-3.9737,-4.0548,-4.0599,-4.0815,-4.1583,-4.155,-4.1511,-4.1683,-4.1631,0.0,-3.9489,-3.9559,-3.8967,-3.7234,-3.6322,-3.5487,-3.4658,-3.3566,-3.3118,-3.3424,-3.3442,0.0,-3.4957,-3.552,-3.6052,-3.6533,-3.6224,-3.6006,-3.5849,-3.5849,-3.5778,-3.56,-3.56,-3.56,-3.56,-3.56,-3.56,-3.5515,-3.4776,-3.4201,-3.3728,-3.2966,-3.2242,-3.1596,-3.1596,-3.143,-3.119,-3.119,-3.1232,-3.1274,-3.1387,-3.1447,-3.1504,-3.1559,-3.1634,-3.1727,-3.1727,-3.1746,-3.18,-3.18,-3.18,-3.18,-3.18,-3.1688,-3.1651,-3.1781,-3.1688,-3.1651,-3.1781,-3.18,-3.18,-3.18,0.0,0.0,0.0,0.0,0.0,0.0,-3.1636,-3.1523,0.0,0.0,0.0,0.0,0.0,0.0,-3.1184,-3.0466,0.0,-3.0506,-2.9919,-2.9683,-2.9793,-2.9325,-2.9097,-2.9113,-2.9605,-2.9832,-2.9883,-3.0887,-3.1496,-3.1836,-3.2768,-3.3237,-3.3371,-3.3188,-3.3239,-3.3415,-3.326,-3.3751,-3.4531,-4.14,-4.0807,0.0,0.0,-4.0919,0.0,-4.1471,-4.145,-4.168,-4.2477,-4.2307,-4.2393,-4.3123,-4.3031,-4.2395,-4.1047,0.0,0.0,0.0,-3.7161,-3.5958,-3.5041,-3.4215,-3.362,-3.3258,-3.3243,-3.3391,-3.3684,-3.5135,-3.6189,-3.6869,-3.6884,-3.6678,-3.6301,-3.6301,-3.6045,-3.56,-3.56,-3.56,-3.56,-3.56,-3.56,-3.5515,-3.4844,-3.4539,-3.4404,-3.3728,-3.3,-3.2361,-3.2327,-3.1853,-3.1258,-3.1207,-3.119,-3.121,-3.1274,-3.1295,-3.1332,-3.1443,-3.1557,-3.1579,-3.1598,-3.1709,-3.18,-3.18,-3.18,-3.18,-3.18,-3.18,-3.18,-3.18,-3.18,-3.18,-3.18,-3.18,-3.18,-3.18,0.0,0.0,0.0,0.0,0.0,0.0,-3.2148,-3.1715,0.0,0.0,0.0,0.0,0.0,-3.1267,-3.0522,-3.0506,-3.0506,-3.0506,-3.0506,-3.0295,-2.9918,-2.9496,-2.9307,-2.9386,-3.0186,-3.0568,-3.0672,-3.2127,-3.2761,-3.2791,-3.3498,-3.3771,-3.3736,-3.3335,-3.345,-3.3808,-3.3493,-3.4043,-3.4956,0.0,0.0,-4.1089,-4.1308,-4.1213,-4.1342,-4.2139,-4.2234,-4.2498,-4.3225,-4.3269,-4.3224,-4.3196,-4.316,-4.2941,-4.2449,-4.1796,-4.0555,-3.8627,-3.7595,-3.645,-3.5045,-3.4215,-3.3748,-3.3666,-3.3666,-3.3966,-3.4591,-3.5712,-3.6346,-3.6524,-3.6775,-3.6678,-3.6301,-3.6301,-3.6045,-3.56,-3.56,-3.56,-3.56,-3.56,-3.56,-3.5583,-3.5397,-3.4996,-3.4472,-3.4303,-3.3761,-3.3051,-3.2496,-3.2192,-3.1938,-3.1376,-3.119,-3.121,-3.123,-3.1254,-3.1315,-3.1351,-3.1426,-3.1538,-3.1596,-3.1709,-3.18,-3.18,-3.18,-3.18,-3.18,-3.18,-3.18,-3.18,-3.18,-3.18,-3.18,-3.18,-3.18,-3.18,-3.18,0.0,0.0,-3.1984,-3.1984,-3.1984,-3.1756,-3.1712,0.0,0.0,0.0,0.0,-3.1515,-3.1267,-3.0522,-3.0506,-3.0506,-3.0506,-3.0506,-3.0745,-3.1182,-3.1057,-3.1292,-3.1839,-3.2058,-3.2252,-3.2426,-3.3181,-3.3421,-3.332,-3.4342,-3.4594,-3.4349,-3.4801,-3.4758,-3.4481,-3.4932,-3.4957,-3.4813,-4.1853,-4.1862,-4.1963,-4.2283,-4.2076,-4.211,-4.2873,-4.3035,-4.3252,-4.3693,-4.3614,-4.3531,-4.348,-4.3269,-4.3123,-4.305,-4.2341,-4.1377,-4.0134,-3.8337,-3.6936,-3.6102,-3.4605,-3.3807,-3.3807,-3.3807,-3.4151,-3.491,-3.5462,-3.5903,-3.6233,-3.6754,-3.6658,-3.6095,-3.642,-3.622,-3.56,-3.56,-3.56,-3.56,-3.56,-3.56,-3.56,-3.56,-3.5346,-3.5013,-3.5013,-3.4539,-3.3846,-3.3444,-3.2869,-3.2226,-3.1836,-3.1701,-3.1701,-3.1701,-3.1484,-3.1235,-3.1235,-3.1329,-3.1445,-3.156,-3.1635,-3.1727,-3.18,-3.18,-3.18,-3.18,-3.18,-3.18,-3.18,-3.18,-3.18,-3.18,-3.2076,-3.2179,-3.1852,-3.2093,0.0,-3.1834,-3.18,-3.18,-3.18,-3.1614,-3.1592,-3.1782,-3.1662,0.0,-3.1291,-3.1354,-3.1149,-3.0506,-3.0506,-3.0506,-3.0506,-3.0837,-3.1201,-3.1598,-3.1929,-3.2315,-3.2718,-3.305,-3.3271,-3.3392,-3.402,-3.4216,-3.4159,-3.5126,-3.5372,-3.5243,-3.5807,-3.5912,-3.5769,-3.5712,-3.5796,-3.5876,-4.3586,-4.3072,-4.2855,-4.3488,-4.3078,-4.2855,-4.3507,-4.3667,-4.3769,-4.3849,-4.3667,-4.3583,-4.3753,-4.3411,-4.3178,-4.3196,-4.2523,-4.2032,-4.1905,-3.9221,-3.7546,-3.7323,-3.5164,-3.3917,-3.3807,-3.3807,-3.411,-3.4723,-3.4836,-3.5287,-3.6018,-3.6757,-3.6728,-3.6069,-3.6659,-3.6474,-3.5694,-3.5644,-3.56,-3.56,-3.56,-3.56,-3.56,-3.56,-3.56,-3.56,-3.56,-3.5199,-3.4641,-3.4523,-3.3575,-3.2479,-3.2479,-3.2395,-3.2327,-3.2429,-3.2022,-3.1512,-3.1393,-3.132,-3.1334,-3.1523,-3.1579,-3.1617,-3.1746,-3.18,-3.18,-3.18,-3.18,-3.18,-3.18,-3.18,-3.1834,-3.1955,-3.2403,-3.2559,-3.2041,0.0,-3.2507,-3.1869,-3.18,-3.18,-3.18,-3.1614,-3.144,-3.1249,-3.121,-3.1182,-3.1103,-3.1139,-3.1056,-3.0904,-3.0684,-3.0597,-3.0671,-3.1399,-3.1813,-3.1929,-3.2564,-3.2934,-3.305,-3.3696,-3.3955,-3.4005,-3.475,-3.5065,-3.5114,-3.586,-3.6174,-3.6216,-3.6587,-3.6944,-3.712,-3.6366,-3.6658,-3.7251,-4.2621,-4.3013,-4.3367,-4.3513,-4.3422,-4.3367,-4.3513,-4.3532,-4.3566,-4.3632,-4.3599,-4.3599,-4.3614,-4.3563,-4.3444,-4.3214,-4.3087,-4.2686,-4.1941,-4.0229,-3.8654,-3.736,-3.5695,-3.4491,-3.3807,-3.3807,-3.3862,-3.3977,-3.459,-3.5287,-3.6018,-3.6757,-3.7154,-3.7218,-3.6985,-3.6638,-3.6174,-3.5778,-3.56,-3.56,-3.56,-3.56,-3.56,-3.56,-3.56,-3.56,-3.56,-3.5515,-3.5329,-3.4709,-3.3931,-3.3237,-3.3237,-3.2797,-3.2429,-3.3051,-3.3152,-3.2916,-3.231,-3.171,-3.1315,-3.1334,-3.1468,-3.1598,-3.1617,-3.1727,-3.18,-3.18,-3.18,-3.18,-3.18,-3.18,-3.199,-3.2628,-3.23,-3.2145,-3.2662,0.0,-3.1921,-3.18,-3.18,-3.18,-3.18,-3.1614,-3.1498,-3.146,-3.1305,-3.1461,-3.205,-3.1369,-3.1482,-3.2658,-3.1504,-3.1029,-3.1432,-3.2166,-3.2829,-3.3458,-3.3557,-3.3955,-3.4551,-3.4667,-3.4717,-3.4767,-3.5512,-3.5827,-3.5893,-3.6638,-3.6936,-3.6994,-3.7671,-3.7642,-3.7268,-3.7738,-3.7684,-3.731,-4.3065,-4.3326,-4.3531,-4.3515,-4.3515,-4.3515,-4.3515,-4.3515,-4.3513,-4.3582,-4.3565,-4.36,-4.3701,-4.3615,-4.3495,-4.3426,-4.3375,-4.314,-4.2632,-4.1085,-3.9501,-3.7958,-3.6427,-3.5036,-3.3825,-3.4188,-3.4206,-3.3807,-3.4932,-3.5458,-3.5422,-3.6573,-3.7023,-3.6916,-3.7144,-3.688,-3.628,-3.6067,-3.5827,-3.56,-3.56,-3.56,-3.56,-3.56,-3.56,-3.56,-3.56,-3.56,-3.5549,-3.5216,-3.4607,-3.3981,-3.3981,-3.3744,-3.3563,-3.388,-3.3423,-3.2814,-3.2882,-3.2093,-3.1373,-3.182,-3.1732,-3.1559,-3.1579,-3.1709,-3.18,-3.18,-3.18,-3.18,-3.18,-3.18,-3.1903,-3.2248,-3.2352,0.0,0.0,-3.2352,-3.2248,-3.1852,-3.18,-3.1955,-3.2352,-3.2309,-3.2385,-3.2696,-3.275,-3.2866,-3.3104,-3.2801,-3.2897,-3.3469,-3.2437,-3.196,-3.2199,-3.2911,-3.3458,-3.3789,-3.4203,-3.4568,-3.4916,-3.5313,-3.5495,-3.5528,-3.6274,-3.6605,-3.6655,-3.74,-3.7673,-3.7781,-3.8493,-3.8599,-3.833,-3.8321,-3.8351,-3.8282,-4.36,-4.3565,-4.3548,-4.3515,-4.3515,-4.3515,-4.3515,-4.3515,-4.3513,-4.3565,-4.3531,-4.3566,-4.3736,-4.3617,-4.3548,-4.3597,-4.3546,-4.3444,-4.3268,-4.2013,-4.043,-3.8494,-3.6565,-3.5021,-3.3825,-3.4531,-3.4549,-3.3807,-3.5287,-3.5702,-3.5192,-3.6513,-3.7015,-3.6858,-3.7345,-3.7227,-3.6615,-3.6512,-3.6199,-3.5761,-3.5761,-3.5711,-3.56,-3.56,-3.56,-3.56,-3.56,-3.56,-3.56,-3.56,-3.5115,-3.4523,-3.4692,-3.4641,-3.4523,-3.4709,-3.3812,-3.2903,-3.3288,-3.2577,-3.187,-3.2544,-3.2355,-3.1991,-3.2053,-3.2166,-3.219,-3.2056,-3.2021,-3.1988,-3.1834,-3.18,-3.1852,-3.2024,0.0,0.0,0.0,-3.2403,-3.2507,-3.2093,-3.2059,-3.2352,-3.311,-3.3179,-3.338,-3.3822,-3.4014,-3.4103,-3.413,-3.406,-3.402,-3.3949,-3.3381,-3.3012,-3.2967,-3.3673,-3.4101,-3.4163,-3.4823,-3.5171,-3.5276,-3.595,-3.6257,-3.6307,-3.7052,-3.7367,-3.7417,-3.8162,-3.846,-3.851,-3.9083,-3.9299,-3.9245,-3.8717,-3.8871,-3.9148,-4.3515,-4.3515,-4.3515,-4.3515,-4.3515,-4.3515,-4.3515,-4.3515,-4.3496,-4.3515,-4.3496,-4.3532,-4.3599,-4.3599,-4.3599,-4.3614,-4.3597,-4.3563,-4.3479,-4.3195,-4.1629,-3.8549,-3.556,-3.3922,-3.3807,-3.4531,-3.4549,-3.3807,-3.5287,-3.5964,-3.5942,-3.6799,-3.7553,-3.8148,-3.7877,-3.7721,-3.7559,-3.7133,-3.6681,-3.6259,-3.6259,-3.598,-3.56,-3.56,-3.56,-3.56,-3.56,-3.56,-3.56,-3.56,-3.5115,-3.4624,-3.5295,-3.5064,-3.4624,-3.5312,-3.4962,-3.4201,-3.3575,-3.3322,-3.3254,-3.3322,-3.3371,-3.3458,-3.3441,-3.3506,-3.3402,-3.2853,-3.2735,-3.2531,-3.1902,-3.18,-3.2024,-3.2714,0.0,0.0,-3.2731,-3.2283,-3.211,-3.2748,-3.2817,-3.3128,-3.3921,-3.4007,-3.4024,-3.4056,-3.4093,-3.4387,-3.5056,-3.4291,-3.4017,-3.4447,-3.4202,-3.3974,-3.3729,-3.4435,-3.4934,-3.5201,-3.5699,-3.6048,-3.6315,-3.6788,-3.7036,-3.7069,-3.7814,-3.8103,-3.8195,-3.8907,-3.9232,-3.9232,-3.9282,-3.9299,-3.9299,-3.9228,-3.9272,-3.9218,-4.3814,-4.3649,-4.3515,-4.3515,-4.3515,-4.3515,-4.3515,-4.3515,-4.3515,-4.3515,-4.3515,-4.3515,-4.3549,-4.3565,-4.3599,-4.3615,-4.3716,-4.3699,-4.3496,-4.2985,-4.1618,-3.9193,-3.5652,-3.3977,-3.4458,-3.4759,-3.4759,-3.4476,-3.596,-3.6682,-3.67,-3.7519,-3.8031,-3.829,-3.8171,-3.7966,-3.7739,-3.7433,-3.7095,-3.6741,-3.6681,-3.643,-3.6045,-3.6045,-3.5849,-3.56,-3.56,-3.56,-3.56,-3.56,-3.5397,-3.5228,-3.5498,-3.5397,-3.525,-3.5515,-3.5397,-3.5131,-3.4839,-3.4117,-3.3508,-3.3964,-3.3829,-3.359,-3.359,-3.3656,-3.3618,-3.3402,-3.3371,-3.3325,-3.3132,-3.31,-3.3223,-3.3593,0.0,-3.3317,-3.3593,-3.3386,-3.3317,-3.3593,-3.3628,-3.3938,-3.4717,-3.4766,-3.4956,-3.5421,-3.5456,-3.5576,-3.587,-3.5549,-3.5364,-3.5423,-3.5353,-3.5199,-3.493,-3.5176,-3.5555,-3.5994,-3.6143,-3.6454,-3.687,-3.7653,-3.7935,-3.7831,-3.8726,-3.9042,-3.8917,-3.9368,-3.9458,-3.9325,-3.9468,-3.9458,-3.9299,-3.9299,-3.9299,-3.9272,-4.3862,-4.3649,-4.3515,-4.3515,-4.3515,-4.3515,-4.3515,-4.3515,-4.3515,-4.3515,-4.3515,-4.3515,-4.3515,-4.3531,-4.3565,-4.3599,-4.3734,-4.3751,-4.36,-4.2126,-4.0524,-3.8847,-3.5987,-3.4485,-3.4526,-3.5232,-3.5345,-3.491,-3.6609,-3.7328,-3.7108,-3.7925,-3.8323,-3.8338,-3.8338,-3.8203,-3.7982,-3.7809,-3.7523,-3.7135,-3.7113,-3.6841,-3.6492,-3.6492,-3.6305,-3.6006,-3.5871,-3.5805,-3.5783,-3.5644,-3.56,-3.56,-3.56,-3.56,-3.56,-3.56,-3.56,-3.56,-3.56,-3.4856,-3.4218,-3.4726,-3.4537,-3.4224,-3.4224,-3.427,-3.4248,-3.4048,-3.4017,-3.397,-3.3853,-3.3842,-3.388,-3.396,-3.4017,-3.4037,-3.4037,-3.4056,-3.4199,-3.4424,-3.4458,-3.4731,-3.5473,-3.5542,-3.5749,-3.6266,-3.6301,-3.6301,-3.6301,-3.6301,-3.6237,-3.6105,-3.6088,-3.6139,-3.6202,-3.6045,-3.6202,-3.6616,-3.7033,-3.7424,-3.7811,-3.869,-3.8966,-3.8846,-3.9537,-3.9729,-3.959,-3.9755,-3.9729,-3.9573,-3.9755,-3.9703,-3.9547,-3.9458,-3.9432,-3.9405,-4.3565,-4.3515,-4.3496,-4.3496,-4.3496,-4.3515,-4.3515,-4.3515,-4.3515,-4.3515,-4.3515,-4.3515,-4.3515,-4.3515,-4.3532,-4.3582,-4.3599,-4.3651,-4.3769,-4.0658,-3.8319,-3.7249,-3.6489,-3.5345,-3.3753,-3.593,-3.6385,-3.4928,-3.7126,-3.7807,-3.7126,-3.7925,-3.8338,-3.8399,-3.8399,-3.8399,-3.8401,-3.8322,-3.7984,-3.7505,-3.7505,-3.7247,-3.69,-3.69,-3.69,-3.6841,-3.6451,-3.6301,-3.6237,-3.5778,-3.5622,-3.5622,-3.56,-3.56,-3.56,-3.56,-3.56,-3.56,-3.56,-3.56,-3.56,-3.56,-3.56,-3.56,-3.56,-3.56,-3.5419,-3.4839,-3.4725,-3.4491,-3.3833,-3.3721,-3.3721,-3.3721,-3.3819,-3.3917,-3.3917,-3.4034,-3.4407,-3.5111,-3.5197,-3.549,-3.6232,-3.6301,-3.6301,-3.6301,-3.6301,-3.6301,-3.6301,-3.6301,-3.6301,-3.6301,-3.6301,-3.6697,-3.7512,-3.7047,-3.6916,-3.7125,-3.8404,-3.9117,-3.9317,-3.9857,-4.0096,-4.0096,-4.0096,-4.0096,-4.0096,-4.0096,-4.0096,-4.0096,-4.0096,-4.0096,-4.0087,-3.9807,-3.9703,-3.9677,-4.4419,-4.4117,-4.3862,-4.3862,-4.3649,-4.3515,-4.3515,-4.3515,-4.3515,-4.3515,-4.3515,-4.3515,-4.3515,-4.3515,-4.3515,-4.3532,-4.3565,-4.3153,-4.2105,-4.0059,-3.8453,-3.7511,-3.6199,-3.5716,-3.6208,-3.6387,-3.6471,-3.6425,-3.7108,-3.7586,-3.788,-3.8165,-3.8323,-3.8322,-3.8322,-3.837,-3.8382,-3.829,-3.8156,-3.807,-3.8002,-3.7721,-3.7321,-3.7321,-3.7151,-3.688,-3.6761,-3.6719,-3.6698,-3.656,-3.6498,-3.6457,-3.6178,-3.5871,-3.56,-3.56,-3.56,-3.56,-3.56,-3.56,-3.56,-3.56,-3.56,-3.56,-3.56,-3.56,-3.5554,-3.5374,-3.5323,-3.5299,-3.5188,-3.518,-3.5202,-3.5309,-3.5415,-3.5517,-3.5517,-3.5583,-3.5732,-3.5956,-3.5973,-3.6059,-3.6284,-3.6301,-3.6301,-3.6301,-3.6301,-3.6301,-3.6301,-3.6301,-3.6559,-3.7133,-3.715,-3.7512,-3.8249,-3.7617,-3.7763,-3.864,-3.903,-3.9445,-3.9857,-4.0218,-4.0288,-4.0096,-4.0296,-4.0271,-4.0121,-4.0296,-4.0271,-4.0138,-4.0313,-4.0288,-4.007,-4.0011,-3.9969,-3.9986,-4.4663,-4.4388,-4.4121,-4.402,-4.383,-4.3649,-4.3513,-4.3515,-4.3515,-4.3515,-4.3515,-4.3515,-4.3515,-4.3515,-4.3515,-4.3515,-4.3255,-4.2423,-4.0848,-3.9287,-3.8327,-3.8088,-3.6579,-3.6104,-3.689,-3.7021,-3.7092,-3.7137,-3.74,-3.7769,-3.8209,-3.8241,-3.8274,-3.8307,-3.8274,-3.8289,-3.8352,-3.8241,-3.8207,-3.8257,-3.8225,-3.8037,-3.7774,-3.7774,-3.7632,-3.7376,-3.7208,-3.7151,-3.7113,-3.6958,-3.69,-3.686,-3.6618,-3.6329,-3.6075,-3.592,-3.5871,-3.5827,-3.5644,-3.56,-3.56,-3.56,-3.56,-3.56,-3.56,-3.56,-3.56,-3.56,-3.56,-3.5622,-3.5706,-3.5728,-3.5751,-3.5822,-3.5949,-3.6036,-3.6036,-3.6187,-3.6255,-3.6255,-3.628,-3.6301,-3.6301,-3.6301,-3.6301,-3.6301,-3.6301,-3.6301,-3.6301,-3.6594,-3.6991,-3.7478,-3.7789,-3.8306,-3.9026,-3.8577,-3.8734,-3.9465,-3.9798,-4.0096,-4.0436,-4.0583,-4.0583,-4.0436,-4.0583,-4.0583,-4.0419,-4.0583,-4.0558,-4.0419,-4.059,-4.0558,-4.0395,-4.0296,-4.0246,-4.0246,-4.4519,-4.4471,-4.436,-4.4106,-4.4017,-4.3894,-4.3582,-4.3513,-4.3515,-4.3515,-4.3515,-4.3515,-4.3515,-4.3515,-4.3478,-4.3387,-4.2598,-4.1477,-4.0008,-3.8527,-3.8032,-3.8785,-3.7447,-3.6625,-3.6519,-3.7762,-3.8052,-3.7309,-3.7894,-3.8209,-3.8209,-3.8209,-3.8224,-3.829,-3.8242,-3.8224,-3.829,-3.8242,-3.8209,-3.8209,-3.8209,-3.8209,-3.8209,-3.8209,-3.8209,-3.814,-3.7721,-3.756,-3.7505,-3.7132,-3.6978,-3.6958,-3.6958,-3.6919,-3.6821,-3.6471,-3.6346,-3.6259,-3.5827,-3.5717,-3.5717,-3.5717,-3.5717,-3.5694,-3.5622,-3.56,-3.56,-3.56,-3.56,-3.56,-3.56,-3.56,-3.56,-3.56,-3.5711,-3.5795,-3.5795,-3.6014,-3.6182,-3.6182,-3.6255,-3.628,-3.628,-3.6301,-3.6301,-3.6301,-3.637,-3.6404,-3.6404,-3.7146,-3.7633,-3.7702,-3.8358,-3.906,-3.9802,-3.9802,-3.9802,-3.9819,-4.0549,-4.0912,-4.0912,-4.0912,-4.0912,-4.0912,-4.0912,-4.0912,-4.0912,-4.0912,-4.0912,-4.0912,-4.0912,-4.0912,-4.0871,-4.0631,-4.0534,-4.051,-4.5129,-4.4898,-4.4688,-4.4637,-4.4279,-4.3974,-4.391,-4.3666,-4.3515,-4.3515,-4.3515,-4.3515,-4.3515,-4.3515,-4.324,-4.2616,-4.1289,-4.0362,-3.9994,-3.8556,-3.8046,-3.8826,-3.7968,-3.7718,-3.8243,-3.8407,-3.8342,-3.8051,-3.815,-3.8209,-3.8209,-3.8209,-3.8209,-3.8225,-3.8209,-3.8209,-3.8225,-3.8209,-3.8209,-3.8209,-3.8209,-3.8209,-3.8209,-3.8209,-3.8209,-3.8192,-3.8071,-3.8054,-3.8037,-3.7951,-3.7667,-3.7377,-3.7377,-3.7133,-3.688,-3.6799,-3.6761,-3.6741,-3.6641,-3.662,-3.662,-3.662,-3.662,-3.6437,-3.5761,-3.56,-3.56,-3.56,-3.56,-3.56,-3.56,-3.56,-3.56,-3.56,-3.5711,-3.5795,-3.5795,-3.5949,-3.6041,-3.6041,-3.6144,-3.6229,-3.6229,-3.6276,-3.6301,-3.6301,-3.687,-3.7254,-3.7254,-3.7961,-3.8634,-3.9198,-3.937,-3.9836,-4.0636,-4.0653,-4.0653,-4.0653,-4.0825,-4.0912,-4.0912,-4.0912,-4.0912,-4.0912,-4.0912,-4.0912,-4.0912,-4.0912,-4.0912,-4.0912,-4.0912,-4.0912,-4.0894,-4.0823,-4.0799,-4.0776,-4.5307,-4.5162,-4.5,-4.4831,-4.4578,-4.4294,-4.4033,-4.3862,-4.3682,-4.3513,-4.3515,-4.3515,-4.3515,-4.3149,-4.2451,-4.1258,-4.0409,-3.9798,-3.9412,-3.8309,-3.8007,-3.8773,-3.8062,-3.8011,-3.8747,-3.859,-3.8462,-3.8403,-3.8307,-3.8259,-3.8259,-3.8225,-3.8209,-3.8209,-3.8209,-3.8209,-3.8209,-3.8209,-3.8209,-3.8209,-3.8209,-3.8209,-3.8209,-3.8209,-3.8209,-3.8209,-3.8209,-3.8209,-3.8209,-3.8209,-3.8037,-3.7845,-3.7845,-3.7685,-3.7486,-3.7246,-3.7189,-3.7133,-3.6958,-3.69,-3.69,-3.69,-3.69,-3.6721,-3.6071,-3.5937,-3.5871,-3.5644,-3.56,-3.56,-3.56,-3.56,-3.56,-3.56,-3.5667,-3.5689,-3.5689,-3.5839,-3.5888,-3.5888,-3.6014,-3.626,-3.6685,-3.6762,-3.6965,-3.737,-3.7784,-3.8008,-3.8008,-3.8715,-3.9301,-3.9681,-4.006,-4.0457,-4.0912,-4.0912,-4.0912,-4.0912,-4.0912,-4.0912,-4.0912,-4.0912,-4.0912,-4.0912,-4.0912,-4.0912,-4.0912,-4.0912,-4.0912,-4.0912,-4.0912,-4.0912,-4.0912,-4.0912,-4.0912,-4.0888,-4.5307,-4.5307,-4.5205,-4.4934,-4.4843,-4.465,-4.4192,-4.4109,-4.3955,-4.3632,-4.3582,-4.351,-4.3331,-4.2451,-4.135,-4.0026,-3.9772,-3.9405,-3.8744,-3.8125,-3.8066,-3.867,-3.8107,-3.8085,-3.8689,-3.859,-3.8525,-3.851,-3.8368,-3.8323,-3.8323,-3.8241,-3.8225,-3.8225,-3.8209,-3.8209,-3.8209,-3.8209,-3.8209,-3.8209,-3.8209,-3.8209,-3.8209,-3.8209,-3.8209,-3.8209,-3.8209,-3.8209,-3.8209,-3.8209,-3.8209,-3.8209,-3.8209,-3.8209,-3.8123,-3.7739,-3.7614,-3.7559,-3.7208,-3.7113,-3.7113,-3.7113,-3.7113,-3.6997,-3.6597,-3.6451,-3.6262,-3.5805,-3.5734,-3.5711,-3.5622,-3.56,-3.56,-3.56,-3.56,-3.56,-3.56,-3.5706,-3.5773,-3.5773,-3.5985,-3.6515,-3.7379,-3.747,-3.7789,-3.8498,-3.8698,-3.8784,-3.8784,-3.9491,-3.9905,-3.9905,-4.0567,-4.0912,-4.0912,-4.0912,-4.0912,-4.0912,-4.0912,-4.0912,-4.0912,-4.0912,-4.0912,-4.0912,-4.0912,-4.0912,-4.0912,-4.0912,-4.0912,-4.0912,-4.0912,-4.0912,-4.0912,-4.0912,-4.0912,-4.0912,-4.5307,-4.5307,-4.5297,-4.5246,-4.4981,-4.4776,-4.4701,-4.4493,-4.425,-4.3971,-4.3942,-4.3571,-4.2558,-4.1111,-4.0139,-3.9918,-3.9258,-3.8817,-3.8707,-3.8597,-3.8612,-3.8707,-3.8597,-3.8597,-3.8707,-3.8673,-3.8609,-3.851,-3.8415,-3.8401,-3.8401,-3.8322,-3.829,-3.829,-3.8242,-3.8209,-3.8209,-3.8209,-3.8209,-3.8209,-3.8209,-3.8209,-3.8209,-3.8209,-3.8209,-3.8209,-3.8209,-3.8209,-3.8209,-3.8209,-3.8209,-3.8209,-3.8209,-3.8209,-3.8192,-3.8123,-3.8106,-3.8088,-3.8037,-3.802,-3.802,-3.802,-3.802,-3.7898,-3.7432,-3.7075,-3.6701,-3.6284,-3.6216,-3.6088,-3.5672,-3.56,-3.56,-3.56,-3.56,-3.56,-3.56,-3.5622,-3.5622,-3.5622,-3.6294,-3.7126,-3.7991,-3.8191,-3.8311,-3.8414,-3.913,-3.9543,-3.9543,-4.0325,-4.0739,-4.0739,-4.0843,-4.0912,-4.0912,-4.0912,-4.0912,-4.0912,-4.0912,-4.0912,-4.0912,-4.0912,-4.0912,-4.0912,-4.0912,-4.0912,-4.0912,-4.0912,-4.0912,-4.0912,-4.0912,-4.0912,-4.0912,-4.0912,-4.0912,-4.0912,-4.5307,-4.5307,-4.5307,-4.5307,-4.5173,-4.5023,-4.4831,-4.4701,-4.4519,-4.4265,-4.3795,-4.3249,-4.2591,-4.0946,-3.9717,-3.9276,-3.8909,-3.8707,-3.8707,-3.8707,-3.8707,-3.8707,-3.8707,-3.8707,-3.8707,-3.8707,-3.8673,-3.8609,-3.8512,-3.8462,-3.8462,-3.8385,-3.8338,-3.8307,-3.8274,-3.8242,-3.8209,-3.8209,-3.8209,-3.8209,-3.8209,-3.8209,-3.8209,-3.8209,-3.8209,-3.8209,-3.8209,-3.8209,-3.8209,-3.8209,-3.8209,-3.8209,-3.8209,-3.8209,-3.8209,-3.8209,-3.8209,-3.8209,-3.8209,-3.8209,-3.8209,-3.8209,-3.8209,-3.814,-3.7933,-3.7757,-3.7449,-3.6779,-3.6638,-3.6495,-3.6088,-3.6002,-3.5915,-3.5644,-3.56,-3.5752,-3.6214,-3.6265,-3.6417,-3.6857,-3.7225,-3.7804,-3.8653,-3.8809,-3.905,-3.9532,-3.9928,-4.0188,-4.0236,-4.0603,-4.0817,-4.0912,-4.0912,-4.0912,-4.0912,-4.0912,-4.0912,-4.0912,-4.0912,-4.0912,-4.0912,-4.0912,-4.0912,-4.0912,-4.0912,-4.0912,-4.0912,-4.0912,-4.0912,-4.0912,-4.0912,-4.0912,-4.0912,-4.0912,-4.0912,-4.0912]},{"header":{"parameterUnit":"m.s-1","parameterCategory":1,"la1":30.6,"la2":28.766,"lo1":-90.7593,"lo2":-88.6598,"dy":0.0162,"dx":0.0183,"nx":116,"ny":114,"refTime":"2023-07-04T06:00:00:Z","depth":0,"parameterNumber":3,"parameterNumberName":"V-component_of_WINDS"},"data":[0.0,0.0,0.0,0.0,0.0,0.0,0.0,0.0,0.0,0.0,0.0,0.0,0.0,0.0,0.0,0.0,0.0,0.0,0.0,0.0,0.0,0.0,0.0,0.0,0.0,0.0,0.0,0.0,0.0,0.0,0.0,0.0,0.0,0.0,0.0,0.0,0.0,0.0,0.0,0.0,0.0,0.0,0.0,0.0,0.0,0.0,0.0,0.0,0.0,0.0,0.0,0.0,0.0,0.0,0.0,0.0,0.0,0.0,0.0,0.0,0.0,0.0,0.0,0.0,0.0,0.0,0.0,0.0,0.0,0.0,0.0,0.0,0.0,0.0,0.0,0.0,0.0,0.0,0.0,0.0,0.0,0.0,0.0,0.0,0.0,0.0,0.0,0.0,0.0,0.0,0.0,0.0,0.0,0.0,0.0,0.0,0.0,0.0,0.0,0.0,0.0,0.0,0.0,0.0,0.0,0.0,0.0,0.0,0.0,0.0,0.0,0.0,0.0,0.0,0.0,0.0,0.0,0.0,0.0,0.0,0.0,0.0,0.0,0.0,0.0,0.0,0.0,0.0,0.0,0.0,0.0,0.0,0.0,0.0,0.0,0.0,0.0,0.0,0.0,0.0,0.0,0.0,0.0,0.0,0.0,0.0,0.0,0.0,0.0,0.0,0.0,0.0,0.0,0.0,0.0,0.0,0.0,0.0,0.0,0.0,0.0,0.0,0.0,0.0,0.0,0.0,0.0,0.0,0.0,0.0,0.0,0.0,0.0,0.0,0.0,0.0,0.0,0.0,0.0,0.0,0.0,0.0,0.0,0.0,0.0,0.0,0.0,0.0,0.0,0.0,0.0,0.0,0.0,0.0,0.0,0.0,0.0,0.0,0.0,0.0,0.0,0.0,0.0,0.0,0.0,0.0,0.0,0.0,0.0,0.0,0.0,0.0,0.0,0.0,0.0,0.0,0.0,0.0,0.0,0.0,0.0,0.0,0.0,0.0,0.0,0.0,0.0,0.0,0.0,0.0,0.0,0.0,0.0,0.0,0.0,0.0,0.0,0.0,0.0,0.0,0.0,0.0,0.0,0.0,0.0,0.0,0.0,0.0,0.0,0.0,0.0,0.0,0.0,0.0,0.0,0.0,0.0,0.0,0.0,0.0,0.0,0.0,0.0,0.0,0.0,0.0,0.0,0.0,0.0,0.0,0.0,0.0,0.0,0.0,0.0,0.0,0.0,0.0,0.0,0.0,0.0,0.0,0.0,0.0,0.0,0.0,0.0,0.0,0.0,0.0,0.0,0.0,0.0,0.0,0.0,0.0,0.0,0.0,0.0,0.0,0.0,0.0,0.0,0.0,0.0,0.0,0.0,0.0,0.0,0.0,0.0,0.0,0.0,0.0,0.0,0.0,0.0,0.0,0.0,0.0,0.0,0.0,0.0,0.0,0.0,0.0,0.0,0.0,0.0,0.0,0.0,0.0,0.0,0.0,0.0,0.0,0.0,0.0,0.0,0.0,0.0,0.0,0.0,0.0,0.0,0.0,0.0,0.0,0.0,0.0,0.0,0.0,0.0,0.0,0.0,0.0,0.0,0.0,0.0,0.0,0.0,0.0,0.0,0.0,0.0,0.0,0.0,0.0,0.0,0.0,0.0,0.0,0.0,0.0,0.0,0.0,0.0,0.0,0.0,0.0,0.0,0.0,0.0,0.0,0.0,0.0,0.0,0.0,0.0,0.0,0.0,0.0,0.0,0.0,0.0,0.0,0.0,0.0,0.0,0.0,0.0,0.0,0.0,0.0,0.0,0.0,0.0,0.0,0.0,0.0,0.0,0.0,0.0,0.0,0.0,0.0,0.0,0.0,0.0,0.0,0.0,0.0,0.0,0.0,0.0,0.0,0.0,0.0,0.0,0.0,0.0,0.0,0.0,0.0,0.0,0.0,0.0,0.0,0.0,0.0,0.0,0.0,0.0,0.0,0.0,0.0,0.0,0.0,0.0,0.0,0.0,0.0,0.0,0.0,0.0,0.0,0.0,0.0,0.0,0.0,0.0,0.0,0.0,0.0,0.0,0.0,0.0,0.0,0.0,0.0,0.0,0.0,0.0,0.0,0.0,0.0,0.0,0.0,0.0,0.0,0.0,0.0,0.0,0.0,0.0,0.0,0.0,0.0,0.0,0.0,0.0,0.0,0.0,0.0,0.0,0.0,0.0,0.0,0.0,0.0,0.0,0.0,0.0,0.0,0.0,0.0,0.0,0.0,0.0,0.0,0.0,0.0,0.0,0.0,0.0,0.0,0.0,0.0,0.0,0.0,0.0,0.0,0.0,0.0,0.0,0.0,0.0,0.0,0.0,0.0,0.0,0.0,0.0,0.0,0.0,0.0,0.0,0.0,0.0,0.0,0.0,0.0,0.0,0.0,0.0,0.0,0.0,0.0,0.0,0.0,0.0,0.0,0.0,0.0,0.0,0.0,0.0,0.0,0.0,0.0,0.0,0.0,0.0,0.0,0.0,0.0,0.0,0.0,0.0,0.0,0.0,0.0,0.0,0.0,0.0,0.0,0.0,0.0,0.0,0.0,0.0,0.0,0.0,0.0,0.0,0.0,0.0,0.0,0.0,0.0,0.0,0.0,0.0,0.0,0.0,0.0,0.0,0.0,0.0,0.0,0.0,0.0,0.0,0.0,0.0,0.0,0.0,0.0,0.0,0.0,0.0,0.0,0.0,0.0,0.0,0.0,0.0,0.0,0.0,0.0,0.0,0.0,0.0,0.0,0.0,0.0,0.0,0.0,0.0,0.0,0.0,0.0,0.0,0.0,0.0,0.0,0.0,0.0,0.0,0.0,0.0,0.0,0.0,0.0,0.0,0.0,0.0,0.0,0.0,0.0,0.0,0.0,0.0,0.0,0.0,0.0,0.0,0.0,0.0,0.0,0.0,0.0,0.0,0.0,0.0,0.0,0.0,0.0,0.0,0.0,0.0,0.0,0.0,0.0,0.0,0.0,0.0,0.0,0.0,0.0,0.0,0.0,0.0,0.0,0.0,0.0,0.0,0.0,0.0,0.0,0.0,0.0,0.0,0.0,0.0,0.0,0.0,0.0,0.0,0.0,0.0,0.0,0.0,0.0,0.0,0.0,0.0,0.0,0.0,0.0,0.0,0.0,0.0,0.0,0.0,0.0,0.0,0.0,0.0,0.0,0.0,0.0,0.0,0.0,0.0,0.0,0.0,0.0,0.0,0.0,0.0,0.0,0.0,0.0,0.0,0.0,0.0,0.0,0.0,0.0,0.0,0.0,0.0,0.0,0.0,0.0,0.0,0.0,0.0,0.0,0.0,0.0,0.0,0.0,0.0,0.0,0.0,0.0,0.0,0.0,0.0,0.0,0.0,0.0,0.0,0.0,0.0,0.0,0.0,0.0,0.0,0.0,0.0,0.0,0.0,0.0,0.0,0.0,0.0,0.0,0.0,0.0,0.0,0.0,0.0,0.0,0.0,0.0,0.0,0.0,0.0,0.0,0.0,0.0,0.0,0.0,0.0,0.0,0.0,0.0,0.0,0.0,0.0,0.0,0.0,0.0,0.0,0.0,0.0,0.0,0.0,0.0,0.0,0.0,0.0,0.0,0.0,0.0,0.0,0.0,0.0,0.0,0.0,0.0,0.0,0.0,0.0,0.0,0.0,0.0,0.0,0.0,0.0,0.0,0.0,0.0,0.0,0.0,0.0,0.0,0.0,0.0,0.0,0.0,0.0,0.0,0.0,0.0,0.0,0.0,0.0,0.0,0.0,0.0,0.0,0.0,0.0,0.0,0.0,0.0,0.0,0.0,0.0,0.0,0.0,0.0,0.0,0.0,0.0,0.0,0.0,0.0,0.0,0.0,0.0,0.0,0.0,0.0,0.0,0.0,0.0,0.0,0.0,0.0,0.0,0.0,0.0,0.0,0.0,0.0,0.0,0.0,0.0,0.0,0.0,0.0,0.0,0.0,0.0,0.0,0.0,0.0,0.0,0.0,0.0,0.0,0.0,0.0,0.0,0.0,0.0,0.0,0.0,0.0,0.0,0.0,0.0,0.0,0.0,0.0,0.0,0.0,0.0,0.0,0.0,0.0,0.0,0.0,0.0,0.0,0.0,0.0,0.0,0.0,0.0,0.0,0.0,0.0,0.0,0.0,0.0,0.0,0.0,0.0,0.0,0.0,0.0,0.0,0.0,0.0,0.0,0.0,0.0,0.0,0.0,0.0,0.0,0.0,0.0,0.0,0.0,0.0,0.0,0.0,0.0,0.0,0.0,0.0,0.0,0.0,0.0,0.0,0.0,0.0,0.0,0.0,0.0,0.0,0.0,0.0,0.0,0.0,0.0,0.0,0.0,0.0,0.0,0.0,0.0,0.0,0.0,0.0,0.0,0.0,0.0,0.0,0.0,0.0,0.0,0.0,0.0,0.0,0.0,0.0,0.0,0.0,0.0,0.0,0.0,0.0,0.0,0.0,0.0,0.0,0.0,0.0,0.0,0.0,0.0,0.0,0.0,0.0,0.0,0.0,0.0,0.0,0.0,0.0,0.0,0.0,0.0,0.0,0.0,0.0,0.0,0.0,0.0,0.0,0.0,0.0,0.0,0.0,0.0,0.0,0.0,0.0,0.0,0.0,0.0,0.0,0.0,0.0,0.0,0.0,0.0,0.0,0.0,0.0,0.0,0.0,0.0,0.0,0.0,0.0,0.0,0.0,0.0,0.0,0.0,0.0,0.0,0.0,0.0,0.0,0.0,0.0,0.0,0.0,0.0,0.0,0.0,0.0,0.0,0.0,0.0,0.0,0.0,0.0,0.0,0.0,0.0,0.0,0.0,0.0,0.0,0.0,0.0,0.0,0.0,0.0,0.0,0.0,0.0,0.0,0.0,0.0,0.0,0.0,0.0,0.0,0.0,0.0,0.0,0.0,0.0,0.0,0.0,0.0,0.0,0.0,0.0,0.0,0.0,0.0,0.0,0.0,0.0,0.0,0.0,0.0,0.0,0.0,0.0,0.0,0.0,0.0,0.0,0.0,0.0,0.0,0.0,0.0,0.0,0.0,0.0,0.0,0.0,0.0,0.0,0.0,0.0,0.0,0.0,0.0,0.0,0.0,0.0,0.0,0.0,0.0,0.0,0.0,0.0,0.0,0.0,0.0,0.0,0.0,0.0,0.0,0.0,0.0,0.0,0.0,0.0,0.0,0.0,0.0,0.0,0.0,0.0,0.0,0.0,0.0,0.0,0.0,0.0,0.0,0.0,0.0,0.0,0.0,0.0,0.0,0.0,0.0,0.0,0.0,0.0,0.0,0.0,0.0,0.0,0.0,0.0,0.0,0.0,0.0,0.0,0.0,0.0,0.0,0.0,0.0,0.0,0.0,0.0,0.0,0.0,0.0,0.0,0.0,0.0,0.0,0.0,0.0,0.0,0.0,0.0,0.0,0.0,0.0,0.0,0.0,0.0,0.0,0.0,0.0,0.0,0.0,0.0,0.0,0.0,0.0,0.0,0.0,0.0,0.0,0.0,0.0,0.0,0.0,0.0,0.0,0.0,0.0,0.0,0.0,0.0,0.0,0.0,0.0,0.0,0.0,0.0,0.0,0.0,0.0,0.0,0.0,0.0,0.0,0.0,0.0,0.0,0.0,0.0,0.0,0.0,0.0,0.0,0.0,0.0,0.0,0.0,0.0,0.0,0.0,0.0,0.0,0.0,0.0,0.0,0.0,0.0,0.0,0.0,0.0,0.0,0.0,0.0,0.0,0.0,0.0,0.0,0.0,0.0,0.0,0.0,0.0,0.0,0.0,0.0,0.0,0.0,0.0,0.0,0.0,0.0,0.0,0.0,0.0,0.0,0.0,0.0,0.0,0.0,0.0,0.0,0.0,0.0,0.0,0.0,0.0,0.0,0.0,0.0,0.0,0.0,0.0,0.0,0.0,0.0,0.0,0.0,0.0,0.0,0.0,0.0,0.0,0.0,0.0,0.0,0.0,0.0,0.0,0.0,0.0,0.0,0.0,0.0,0.0,0.0,0.0,0.0,0.0,0.0,0.0,0.0,0.0,0.0,0.0,0.0,0.0,0.0,0.0,0.0,0.0,0.0,0.0,-2.1911,0.0,0.0,0.0,0.0,0.0,0.0,0.0,0.0,0.0,0.0,0.0,0.0,0.0,0.0,0.0,0.0,0.0,0.0,0.0,0.0,0.0,0.0,0.0,0.0,0.0,0.0,0.0,0.0,0.0,0.0,0.0,0.0,0.0,0.0,0.0,0.0,0.0,0.0,0.0,0.0,0.0,0.0,0.0,0.0,0.0,0.0,0.0,0.0,0.0,0.0,0.0,0.0,0.0,0.0,0.0,0.0,0.0,0.0,0.0,0.0,0.0,0.0,0.0,0.0,0.0,0.0,0.0,0.0,0.0,0.0,0.0,0.0,0.0,0.0,0.0,0.0,0.0,0.0,0.0,0.0,0.0,0.0,0.0,0.0,0.0,0.0,0.0,0.0,0.0,0.0,0.0,0.0,0.0,0.0,0.0,0.0,0.0,0.0,0.0,0.0,0.0,0.0,0.0,0.0,0.0,0.0,0.0,0.0,0.0,0.0,0.0,0.0,0.0,0.0,0.0,0.0,-2.1873,0.0,0.0,0.0,0.0,0.0,0.0,0.0,0.0,0.0,0.0,0.0,0.0,0.0,0.0,0.0,0.0,0.0,0.0,0.0,0.0,0.0,0.0,0.0,0.0,0.0,0.0,0.0,0.0,0.0,0.0,0.0,0.0,0.0,0.0,0.0,0.0,0.0,0.0,0.0,0.0,0.0,0.0,0.0,0.0,0.0,0.0,0.0,0.0,0.0,0.0,0.0,0.0,0.0,0.0,0.0,0.0,0.0,0.0,0.0,0.0,0.0,0.0,0.0,0.0,0.0,0.0,0.0,0.0,0.0,0.0,0.0,0.0,0.0,0.0,0.0,0.0,0.0,0.0,0.0,0.0,0.0,0.0,0.0,0.0,0.0,0.0,0.0,0.0,0.0,0.0,0.0,0.0,0.0,0.0,0.0,0.0,0.0,0.0,0.0,0.0,0.0,0.0,0.0,0.0,0.0,0.0,0.0,0.0,-2.4277,-2.475,-2.4962,-2.5233,-2.5307,-2.5116,-2.3292,-2.207,-2.1431,0.0,0.0,0.0,0.0,0.0,0.0,0.0,0.0,0.0,0.0,0.0,0.0,0.0,0.0,0.0,0.0,0.0,0.0,0.0,0.0,0.0,0.0,0.0,0.0,0.0,0.0,0.0,0.0,0.0,0.0,0.0,0.0,0.0,0.0,0.0,0.0,0.0,0.0,0.0,-1.8825,-1.8825,-1.9063,-1.9464,0.0,0.0,0.0,0.0,0.0,0.0,0.0,0.0,0.0,0.0,0.0,0.0,0.0,0.0,0.0,0.0,0.0,0.0,0.0,0.0,0.0,0.0,0.0,0.0,0.0,0.0,0.0,0.0,0.0,0.0,0.0,0.0,0.0,0.0,0.0,0.0,0.0,0.0,0.0,0.0,0.0,0.0,0.0,0.0,-2.1102,-2.1008,0.0,0.0,0.0,0.0,0.0,0.0,0.0,0.0,0.0,0.0,0.0,0.0,0.0,-2.4723,-2.5166,-2.5443,-2.5499,-2.5331,-2.4953,-2.4778,-2.478,-2.3701,-2.3266,-2.3293,-2.2386,0.0,-2.3235,-2.3091,0.0,0.0,0.0,0.0,0.0,0.0,0.0,0.0,0.0,0.0,0.0,0.0,0.0,0.0,0.0,0.0,0.0,0.0,0.0,0.0,0.0,0.0,0.0,0.0,0.0,0.0,0.0,0.0,0.0,0.0,0.0,0.0,0.0,0.0,0.0,0.0,-1.9557,-1.9674,-1.9362,-1.9362,-1.9482,-1.9698,-1.954,-1.9901,-2.0665,-2.0375,0.0,0.0,0.0,0.0,0.0,0.0,0.0,0.0,0.0,0.0,0.0,0.0,0.0,0.0,0.0,0.0,0.0,0.0,0.0,0.0,0.0,0.0,0.0,0.0,0.0,0.0,0.0,0.0,0.0,0.0,0.0,0.0,0.0,0.0,0.0,0.0,0.0,0.0,0.0,-2.1929,-2.2627,-2.224,-2.2911,-2.3272,0.0,0.0,0.0,0.0,0.0,0.0,0.0,0.0,0.0,-2.4218,-2.4909,-2.5235,-2.5081,-2.5461,-2.552,-2.5197,-2.5264,-2.5334,-2.5407,-2.4412,-2.4361,-2.4988,-2.4005,-2.4031,-2.4672,-2.3522,-2.2907,-2.2787,0.0,0.0,0.0,0.0,-2.47,-2.5326,0.0,0.0,0.0,0.0,0.0,0.0,0.0,0.0,0.0,0.0,0.0,0.0,0.0,0.0,0.0,0.0,0.0,0.0,0.0,0.0,0.0,0.0,0.0,0.0,0.0,0.0,0.0,0.0,-1.9953,-2.0205,-1.9957,-1.9957,-2.0029,-2.0161,-2.0189,-2.049,-2.0948,-2.0991,-2.1101,0.0,0.0,0.0,0.0,0.0,0.0,0.0,0.0,0.0,0.0,0.0,0.0,0.0,0.0,0.0,0.0,0.0,0.0,0.0,0.0,0.0,0.0,0.0,0.0,0.0,0.0,0.0,0.0,0.0,0.0,0.0,0.0,0.0,0.0,0.0,0.0,0.0,0.0,-2.2629,-2.3326,-2.3044,-2.3405,-2.3752,0.0,0.0,0.0,0.0,0.0,0.0,-2.4836,-2.5336,-2.5376,-2.486,-2.5408,-2.5517,-2.5103,-2.5443,-2.5569,-2.5565,-2.5848,-2.6205,-2.6565,-2.5748,-2.5857,-2.6569,-2.5564,-2.5179,-2.5131,-2.4061,-2.3673,-2.3803,-2.4866,-2.5655,-2.6228,-2.5985,-2.6288,-2.6776,0.0,0.0,0.0,0.0,0.0,0.0,0.0,0.0,0.0,0.0,0.0,0.0,0.0,0.0,0.0,0.0,0.0,0.0,0.0,0.0,0.0,0.0,0.0,0.0,0.0,0.0,0.0,-1.9563,-1.9622,-1.9884,-2.0377,-2.0377,-2.064,-2.1147,-2.1248,-2.0691,-1.9753,-2.0912,-2.0849,-2.0082,0.0,0.0,0.0,0.0,0.0,0.0,0.0,0.0,0.0,0.0,0.0,0.0,0.0,0.0,0.0,0.0,0.0,0.0,0.0,0.0,0.0,0.0,0.0,0.0,0.0,0.0,0.0,0.0,0.0,0.0,0.0,0.0,0.0,0.0,0.0,0.0,0.0,0.0,0.0,-2.2751,-2.3351,0.0,0.0,0.0,0.0,-2.5547,-2.506,-2.4993,-2.5614,-2.5504,-2.5445,-2.5448,-2.5609,-2.5951,-2.6485,-2.6083,-2.6427,-2.7569,-2.6996,-2.7335,-2.841,-2.7253,-2.6698,-2.6652,-2.6044,-2.5059,-2.3986,-2.4975,-2.57,-2.6235,-2.643,-2.6987,-2.7717,-2.7817,-2.7965,-2.8068,0.0,0.0,0.0,0.0,0.0,0.0,0.0,0.0,0.0,0.0,0.0,0.0,0.0,0.0,0.0,0.0,0.0,0.0,0.0,0.0,0.0,0.0,0.0,0.0,0.0,0.0,-1.9059,-1.9737,-2.0069,-2.0512,-2.1056,-2.1056,-2.1164,-2.1332,-2.1374,-2.0669,-1.953,-2.0476,-2.0638,-2.0251,-2.042,-2.0998,0.0,0.0,0.0,0.0,0.0,0.0,0.0,0.0,0.0,0.0,0.0,0.0,0.0,0.0,0.0,0.0,0.0,0.0,0.0,0.0,0.0,0.0,0.0,0.0,0.0,0.0,0.0,0.0,0.0,0.0,0.0,0.0,0.0,0.0,0.0,0.0,0.0,-2.4036,-2.4194,0.0,-2.4936,-2.4886,-2.5152,-2.6029,-2.5649,-2.5466,-2.5681,-2.6452,-2.6883,-2.6914,-2.7705,-2.8441,-2.9031,-2.888,-2.9021,-2.9442,-2.8831,-2.875,-2.9129,-2.7367,-2.6679,-2.6906,-2.5866,-2.5317,-2.5178,-2.5681,-2.539,-2.4653,-2.5418,-2.6131,-2.6829,-2.7305,-2.78,-2.8226,0.0,0.0,0.0,0.0,0.0,0.0,0.0,0.0,0.0,0.0,0.0,0.0,0.0,0.0,0.0,0.0,0.0,0.0,0.0,0.0,0.0,0.0,0.0,0.0,0.0,-1.8999,-1.9348,-2.0057,-2.061,-2.1151,-2.1668,-2.1668,-2.1668,-2.1668,-2.1668,-2.1057,-2.0027,-2.0562,-2.0366,-1.9748,-1.9889,-2.058,-2.1518,0.0,0.0,0.0,0.0,0.0,0.0,0.0,0.0,0.0,0.0,0.0,0.0,0.0,0.0,0.0,0.0,0.0,0.0,0.0,0.0,0.0,0.0,0.0,0.0,0.0,0.0,0.0,0.0,0.0,0.0,0.0,0.0,0.0,0.0,0.0,-2.4332,-2.5033,-2.4826,-2.4985,-2.5983,-2.5684,-2.588,-2.6988,-2.6449,-2.6415,-2.7242,-2.7723,-2.8193,-2.86,-2.917,-2.9706,-3.0093,-2.9889,-2.9754,-2.9656,-2.9558,-2.9335,-2.9006,-2.7864,-2.7361,-2.7425,-2.6493,-2.6152,-2.6188,-2.6295,-2.555,-2.44,-2.5382,-2.6142,-2.6796,-2.7523,-2.8084,-2.8504,0.0,0.0,0.0,0.0,0.0,0.0,0.0,0.0,0.0,0.0,0.0,0.0,0.0,0.0,0.0,0.0,0.0,0.0,0.0,0.0,0.0,0.0,0.0,0.0,-1.8774,-1.8931,-1.954,-2.0581,-2.1122,-2.168,-2.2197,-2.2197,-2.2197,-2.2197,-2.2197,-2.1824,-2.12,-2.1122,-2.0087,-1.8561,-1.9735,-2.0569,-2.1076,0.0,0.0,0.0,0.0,0.0,0.0,0.0,0.0,0.0,0.0,0.0,0.0,0.0,0.0,0.0,0.0,0.0,0.0,0.0,0.0,0.0,0.0,0.0,0.0,0.0,0.0,0.0,0.0,0.0,0.0,0.0,0.0,0.0,-2.4847,-2.4209,-2.4248,-2.5587,-2.5108,-2.5228,-2.6695,-2.6725,-2.7224,-2.856,-2.7569,-2.789,-3.0256,-2.9265,-2.917,-3.0364,-2.9835,-2.9583,-2.9597,-2.8994,-2.8572,-2.8356,-2.9167,-2.9134,-2.8334,-2.8881,-2.8794,-2.8278,-2.7978,-2.7484,-2.681,-2.6786,-2.6332,-2.5731,-2.6501,-2.717,-2.7802,-2.8661,-2.9012,-2.9073,0.0,0.0,0.0,0.0,0.0,0.0,0.0,0.0,0.0,0.0,0.0,0.0,0.0,0.0,0.0,0.0,0.0,0.0,0.0,0.0,0.0,0.0,0.0,0.0,-1.8934,-1.9224,-1.9762,-2.0581,-2.0991,-2.1517,-2.2197,-2.2197,-2.2197,-2.2197,-2.2197,-2.1762,-2.0978,-2.0948,-2.0399,-1.9535,-2.0052,-2.054,-2.1003,0.0,0.0,0.0,0.0,0.0,0.0,0.0,0.0,0.0,0.0,0.0,0.0,0.0,0.0,0.0,0.0,0.0,0.0,0.0,0.0,0.0,0.0,0.0,0.0,0.0,0.0,0.0,0.0,0.0,0.0,0.0,0.0,-2.5964,-2.5506,-2.5143,-2.5288,-2.6243,-2.616,-2.6583,-2.7958,-2.808,-2.8582,-2.9821,-2.9184,-2.9034,-2.9699,-2.9448,-2.9604,-3.0391,-3.0663,-3.1002,-3.1471,-3.1273,-3.1153,-3.1088,-3.1351,-3.1316,-3.1052,-3.0002,-2.9753,-3.003,-2.7843,-2.7118,-2.739,-2.642,-2.5665,-2.5217,-2.6098,-2.7016,-2.7911,-2.8429,-2.9141,-2.9766,0.0,0.0,0.0,0.0,0.0,0.0,0.0,0.0,0.0,0.0,0.0,0.0,0.0,0.0,0.0,0.0,0.0,0.0,0.0,0.0,0.0,0.0,0.0,0.0,0.0,-1.9367,-1.9933,-2.0524,-2.0979,-2.1547,-2.2197,-2.2197,-2.2197,-2.2197,-2.2197,-2.1925,-2.1443,-2.1339,-2.1082,-2.0751,-2.0908,-2.0985,-2.1068,-2.1445,-2.1862,-2.2206,-2.2207,-2.2468,-2.2809,-2.2777,0.0,0.0,0.0,0.0,0.0,0.0,0.0,0.0,0.0,0.0,0.0,0.0,0.0,0.0,0.0,0.0,0.0,0.0,0.0,0.0,0.0,0.0,0.0,0.0,-2.6472,-2.6756,-2.6877,-2.6321,-2.6273,-2.7243,-2.7413,-2.7935,-2.9238,-2.936,-2.9754,-3.0703,-3.0215,-3.0079,-3.0616,-3.0398,-3.0513,-3.1124,-3.1721,-3.2232,-3.2572,-3.2793,-3.2728,-3.2401,-3.2364,-3.2029,-3.1401,-3.0082,-2.98,0.0,-2.7822,-2.728,-2.7942,-2.6806,-2.6124,0.0,0.0,0.0,0.0,0.0,-2.8839,-3.0073,0.0,0.0,0.0,0.0,0.0,0.0,0.0,0.0,0.0,0.0,0.0,0.0,0.0,0.0,0.0,0.0,0.0,0.0,0.0,0.0,0.0,0.0,0.0,0.0,0.0,0.0,-1.9989,-2.0454,-2.1128,-2.1728,-2.2216,-2.2228,-2.2197,-2.2197,-2.2197,-2.2197,-2.2154,-2.1968,-2.1894,-2.1894,-2.1894,-2.1651,-2.1254,-2.1072,-2.1637,-2.236,-2.1195,-2.168,-2.2712,-2.1445,0.0,0.0,0.0,0.0,0.0,0.0,0.0,0.0,0.0,0.0,0.0,0.0,0.0,0.0,0.0,0.0,0.0,0.0,0.0,0.0,0.0,0.0,0.0,0.0,-2.7009,-2.7488,-2.8546,-2.7728,-2.7436,-2.8506,-2.8739,-2.9252,-3.0405,-3.0513,-3.0758,-3.1355,-3.0839,-3.1029,-3.2259,0.0,0.0,0.0,0.0,-3.3196,-3.3196,-3.365,-3.3547,-3.2843,-3.2778,-3.2044,-3.0781,-2.9845,-2.96,-2.9853,-2.8073,-2.7778,-2.8507,-2.7539,-2.7075,-2.6932,-2.5639,-2.4932,-2.4783,-2.6512,-2.836,-2.9998,0.0,0.0,0.0,0.0,0.0,0.0,0.0,0.0,0.0,0.0,0.0,0.0,0.0,0.0,0.0,0.0,0.0,0.0,0.0,0.0,0.0,0.0,0.0,0.0,0.0,0.0,0.0,-2.0713,-2.147,-2.1985,-2.2359,-2.2247,-2.2197,-2.2197,-2.2197,-2.2092,-2.1968,-2.1937,-2.1894,-2.1894,-2.1894,-2.1834,-2.177,-2.1708,-2.1779,-2.1819,-2.142,-2.1412,-2.1596,-2.1789,-2.2029,-2.2286,-2.2756,0.0,0.0,0.0,0.0,0.0,0.0,0.0,0.0,0.0,0.0,0.0,0.0,0.0,0.0,0.0,0.0,0.0,0.0,0.0,0.0,-2.7386,-2.8278,-2.9048,-2.9298,-2.9503,-2.974,-3.0005,-3.0032,-3.0337,-3.1056,-3.1124,-3.1368,-3.2001,-3.1463,-3.1639,-3.2857,-3.2368,0.0,-3.3542,-3.3677,-3.3745,-3.3745,-3.3853,-3.3831,-3.3663,0.0,0.0,-3.3166,-3.1603,-3.1312,-3.1848,-2.9046,-2.8315,-2.8958,-2.7295,-2.637,-2.6053,-2.6496,-2.6833,-2.7076,-2.731,-2.8232,-2.9228,0.0,0.0,0.0,0.0,0.0,0.0,0.0,0.0,0.0,0.0,0.0,0.0,0.0,0.0,0.0,0.0,0.0,0.0,0.0,0.0,0.0,0.0,0.0,0.0,0.0,0.0,0.0,0.0,0.0,-2.1614,-2.2297,-2.1951,-2.1945,-2.2185,-2.1921,-2.1884,-2.2061,-2.2061,-2.1999,-2.1894,-2.1894,-2.1874,-2.1812,-2.1874,-2.1812,-2.1632,-2.1226,-2.1097,-2.1219,-2.1253,-2.1416,-2.169,-2.2032,-2.2512,-2.3015,0.0,0.0,0.0,0.0,0.0,0.0,0.0,0.0,0.0,0.0,0.0,0.0,0.0,0.0,-2.724,0.0,0.0,-2.8216,-2.8449,-2.9056,-2.9719,-3.033,-3.0649,-3.0853,-3.0853,-3.0853,-3.1083,-3.168,-3.1734,-3.2015,-3.2612,-3.2381,-3.2562,-3.3457,-3.2942,-3.3023,-3.388,-3.3908,-3.4043,-3.4355,-3.4639,-3.4788,-3.4802,-3.4353,-3.4153,-3.41,-3.2041,-3.1543,-3.2217,-2.9492,-2.8841,-2.9492,-2.8156,-2.752,-2.7423,-2.7603,-2.764,-2.7502,-2.7304,-2.7859,-2.8758,0.0,0.0,0.0,0.0,0.0,0.0,0.0,0.0,0.0,0.0,0.0,0.0,0.0,0.0,0.0,0.0,0.0,0.0,0.0,0.0,0.0,0.0,0.0,0.0,0.0,0.0,0.0,0.0,0.0,-2.1205,-2.2091,-2.1735,-2.1819,-2.2173,-2.1783,-2.1771,-2.2041,-2.2149,-2.2032,-2.1751,-2.1858,-2.1753,-2.1545,-2.1733,-2.1749,-2.1577,-2.0989,-2.0912,-2.0994,-2.0664,-2.0756,-2.1063,-2.1167,-2.1608,-2.2237,-2.2877,-2.3518,0.0,0.0,0.0,0.0,0.0,0.0,0.0,0.0,0.0,-2.6644,-2.6766,-2.7172,-2.7569,-2.7691,-2.8193,-2.879,-2.9407,-2.9706,-3.0174,-3.1151,-3.1395,-3.1463,-3.1463,-3.1463,-3.1694,-3.2327,-3.2381,-3.2626,-3.3224,-3.3278,-3.3498,-3.4057,-3.3661,-3.3675,-3.4233,-3.4246,-3.4477,-3.4965,-3.5479,-3.571,-3.5669,-3.4812,-3.4397,-3.433,-3.2073,-3.1431,-3.1984,-2.9991,-2.9398,-2.9837,-2.9152,-2.8933,-2.9044,-2.8687,-2.817,-2.7651,-2.7225,-2.7657,-2.8459,0.0,0.0,0.0,0.0,0.0,0.0,0.0,0.0,0.0,0.0,0.0,0.0,0.0,0.0,0.0,0.0,0.0,0.0,0.0,0.0,0.0,0.0,0.0,0.0,0.0,0.0,0.0,0.0,0.0,0.0,-2.1668,-2.208,-2.2249,-2.2185,-2.2267,-2.1983,-2.1524,-2.1993,-2.1817,-2.1241,-2.1716,-2.1516,-2.1028,-2.135,-2.1463,-2.142,-2.1215,-2.0856,-2.0549,-2.0971,-2.0814,-2.0572,-2.1052,-2.1608,-2.2206,-2.2768,0.0,-2.3901,-2.4234,-2.4717,-2.5153,-2.5219,-2.5428,-2.5649,0.0,0.0,-2.6145,-2.6684,-2.6847,-2.705,-2.761,-2.8193,-2.879,-2.9407,-3.0391,-3.1137,-3.1273,-3.1748,-3.211,-3.211,-3.211,-3.2354,-3.2938,-3.3006,-3.32,-3.3772,-3.3813,-3.407,-3.4666,-3.4626,-3.487,-3.5506,-3.552,-3.5547,-3.5615,-3.5683,-3.571,-3.5669,-3.4812,-3.4397,-3.4356,-3.2383,-3.1742,-3.2039,-3.0949,-3.0142,-2.9544,-2.9456,-2.9279,-2.9122,-2.9253,-2.9082,-2.8733,-2.7897,-2.799,-2.8497,0.0,0.0,0.0,0.0,0.0,0.0,0.0,0.0,0.0,0.0,0.0,0.0,0.0,0.0,0.0,0.0,0.0,0.0,0.0,0.0,0.0,0.0,0.0,0.0,0.0,0.0,0.0,0.0,0.0,0.0,0.0,-2.1252,-2.1656,-2.2173,-2.1922,-2.1837,-2.1873,-2.1966,-2.1806,-2.1454,-2.1581,-2.1397,-2.1078,-2.1235,-2.1273,-2.1273,-2.1221,-2.1063,0.0,0.0,-2.1052,-2.0914,-2.1132,-2.1557,-2.2082,-2.2707,-2.328,0.0,-2.4626,-2.5315,-2.5813,0.0,-2.5948,-2.6203,-2.6233,-2.6323,-2.6606,-2.7216,-2.7339,-2.7623,-2.856,-2.894,-2.9461,0.0,-3.0961,-3.1409,-3.1762,-3.2055,-3.2218,-3.2218,-3.2517,-3.283,-3.3074,-3.3376,-3.3786,-3.4382,-3.4423,-3.468,-3.5276,-3.4978,-3.5073,-3.5696,-3.5344,-3.5317,-3.571,-3.6062,-3.6225,-3.6225,-3.6218,-3.6182,-3.6127,-3.3926,-3.2211,-3.0969,-3.0584,-3.0208,-2.9917,-2.9917,-2.9925,-2.9994,-3.0071,-3.0017,-2.9743,-2.8599,-2.8096,-2.7989,0.0,0.0,0.0,0.0,0.0,0.0,0.0,0.0,0.0,0.0,0.0,0.0,0.0,0.0,0.0,0.0,0.0,0.0,0.0,0.0,0.0,0.0,0.0,0.0,0.0,0.0,0.0,0.0,0.0,0.0,0.0,0.0,-2.1265,-2.1969,-2.1789,-2.1783,-2.1981,-2.197,-2.1791,-2.1518,-2.1479,-2.133,-2.1069,-2.1175,-2.1109,-2.1006,-2.1144,-2.1098,0.0,0.0,-2.1192,-2.1182,-2.1365,-2.1765,-2.231,-2.2919,-2.3573,-2.4333,-2.5497,0.0,0.0,-2.6383,-2.6307,-2.6287,-2.6553,-2.6415,-2.6478,-2.7281,-2.7461,-2.7827,-2.9021,-2.9509,-3.0079,-3.1124,-3.1436,-3.168,-3.2151,-3.2218,-3.2273,-3.2436,-3.2942,-3.3376,-3.3539,-3.3932,-3.4395,-3.4992,-3.5032,-3.5222,-3.5696,-3.5276,-3.5236,-3.571,-3.5425,-3.5533,-3.5954,-3.6564,-3.6863,-3.6863,-3.6732,-3.6718,-3.6605,-3.4305,-3.2224,-3.0422,-3.035,-3.0303,-3.0216,-3.0216,-3.0352,-3.0623,-3.0679,-3.0631,-3.0367,-2.9342,-2.8607,-2.8038,0.0,0.0,0.0,0.0,0.0,0.0,0.0,0.0,0.0,0.0,0.0,0.0,0.0,0.0,0.0,0.0,0.0,0.0,0.0,0.0,0.0,0.0,0.0,0.0,0.0,0.0,0.0,0.0,0.0,0.0,0.0,0.0,0.0,-2.1452,-2.2086,-2.2037,-2.1464,-2.1969,-2.1774,-2.1151,-2.1529,-2.13,-2.0737,-2.1069,-2.0891,-2.0504,-2.1017,0.0,0.0,0.0,-2.1167,-2.1181,-2.1723,-2.2341,0.0,-2.3429,-2.4435,-2.5655,0.0,0.0,-2.6286,-2.7,-2.6202,-2.5465,-2.6384,-2.5708,-2.5226,-2.6546,-2.682,-2.7186,-2.8397,-2.9591,-3.0581,-3.1192,-3.1775,-3.2191,-3.2218,-3.2218,-3.2436,-3.3006,-3.3552,-3.4111,0.0,-3.4748,-3.5005,-3.5642,-3.5683,-3.5696,-3.571,-3.5696,-3.5696,-3.571,-3.6252,-3.6551,-3.6564,-3.7147,-3.7458,-3.7458,-3.5574,-3.4683,-3.4645,-3.252,-3.1366,-3.0974,-3.0773,-3.0476,-3.0216,-3.0216,-3.0352,-3.0623,-3.0883,-3.0788,-3.0462,-3.0157,-2.9701,-2.9172,0.0,0.0,0.0,0.0,0.0,0.0,0.0,0.0,0.0,0.0,0.0,0.0,0.0,0.0,0.0,0.0,0.0,0.0,0.0,0.0,0.0,0.0,0.0,0.0,0.0,0.0,0.0,0.0,0.0,0.0,0.0,0.0,0.0,-2.1416,-2.1644,-2.1825,-2.1933,-2.199,-2.1861,-2.1614,-2.153,-2.1369,-2.1167,-2.1184,-2.0991,-2.0771,0.0,0.0,0.0,0.0,0.0,0.0,-2.1973,-2.2358,0.0,-2.3397,-2.4803,-2.6149,-2.5984,0.0,-2.6823,-2.5959,-2.5631,-2.5507,-2.532,-2.5412,-2.5882,-2.7131,-2.7732,-2.8492,-3.0093,-3.0717,-3.1192,-3.1789,-3.1721,-3.1721,-3.2151,-3.1843,-3.2001,-3.2979,-3.358,0.0,0.0,0.0,0.0,-3.5669,-3.5317,-3.5263,-3.5696,-3.571,-3.5886,-3.628,-3.6497,-3.6795,-3.7174,-3.7813,-3.7765,-3.7083,-3.6151,-3.5529,-3.514,-3.3488,-3.205,-3.0973,-3.0748,-3.0582,-3.0487,-3.0646,-3.0781,-3.0871,-3.0972,-3.0989,-3.0973,-3.0536,-3.0151,-2.9689,0.0,0.0,0.0,0.0,0.0,0.0,0.0,0.0,0.0,0.0,0.0,0.0,0.0,0.0,0.0,0.0,0.0,0.0,0.0,0.0,0.0,0.0,0.0,0.0,0.0,0.0,0.0,0.0,0.0,0.0,0.0,0.0,0.0,0.0,-2.0943,-2.1416,-2.1909,-2.1786,-2.1789,-2.1874,-2.16,-2.1463,-2.1388,-2.1253,-2.1094,0.0,0.0,0.0,0.0,0.0,0.0,0.0,-2.2494,-2.2891,-2.3446,-2.4337,-2.5413,-2.6257,-2.6115,-2.64,-2.648,-2.5418,-2.5134,-2.5082,-2.4909,-2.5325,-2.6091,-2.743,-2.818,-2.9007,-3.0391,-3.0825,-3.1178,-3.1762,-3.1544,-3.1504,-3.2137,-3.1857,-3.2046,-3.324,-3.3729,-3.4002,0.0,0.0,0.0,-3.5317,-3.5005,-3.5046,-3.5683,-3.5913,-3.6212,-3.6592,-3.7026,-3.7446,-3.7811,-3.8437,-3.8224,-3.7227,-3.6586,-3.5953,-3.5216,-3.3717,-3.2383,-3.126,-3.0917,-3.0706,-3.0623,-3.0781,-3.0927,-3.1052,-3.1307,-3.1338,-3.1258,-3.1013,-3.057,-2.9965,0.0,0.0,0.0,0.0,0.0,0.0,0.0,0.0,0.0,0.0,0.0,0.0,0.0,0.0,0.0,0.0,0.0,0.0,0.0,0.0,0.0,0.0,0.0,0.0,0.0,0.0,0.0,0.0,0.0,0.0,0.0,0.0,0.0,0.0,0.0,-2.0918,-2.144,-2.1422,-2.1595,-2.1827,-2.1718,-2.1569,-2.1353,-2.1242,0.0,0.0,0.0,0.0,0.0,0.0,0.0,0.0,0.0,-2.3852,-2.4673,-2.6062,-2.6126,-2.6024,-2.7209,-2.6512,-2.5385,-2.5359,-2.4711,-2.4344,-2.515,-2.5372,-2.5865,-2.7367,-2.818,-2.8777,0.0,0.0,-3.0635,-3.1205,-3.126,-3.145,-3.2083,-3.2151,-3.2535,0.0,0.0,0.0,0.0,0.0,0.0,-3.4707,0.0,-3.5032,-3.5723,-3.6293,-3.6632,-3.6687,-3.7813,-3.8423,-3.8464,-3.8976,-3.8742,-3.7808,-3.6752,-3.5713,-3.4763,-3.3184,-3.2213,-3.179,-3.1237,-3.0848,-3.0623,-3.0623,-3.0814,-3.1121,-3.1843,-3.1827,-3.1398,-3.1689,-3.1115,-3.0098,0.0,0.0,0.0,0.0,0.0,0.0,0.0,0.0,0.0,0.0,0.0,0.0,0.0,0.0,0.0,0.0,0.0,0.0,0.0,0.0,0.0,0.0,0.0,0.0,0.0,0.0,0.0,0.0,0.0,0.0,0.0,0.0,0.0,0.0,0.0,0.0,-2.1766,-2.1685,-2.1426,-2.1172,0.0,-2.1253,-2.0888,0.0,0.0,0.0,0.0,0.0,0.0,0.0,0.0,0.0,0.0,-2.4496,-2.5374,-2.478,-2.5511,-2.6367,-2.5713,-2.5483,-2.5262,-2.4723,-2.4411,-2.4316,-2.4548,-2.5125,-2.6001,-2.7274,-2.8116,-2.8912,0.0,0.0,0.0,-3.126,-3.092,0.0,-3.1436,-3.1137,0.0,-3.3091,0.0,-3.3975,-3.4124,-3.4002,0.0,0.0,-3.4138,-3.4788,-3.6293,-3.6524,-3.7012,-3.7921,-3.826,-3.864,-3.9074,-3.8482,-3.8037,-3.7763,-3.5998,-3.5054,-3.4763,-3.3184,-3.2213,-3.1779,-3.1413,-3.1031,-3.0623,-3.1205,-3.1439,-3.1588,-3.2532,-3.2698,-3.249,-3.2935,-3.2357,-3.1235,0.0,0.0,0.0,0.0,0.0,0.0,0.0,0.0,0.0,0.0,0.0,0.0,0.0,0.0,0.0,0.0,0.0,0.0,0.0,0.0,0.0,0.0,0.0,0.0,0.0,0.0,0.0,0.0,0.0,0.0,0.0,0.0,0.0,0.0,0.0,0.0,-2.1531,0.0,0.0,0.0,0.0,0.0,0.0,0.0,0.0,0.0,0.0,0.0,0.0,0.0,0.0,-2.353,-2.3491,-2.4268,-2.507,-2.4398,0.0,-2.5824,-2.5391,-2.5164,-2.4933,-2.4543,-2.4305,-2.4392,-2.5041,-2.5591,-2.6361,-2.7683,-2.8292,0.0,0.0,0.0,0.0,0.0,0.0,0.0,-3.0825,-3.0839,-3.1368,0.0,-3.358,0.0,-3.3908,-3.3908,-3.3908,0.0,-3.3908,-3.468,-3.6497,-3.6863,-3.7446,-3.8383,-3.8667,-3.8966,-3.9305,-3.8323,-3.7808,-3.7763,-3.5773,-3.4775,-3.4775,-3.3441,-3.2443,-3.1802,0.0,-3.1194,-3.0623,-3.1026,-3.1395,-3.1789,-3.2831,-3.3125,-3.306,-3.3691,-3.3053,-3.1801,0.0,0.0,0.0,0.0,0.0,0.0,0.0,0.0,0.0,0.0,0.0,0.0,0.0,0.0,0.0,0.0,0.0,0.0,0.0,0.0,0.0,0.0,0.0,0.0,0.0,0.0,0.0,0.0,0.0,0.0,0.0,0.0,0.0,0.0,0.0,0.0,0.0,0.0,0.0,0.0,0.0,0.0,0.0,0.0,0.0,0.0,0.0,0.0,0.0,0.0,-2.2862,-2.3832,-2.333,-2.3721,-2.4394,-2.4485,-2.4721,-2.5079,-2.5627,-2.5226,-2.462,-2.4591,-2.4361,-2.4475,-2.5843,-2.6188,-2.6614,-2.8125,0.0,-2.8505,-2.8587,-2.8722,-2.898,-2.9401,0.0,-2.9754,-3.0181,-3.073,-3.1531,-3.283,-3.3471,-3.3826,-3.3894,-3.3908,-3.388,-3.3799,-3.3829,-3.4681,-3.6619,-3.7243,-3.7797,-3.8518,-3.9034,-3.9305,-3.9305,-3.8323,-3.7717,-3.7566,-3.5678,-3.4739,-3.4544,-3.3706,-3.273,-3.1813,0.0,0.0,-3.0578,-3.0713,-3.1116,-3.1813,-3.301,-3.343,-3.34,-3.4235,-3.3557,-3.2232,0.0,0.0,0.0,0.0,0.0,0.0,0.0,0.0,0.0,0.0,0.0,0.0,0.0,0.0,0.0,0.0,0.0,0.0,0.0,0.0,0.0,0.0,0.0,0.0,0.0,0.0,0.0,0.0,0.0,0.0,0.0,0.0,0.0,0.0,0.0,0.0,0.0,0.0,0.0,0.0,0.0,0.0,0.0,0.0,0.0,0.0,0.0,0.0,0.0,0.0,-2.3134,-2.2923,-2.2865,-2.3724,-2.4656,-2.4283,-2.4921,-2.5627,-2.5263,-2.4973,-2.4721,-2.462,-2.4434,-2.4448,-2.5219,-2.5468,0.0,0.0,-2.7773,-2.8017,-2.8505,-2.9414,0.0,-2.9349,0.0,0.0,0.0,0.0,-3.0453,0.0,0.0,0.0,0.0,0.0,0.0,0.0,0.0,-3.4712,-3.7201,-3.7431,-3.7987,-3.9115,-3.9251,-3.9305,-3.9305,-3.8323,-3.7368,-3.6552,-3.5343,-3.436,-3.3568,-3.3381,-3.273,-3.1813,-3.1813,0.0,-3.0352,-3.116,-3.1572,-3.1902,-3.3748,-3.421,-3.3998,-3.5032,-3.4407,-3.3039,0.0,0.0,0.0,0.0,0.0,0.0,0.0,0.0,0.0,0.0,-1.1699,-1.1853,0.0,0.0,0.0,0.0,0.0,0.0,0.0,0.0,0.0,0.0,0.0,0.0,0.0,0.0,0.0,0.0,0.0,0.0,0.0,0.0,0.0,0.0,0.0,0.0,0.0,0.0,0.0,0.0,0.0,0.0,0.0,0.0,0.0,0.0,0.0,0.0,0.0,0.0,-2.2673,-2.2763,-2.3159,-2.407,-2.4858,-2.4201,-2.4851,-2.5677,-2.5139,-2.4892,-2.4778,-2.4734,-2.4507,-2.4588,-2.5665,0.0,0.0,0.0,-2.8134,-2.8261,-2.8546,0.0,0.0,0.0,0.0,0.0,0.0,0.0,0.0,0.0,0.0,0.0,0.0,0.0,0.0,0.0,0.0,-3.4412,-3.6917,-3.7447,-3.8167,-3.9292,-3.8787,-3.8787,-3.9292,-3.7795,-3.6798,-3.627,-3.4727,-3.3755,-3.3281,-3.3281,-3.273,-3.1813,-3.1813,0.0,-3.0261,-3.0982,-3.1595,-3.2244,-3.3744,-3.4433,-3.4675,-3.5053,-3.4464,-3.3385,0.0,0.0,0.0,0.0,0.0,0.0,0.0,-1.2344,-1.222,-1.222,-1.1972,-1.1883,-1.2079,-1.3332,0.0,0.0,0.0,0.0,0.0,0.0,0.0,0.0,0.0,0.0,0.0,0.0,0.0,0.0,0.0,0.0,0.0,0.0,0.0,0.0,0.0,0.0,0.0,0.0,0.0,0.0,0.0,0.0,0.0,0.0,0.0,0.0,0.0,0.0,0.0,0.0,-2.2267,-2.2693,-2.352,-2.4394,-2.4954,-2.4158,-2.4794,-2.5648,-2.5139,-2.492,-2.4835,-2.4806,-2.4593,-2.4784,-2.6267,-2.6505,0.0,0.0,-2.8619,-2.8619,-2.8619,0.0,0.0,0.0,0.0,0.0,0.0,0.0,0.0,0.0,0.0,0.0,0.0,0.0,0.0,0.0,0.0,0.0,-3.6497,-3.759,-3.8459,-3.9305,-3.8549,-3.8413,-3.8966,-3.7217,-3.6175,-3.5951,-3.4176,-3.3281,-3.3281,-3.3166,-3.2615,-3.1754,-3.1651,0.0,0.0,-3.0859,-3.166,-3.2684,-3.3707,-3.4502,-3.5021,-3.4991,-3.4377,-3.3431,0.0,0.0,0.0,0.0,0.0,0.0,0.0,-1.2375,-1.256,-1.256,-1.2529,-1.2382,-1.2135,-1.2249,0.0,0.0,0.0,0.0,0.0,0.0,0.0,0.0,0.0,0.0,0.0,0.0,0.0,0.0,0.0,0.0,0.0,0.0,0.0,0.0,0.0,0.0,0.0,0.0,0.0,0.0,0.0,0.0,0.0,0.0,0.0,0.0,0.0,0.0,0.0,0.0,0.0,-2.2237,-2.3618,-2.4421,-2.4738,-2.423,0.0,0.0,-2.5168,-2.4977,-2.4948,-2.4835,-2.4778,-2.5072,-2.6311,0.0,0.0,-2.8343,-2.8683,-2.8748,-2.8619,-2.9034,-2.9178,0.0,0.0,-2.911,0.0,0.0,0.0,0.0,0.0,0.0,0.0,0.0,0.0,0.0,0.0,0.0,-3.6564,-3.8228,-3.9203,-3.9305,-3.9216,-3.8787,-3.7946,-3.6845,-3.5856,-3.4921,-3.3793,-3.3281,-3.3269,-3.2787,-3.2259,-3.1672,-3.1272,0.0,0.0,-3.1395,-3.2075,-3.2889,-3.4139,-3.4548,-3.4588,-3.5267,-3.4565,-3.3331,0.0,0.0,0.0,0.0,0.0,0.0,0.0,-1.2375,-1.259,-1.259,-1.259,-1.245,-1.2077,-1.2089,-1.2789,0.0,0.0,0.0,0.0,0.0,0.0,0.0,0.0,0.0,0.0,0.0,0.0,0.0,0.0,0.0,0.0,0.0,0.0,0.0,0.0,0.0,0.0,0.0,0.0,0.0,0.0,0.0,0.0,0.0,0.0,0.0,0.0,0.0,0.0,0.0,0.0,0.0,-2.3666,-2.4869,0.0,0.0,-2.5161,-2.5661,-2.5148,-2.5005,-2.4977,-2.492,-2.4806,-2.5072,-2.6568,0.0,0.0,-2.8438,-2.8748,-2.8748,-2.8619,-2.879,-2.8858,0.0,0.0,0.0,0.0,0.0,0.0,0.0,0.0,0.0,0.0,0.0,0.0,0.0,0.0,0.0,-3.4751,-3.7073,-3.8413,-3.8413,-3.7795,-3.7309,-3.6892,-3.5904,-3.5198,-3.4775,-3.3805,-3.312,-3.2799,-3.2581,-3.2053,-3.1295,-3.11,0.0,0.0,-3.1962,-3.2907,-3.4066,-3.4853,-3.5136,-3.5134,-3.5131,-3.4334,-3.3236,0.0,0.0,0.0,0.0,0.0,0.0,-1.2058,-1.2375,-1.259,-1.259,-1.259,-1.2495,-1.221,-1.2097,-1.2591,-1.3917,0.0,0.0,0.0,0.0,0.0,0.0,0.0,0.0,0.0,0.0,0.0,0.0,0.0,0.0,0.0,0.0,0.0,0.0,0.0,0.0,0.0,0.0,0.0,0.0,0.0,0.0,0.0,0.0,0.0,0.0,0.0,0.0,0.0,0.0,0.0,0.0,0.0,0.0,0.0,0.0,-2.5315,-2.5594,-2.5098,-2.4685,-2.4523,-2.492,-2.4721,-2.4927,0.0,0.0,0.0,-2.852,-2.8844,-2.8812,-2.8651,-2.8587,-2.8587,0.0,0.0,-2.8112,0.0,0.0,0.0,0.0,0.0,0.0,0.0,0.0,0.0,0.0,0.0,0.0,0.0,-3.551,-3.6896,-3.711,-3.6405,-3.6013,-3.5856,-3.5004,-3.4402,-3.4111,-3.3273,-3.2638,-3.2308,-3.2254,-3.1933,-3.1308,0.0,0.0,0.0,-3.2774,-3.372,-3.4972,-3.5356,-3.5565,-3.5559,-3.5018,-3.4198,-3.3293,0.0,0.0,0.0,0.0,0.0,0.0,0.0,-1.2375,-1.259,-1.259,-1.259,-1.259,-1.259,-1.2252,-1.2422,-1.3519,0.0,0.0,0.0,0.0,0.0,0.0,0.0,0.0,0.0,0.0,0.0,0.0,0.0,0.0,0.0,0.0,0.0,0.0,0.0,0.0,0.0,0.0,0.0,0.0,0.0,0.0,0.0,0.0,0.0,0.0,0.0,0.0,0.0,0.0,0.0,0.0,0.0,0.0,0.0,0.0,-2.5266,-2.5641,-2.4988,-2.397,-2.3416,-2.4679,-2.4536,-2.4638,0.0,0.0,0.0,-2.8598,-2.8972,-2.9004,-2.8651,-2.8587,-2.8587,-2.8587,-2.8587,0.0,0.0,0.0,0.0,0.0,0.0,0.0,0.0,0.0,0.0,0.0,0.0,0.0,0.0,-3.3744,-3.4785,-3.5487,-3.55,-3.531,-3.4824,-3.4258,-3.3529,-3.2538,-3.2055,-3.1825,-3.1802,-3.1739,-3.1867,0.0,0.0,0.0,0.0,-3.3857,-3.4477,-3.5195,-3.5415,-3.5565,-3.5559,-3.5018,-3.4279,-3.3511,0.0,0.0,0.0,0.0,0.0,0.0,0.0,-1.2251,-1.2529,-1.2282,-1.2467,-1.2503,-1.2218,-1.299,-1.3825,-1.4705,0.0,0.0,0.0,0.0,0.0,0.0,0.0,0.0,0.0,0.0,0.0,0.0,0.0,0.0,0.0,0.0,0.0,0.0,0.0,0.0,0.0,0.0,0.0,0.0,0.0,0.0,0.0,0.0,0.0,0.0,0.0,0.0,0.0,0.0,0.0,0.0,0.0,0.0,0.0,0.0,0.0,0.0,-2.4566,-2.4379,-2.4292,-2.3813,-2.4147,-2.4914,-2.6136,0.0,0.0,-2.8566,-2.8972,-2.9004,-2.8651,-2.8587,-2.8736,-2.9162,-2.923,0.0,0.0,0.0,0.0,0.0,0.0,0.0,0.0,0.0,0.0,0.0,0.0,0.0,0.0,-3.1785,-3.275,-3.3961,-3.3986,-3.3618,-3.2743,-3.2711,-3.2534,-3.22,-3.2097,-3.189,-3.1751,-3.1879,0.0,0.0,0.0,0.0,0.0,-3.4293,-3.4999,-3.6013,-3.6107,-3.6031,-3.5798,-3.5065,-3.4279,-3.3511,0.0,0.0,0.0,0.0,0.0,0.0,0.0,-1.2251,-1.2529,-1.2313,-1.2467,-1.2558,-1.2432,-1.3453,-1.4429,-1.5131,0.0,0.0,0.0,0.0,0.0,0.0,0.0,0.0,0.0,0.0,0.0,0.0,0.0,0.0,0.0,0.0,0.0,0.0,0.0,0.0,0.0,0.0,0.0,0.0,0.0,0.0,-1.9943,0.0,0.0,0.0,0.0,0.0,0.0,0.0,0.0,0.0,0.0,0.0,0.0,0.0,-2.4253,0.0,0.0,-2.3939,-2.3771,-2.3225,-2.3813,0.0,0.0,0.0,0.0,0.0,0.0,-2.9004,-2.8716,-2.8619,-2.8709,-2.9122,-2.9176,0.0,0.0,0.0,0.0,0.0,0.0,0.0,0.0,0.0,0.0,0.0,0.0,0.0,0.0,-3.0368,-3.1048,-3.2084,-3.2355,-3.2242,-3.1813,-3.1701,-3.1691,-3.1691,-3.1576,-3.1565,-3.1598,-3.2054,0.0,0.0,0.0,0.0,0.0,-3.5139,-3.5668,-3.6405,-3.6405,-3.6323,-3.5998,-3.4913,-3.4176,-3.3601,0.0,0.0,0.0,0.0,0.0,0.0,0.0,0.0,0.0,0.0,-1.256,-1.2765,-1.3148,-1.3794,-1.4471,0.0,0.0,0.0,0.0,0.0,0.0,0.0,0.0,0.0,0.0,0.0,0.0,-1.7318,-1.6971,-1.722,-1.8063,0.0,0.0,0.0,0.0,0.0,0.0,0.0,0.0,0.0,0.0,0.0,0.0,0.0,0.0,0.0,0.0,0.0,0.0,0.0,0.0,0.0,0.0,0.0,0.0,0.0,0.0,0.0,0.0,0.0,0.0,0.0,0.0,0.0,0.0,0.0,0.0,0.0,0.0,0.0,0.0,-2.8683,-2.86,-2.8655,-2.8655,0.0,0.0,0.0,0.0,0.0,0.0,0.0,0.0,0.0,0.0,0.0,0.0,0.0,0.0,-2.9531,-2.9715,-3.017,-3.0698,-3.118,-3.1698,-3.1192,-3.0962,-3.095,-3.0731,-3.089,-3.1425,-3.216,0.0,0.0,0.0,0.0,0.0,-3.6181,-3.6358,-3.6405,-3.6405,-3.6405,-3.6232,-3.4598,-3.4007,-3.3756,0.0,0.0,0.0,0.0,0.0,0.0,0.0,0.0,0.0,0.0,0.0,-1.2935,-1.3853,-1.4818,0.0,0.0,0.0,0.0,0.0,0.0,0.0,0.0,0.0,0.0,0.0,0.0,0.0,-1.6401,-1.6657,-1.7086,-1.7662,-1.7949,0.0,0.0,0.0,0.0,0.0,0.0,0.0,0.0,0.0,0.0,0.0,0.0,0.0,0.0,-2.1808,-2.1941,0.0,0.0,0.0,0.0,0.0,0.0,0.0,0.0,-2.1817,-2.1942,-2.2387,0.0,-2.331,-2.1982,-2.3237,-2.4887,0.0,0.0,0.0,0.0,0.0,0.0,0.0,0.0,0.0,0.0,0.0,0.0,0.0,0.0,0.0,0.0,0.0,0.0,0.0,0.0,0.0,0.0,0.0,0.0,0.0,-2.9794,-2.992,-3.017,-3.0342,-3.0457,-3.0572,-3.0639,-3.0673,-3.0718,-3.0839,-3.1031,-3.134,-3.2363,0.0,0.0,0.0,0.0,-3.592,-3.6051,-3.6181,-3.6405,-3.6405,-3.6405,-3.6232,-3.4598,-3.4007,-3.3756,0.0,0.0,0.0,0.0,0.0,0.0,0.0,0.0,0.0,0.0,0.0,0.0,0.0,0.0,0.0,0.0,0.0,0.0,0.0,0.0,0.0,0.0,0.0,0.0,0.0,0.0,0.0,0.0,0.0,-1.7368,0.0,0.0,0.0,0.0,0.0,0.0,0.0,0.0,0.0,0.0,-1.8338,0.0,0.0,0.0,0.0,0.0,-2.1441,-2.1732,0.0,-2.1652,-2.142,-2.1109,0.0,0.0,0.0,0.0,-2.1067,-2.1285,-2.1608,-2.2421,-2.2877,-2.1526,-2.2665,-2.4216,0.0,0.0,0.0,0.0,0.0,0.0,0.0,0.0,0.0,0.0,0.0,0.0,0.0,0.0,0.0,0.0,0.0,0.0,0.0,0.0,0.0,0.0,0.0,0.0,0.0,-2.8892,-2.9015,-2.9227,-2.9227,-2.9533,-3.0216,-3.0352,-3.0442,-3.0442,-3.0679,-3.1196,-3.1861,-3.2556,-3.3407,0.0,0.0,0.0,-3.6015,-3.6146,-3.6138,-3.5981,-3.5887,-3.569,-3.5356,-3.4366,-3.3756,-3.3325,0.0,0.0,0.0,0.0,0.0,0.0,0.0,0.0,0.0,0.0,0.0,0.0,0.0,0.0,0.0,0.0,0.0,0.0,0.0,0.0,0.0,0.0,0.0,0.0,0.0,0.0,0.0,0.0,0.0,0.0,0.0,0.0,-1.8084,0.0,0.0,0.0,0.0,0.0,0.0,0.0,-1.8084,0.0,0.0,0.0,0.0,0.0,0.0,0.0,0.0,-2.1339,-2.119,-2.1098,-2.0481,0.0,0.0,0.0,0.0,0.0,-2.119,-2.1577,-2.1846,-2.1348,-2.2156,-2.3303,-2.4117,0.0,0.0,0.0,0.0,0.0,0.0,0.0,0.0,0.0,0.0,0.0,0.0,0.0,0.0,0.0,0.0,0.0,0.0,0.0,0.0,0.0,0.0,0.0,0.0,-2.7909,-2.804,-2.8302,-2.8203,-2.8774,-2.9975,-3.0021,-3.0067,-3.0067,-3.0326,-3.0959,-3.1879,-3.2369,-3.3301,-3.4594,0.0,0.0,-3.5831,-3.6043,-3.5909,-3.5483,-3.5198,-3.4757,-3.4226,-3.3757,-3.3163,-3.2581,0.0,0.0,0.0,0.0,0.0,0.0,0.0,0.0,0.0,0.0,0.0,0.0,0.0,0.0,0.0,0.0,0.0,0.0,0.0,0.0,0.0,0.0,0.0,0.0,0.0,0.0,0.0,0.0,0.0,0.0,-1.8084,-1.8084,-1.8084,0.0,0.0,0.0,-1.8084,-1.7991,-1.7991,-1.8084,-1.7991,0.0,0.0,0.0,0.0,0.0,0.0,0.0,0.0,-2.1224,-2.119,-2.1029,-2.009,0.0,0.0,0.0,0.0,0.0,-2.119,-2.1285,-2.1316,-2.1221,-2.2156,-2.3303,-2.4117,0.0,0.0,0.0,0.0,0.0,0.0,0.0,0.0,0.0,0.0,0.0,0.0,0.0,0.0,0.0,0.0,0.0,0.0,0.0,0.0,0.0,0.0,0.0,0.0,-2.8907,-2.9176,-2.9176,-2.881,-2.8694,-2.893,-2.9201,-2.9329,-2.9385,-2.9584,-2.9424,-2.9051,-3.0427,-3.1278,-3.1693,0.0,-3.3964,-3.4989,-3.5036,-3.5233,-3.5445,-3.4786,-3.4172,-3.3543,-3.2221,-3.1625,-3.1491,0.0,0.0,0.0,0.0,0.0,0.0,0.0,0.0,0.0,0.0,0.0,0.0,0.0,0.0,0.0,0.0,0.0,0.0,0.0,0.0,0.0,0.0,0.0,0.0,0.0,0.0,0.0,0.0,0.0,-1.7728,-1.8084,-1.8084,-1.8084,-1.8084,0.0,0.0,-1.8084,-1.8018,-1.8057,-1.8084,0.0,0.0,0.0,0.0,0.0,0.0,0.0,0.0,0.0,0.0,-2.0756,-2.0584,-1.9574,0.0,0.0,0.0,0.0,0.0,-2.119,-2.119,-2.119,-2.119,-2.1651,-2.2339,-2.3374,0.0,0.0,0.0,0.0,0.0,0.0,0.0,0.0,0.0,0.0,0.0,0.0,0.0,0.0,0.0,0.0,0.0,0.0,0.0,0.0,0.0,0.0,0.0,0.0,0.0,-2.8201,-2.8201,-2.776,-2.7801,-2.8457,-2.84,-2.8445,-2.8597,-2.8718,-2.8761,-2.8851,-2.9551,-3.0355,-3.1229,0.0,-3.2651,-3.3527,-3.3822,-3.3909,-3.3759,-3.3333,-3.2813,-3.2191,-3.1065,-3.098,-3.1339,0.0,0.0,0.0,0.0,0.0,0.0,0.0,0.0,0.0,0.0,0.0,0.0,0.0,0.0,0.0,0.0,0.0,0.0,0.0,0.0,0.0,0.0,0.0,0.0,0.0,0.0,-1.6314,-1.6818,-1.7273,-1.7728,-1.8084,-1.8084,-1.8084,0.0,0.0,0.0,-1.8084,-1.8084,-1.8084,-1.8068,0.0,0.0,0.0,0.0,0.0,0.0,0.0,0.0,0.0,0.0,0.0,0.0,0.0,0.0,0.0,-1.9838,-2.0419,-2.119,-2.119,-2.119,-2.119,-2.119,0.0,-2.1647,-2.2747,0.0,0.0,0.0,0.0,0.0,0.0,0.0,0.0,0.0,0.0,0.0,0.0,0.0,0.0,0.0,0.0,0.0,0.0,0.0,0.0,0.0,0.0,0.0,0.0,0.0,-2.751,-2.751,-2.7062,-2.7257,-2.8197,-2.7729,-2.7685,-2.798,-2.8078,-2.8289,-2.857,-2.8859,-2.9616,-3.066,-3.0878,-3.136,-3.2061,-3.2477,-3.2479,-3.2185,-3.1858,-3.1235,-3.0507,-2.994,-3.0228,-3.0805,0.0,0.0,0.0,0.0,0.0,0.0,0.0,0.0,0.0,0.0,0.0,0.0,0.0,0.0,0.0,0.0,0.0,0.0,0.0,0.0,0.0,0.0,0.0,0.0,0.0,-1.5855,-1.6314,-1.6818,-1.7273,-1.7728,-1.8084,-1.8084,-1.8084,-1.8084,0.0,0.0,-1.8084,-1.8084,-1.803,-1.797,-1.8588,0.0,0.0,0.0,0.0,0.0,0.0,0.0,0.0,0.0,0.0,0.0,0.0,0.0,-2.032,-1.9838,-2.0419,-2.119,-2.119,-2.119,-2.119,-2.119,-2.1514,0.0,-2.284,-2.3374,0.0,0.0,0.0,0.0,0.0,0.0,0.0,0.0,0.0,0.0,0.0,0.0,0.0,0.0,0.0,0.0,0.0,0.0,0.0,0.0,0.0,0.0,0.0,0.0,0.0,-2.8431,-2.8002,-2.7864,-2.794,-2.7458,-2.7371,-2.7663,-2.8084,-2.7729,-2.6737,-2.7828,-2.8405,-2.8559,-2.9242,-3.011,-3.1014,-3.1062,-3.1296,-3.1594,-3.0905,-2.9828,-2.8679,-2.8643,-2.879,-2.9001,0.0,0.0,0.0,0.0,0.0,0.0,0.0,0.0,0.0,0.0,0.0,0.0,0.0,0.0,0.0,0.0,0.0,0.0,0.0,0.0,0.0,0.0,0.0,-1.5526,-1.5816,-1.6028,-1.6314,-1.6818,-1.7534,-1.7947,-1.8084,-1.8084,0.0,0.0,0.0,0.0,-1.8084,-1.8018,-1.8201,-1.8537,-1.8618,-1.9072,0.0,0.0,0.0,0.0,0.0,0.0,0.0,0.0,-1.962,-1.916,0.0,0.0,0.0,0.0,-2.063,-2.119,-2.119,-2.119,-2.119,-2.119,0.0,0.0,0.0,0.0,0.0,0.0,0.0,0.0,0.0,0.0,0.0,0.0,0.0,0.0,0.0,0.0,0.0,0.0,0.0,0.0,0.0,0.0,0.0,0.0,0.0,0.0,0.0,0.0,0.0,-2.8486,-2.747,-2.7329,-2.8271,-2.7528,-2.7342,-2.7795,-2.7689,-2.7369,-2.694,-2.7421,-2.7772,-2.8052,-2.8345,-2.8822,-2.9436,-2.9761,-3.0018,-3.016,-2.9883,-2.9241,-2.851,-2.8657,-2.8803,-2.9,0.0,0.0,0.0,0.0,0.0,0.0,0.0,0.0,0.0,0.0,0.0,0.0,0.0,0.0,0.0,0.0,0.0,0.0,0.0,0.0,0.0,0.0,0.0,-1.5555,-1.5874,-1.6171,-1.6542,-1.7032,-1.7755,-1.8084,-1.8084,0.0,0.0,0.0,0.0,0.0,0.0,-1.8258,-1.8543,-1.9063,-1.9077,-1.9613,0.0,0.0,0.0,0.0,0.0,0.0,0.0,0.0,0.0,0.0,0.0,0.0,0.0,0.0,-2.0653,-2.096,-2.096,-2.096,-2.0994,0.0,0.0,0.0,0.0,0.0,0.0,0.0,0.0,0.0,0.0,0.0,0.0,0.0,0.0,0.0,0.0,0.0,0.0,0.0,0.0,0.0,0.0,0.0,0.0,0.0,0.0,0.0,0.0,0.0,0.0,0.0,-2.7028,-2.7038,-2.8258,-2.7612,-2.7577,-2.8191,-2.7681,-2.7428,-2.7441,-2.7551,-2.7777,-2.8082,-2.8082,-2.8243,-2.8534,-2.8976,-2.9161,-2.9254,-2.9254,-2.9024,-2.8709,-2.8843,-2.9,-2.9197,0.0,0.0,0.0,0.0,0.0,0.0,0.0,0.0,0.0,0.0,0.0,0.0,0.0,0.0,0.0,0.0,0.0,0.0,0.0,0.0,0.0,0.0,0.0,-1.541,-1.541,-1.6314,-1.7032,-1.7507,-1.7893,-1.8084,-1.8084,-1.8084,0.0,0.0,0.0,0.0,0.0,0.0,-1.9097,-1.9481,-2.0144,-2.0308,-2.0262,0.0,0.0,0.0,0.0,0.0,0.0,0.0,-1.8794,0.0,0.0,0.0,0.0,0.0,-2.0423,-2.0423,-2.0423,-2.0412,-2.0527,0.0,0.0,0.0,0.0,0.0,0.0,0.0,0.0,0.0,0.0,0.0,0.0,0.0,0.0,0.0,0.0,0.0,0.0,0.0,0.0,0.0,0.0,0.0,0.0,0.0,0.0,0.0,0.0,0.0,0.0,0.0,-2.6898,-2.715,-2.769,-2.7678,-2.8047,-2.8779,-2.8256,-2.7981,-2.7921,-2.8311,-2.851,-2.851,-2.851,-2.851,-2.851,-2.8724,-2.8922,-2.9091,-2.9091,-2.9091,-2.9091,-2.9091,-2.9236,-2.9419,0.0,0.0,0.0,0.0,0.0,0.0,0.0,0.0,0.0,0.0,0.0,0.0,0.0,0.0,0.0,0.0,0.0,0.0,0.0,0.0,0.0,0.0,0.0,0.0,0.0,0.0,-1.7172,-1.792,-1.803,-1.8084,0.0,0.0,0.0,-1.8134,0.0,0.0,0.0,0.0,-1.9563,-2.0103,-2.022,-2.0308,-2.0362,0.0,0.0,0.0,0.0,0.0,0.0,0.0,0.0,0.0,0.0,0.0,0.0,-2.0836,-2.0971,-2.0971,-2.0971,-2.0687,0.0,0.0,0.0,0.0,0.0,0.0,0.0,0.0,0.0,0.0,0.0,0.0,0.0,0.0,0.0,0.0,0.0,0.0,0.0,0.0,0.0,0.0,0.0,0.0,0.0,0.0,0.0,0.0,0.0,0.0,0.0,0.0,-2.6153,-2.6529,-2.7845,-2.7524,-2.7633,-2.8232,-2.824,-2.8409,-2.8736,-2.8478,-2.858,-2.8934,-2.8934,-2.8934,-2.8934,-2.9013,-2.9052,-2.9091,-2.9091,-2.9091,-2.9131,-2.9275,-2.9341,-2.9419,0.0,0.0,0.0,0.0,0.0,0.0,0.0,0.0,0.0,0.0,0.0,0.0,0.0,0.0,0.0,0.0,0.0,0.0,0.0,0.0,0.0,0.0,0.0,0.0,0.0,-1.6314,-1.6909,0.0,0.0,0.0,0.0,0.0,0.0,-1.8421,0.0,-1.9114,0.0,0.0,-2.0148,-2.0687,-2.0388,-2.0339,-2.0389,0.0,0.0,0.0,0.0,0.0,0.0,0.0,0.0,0.0,0.0,0.0,0.0,-2.0868,-2.0891,-2.0845,-2.0661,0.0,0.0,0.0,0.0,0.0,0.0,0.0,0.0,0.0,0.0,0.0,0.0,0.0,0.0,0.0,0.0,0.0,0.0,0.0,0.0,0.0,0.0,0.0,0.0,0.0,0.0,0.0,0.0,0.0,0.0,0.0,0.0,0.0,-2.5522,-2.5863,-2.7162,-2.6911,-2.715,-2.7924,-2.7828,-2.8126,-2.8683,-2.8407,-2.8465,-2.8784,-2.8993,-2.917,-2.9236,-2.9236,-2.9287,-2.9378,-2.9378,-2.9378,-2.9378,-2.9521,-2.956,-2.956,0.0,0.0,0.0,0.0,0.0,0.0,0.0,0.0,0.0,0.0,0.0,0.0,0.0,0.0,0.0,0.0,0.0,0.0,0.0,0.0,0.0,0.0,0.0,0.0,0.0,0.0,0.0,0.0,0.0,0.0,0.0,0.0,-1.8432,-1.8896,0.0,-1.9539,0.0,-2.0412,-2.0699,-2.1144,-2.0561,-2.0377,-2.0354,-1.9884,0.0,0.0,0.0,0.0,0.0,0.0,0.0,0.0,0.0,0.0,-2.1098,-2.0618,-2.0446,-2.0331,0.0,0.0,0.0,0.0,0.0,0.0,0.0,0.0,0.0,0.0,0.0,0.0,0.0,0.0,0.0,0.0,0.0,0.0,0.0,0.0,0.0,0.0,0.0,0.0,0.0,0.0,0.0,0.0,0.0,0.0,0.0,0.0,0.0,-2.5382,-2.5022,-2.524,-2.6129,-2.6117,-2.6651,0.0,-2.7221,-2.7316,-2.7911,-2.8114,-2.8271,-2.8394,-2.8887,-2.9238,-2.9419,-2.9419,-2.956,-2.9792,-2.9792,-2.9792,-2.9792,-2.9792,-2.9792,-2.9792,0.0,0.0,0.0,0.0,0.0,0.0,0.0,0.0,0.0,0.0,0.0,0.0,0.0,0.0,0.0,0.0,0.0,0.0,0.0,0.0,0.0,0.0,0.0,0.0,0.0,0.0,0.0,0.0,0.0,0.0,0.0,0.0,0.0,-1.8931,0.0,-2.0205,-2.0412,-2.0412,-2.0699,-2.1121,-2.0205,-2.0067,-2.0354,-1.9884,-1.962,0.0,0.0,0.0,0.0,0.0,0.0,0.0,-2.0914,-2.1109,-2.1178,-2.1063,-2.0722,-2.0469,0.0,0.0,0.0,0.0,0.0,0.0,0.0,0.0,0.0,0.0,0.0,0.0,0.0,0.0,0.0,0.0,0.0,0.0,0.0,0.0,0.0,0.0,0.0,0.0,0.0,0.0,0.0,0.0,0.0,0.0,0.0,0.0,0.0,-2.4559,-2.4806,-2.5364,-2.6231,-2.6322,-2.6457,0.0,-2.7046,-2.6941,-2.6408,-2.7167,-2.7963,-2.8787,-2.89,-2.925,-2.9702,-2.9702,-2.9753,-2.9792,-2.9792,-2.9792,-2.9792,-2.9792,-2.9792,-2.9792,0.0,0.0,0.0,0.0,0.0,0.0,0.0,0.0,0.0,0.0,0.0,0.0,0.0,0.0,0.0,0.0,0.0,0.0,0.0,0.0,0.0,0.0,0.0,0.0,0.0,0.0,0.0,0.0,0.0,0.0,0.0,0.0,0.0,-1.9643,0.0,-2.0549,-2.0756,-2.0515,-2.0561,-2.0733,-1.9987,-1.9849,-2.0044,-1.978,-1.9688,-1.9723,-1.9953,0.0,0.0,0.0,0.0,0.0,0.0,0.0,-2.1144,-2.0871,-2.0791,-2.0799,0.0,0.0,0.0,0.0,0.0,0.0,0.0,0.0,0.0,0.0,0.0,0.0,0.0,0.0,0.0,0.0,0.0,0.0,0.0,0.0,0.0,0.0,0.0,0.0,0.0,0.0,0.0,0.0,0.0,0.0,0.0,-2.4286,-2.4336,-2.4585,-2.4594,-2.4939,-2.5577,-2.5635,-2.5709,-2.5876,-2.6387,-2.6462,-2.6201,-2.6959,-2.7595,-2.8172,-2.8662,-2.9063,-2.9377,-2.9377,-2.9377,-2.9352,-2.9089,-2.9151,-2.9377,-2.9377,-2.9553,-2.9792,0.0,0.0,0.0,0.0,0.0,0.0,0.0,0.0,0.0,0.0,0.0,0.0,0.0,0.0,0.0,0.0,0.0,0.0,0.0,0.0,0.0,0.0,0.0,0.0,0.0,0.0,0.0,0.0,0.0,0.0,0.0,0.0,0.0,-2.0412,0.0,0.0,-2.104,-2.0595,-2.0412,-2.0366,-1.9884,-1.9792,-1.9941,-1.9849,-1.9872,-1.9998,-2.04,-2.0538,-2.0607,-2.1052,0.0,0.0,0.0,0.0,-2.1109,-2.0664,-2.0836,-2.1121,0.0,0.0,0.0,0.0,0.0,0.0,0.0,0.0,0.0,0.0,0.0,0.0,0.0,0.0,0.0,0.0,0.0,0.0,0.0,0.0,0.0,0.0,0.0,0.0,0.0,0.0,0.0,0.0,0.0,0.0,-2.4572,-2.4488,-2.4497,-2.4733,-2.4386,-2.4381,-2.479,-2.479,-2.4957,-2.5206,-2.5618,-2.6037,-2.6512,-2.6964,-2.7228,-2.7331,-2.8247,-2.8662,-2.875,-2.875,-2.875,-2.87,-2.8285,-2.8386,-2.875,-2.875,-2.9151,-2.9641,0.0,0.0,0.0,0.0,0.0,0.0,0.0,0.0,0.0,0.0,0.0,0.0,0.0,0.0,0.0,0.0,0.0,0.0,-1.541,0.0,0.0,-1.541,-1.541,0.0,0.0,0.0,0.0,0.0,0.0,0.0,0.0,0.0,0.0,-2.0435,0.0,0.0,-2.0504,-2.0435,-2.0412,-2.0366,-1.9884,-2.0205,-2.0948,-2.0481,-2.0584,-2.1006,-2.1063,-2.1098,-2.1098,-2.1178,-2.119,0.0,0.0,0.0,-2.1178,-2.1109,-2.1144,-2.127,0.0,0.0,0.0,0.0,0.0,0.0,0.0,0.0,0.0,0.0,0.0,0.0,0.0,0.0,0.0,0.0,0.0,0.0,0.0,0.0,0.0,0.0,0.0,0.0,0.0,0.0,0.0,0.0,0.0,0.0,-2.3406,-2.3502,-2.3709,-2.4015,-2.4137,-2.4381,-2.479,-2.479,-2.4825,-2.4861,-2.5218,-2.5781,-2.6499,-2.6562,-2.6864,-2.7329,-2.7444,-2.777,-2.821,-2.821,-2.821,-2.821,-2.8134,-2.8147,-2.821,-2.821,-2.8561,-2.9001,0.0,0.0,0.0,0.0,0.0,0.0,0.0,0.0,0.0,0.0,0.0,0.0,0.0,0.0,0.0,-1.5381,-1.541,-1.541,-1.541,-1.541,-1.541,-1.541,-1.5644,-1.593,0.0,0.0,0.0,0.0,0.0,0.0,0.0,-1.8898,-1.9509,0.0,0.0,0.0,0.0,0.0,0.0,-2.0358,-1.9744,0.0,0.0,-2.0156,-2.0297,-2.0432,-2.0991,-2.119,-2.119,-2.119,-2.119,-2.119,-2.119,0.0,0.0,0.0,-2.1594,0.0,0.0,0.0,0.0,0.0,0.0,0.0,0.0,0.0,0.0,0.0,0.0,0.0,0.0,0.0,0.0,0.0,0.0,0.0,0.0,0.0,0.0,0.0,0.0,0.0,0.0,0.0,0.0,0.0,0.0,-2.2442,-2.2899,-2.3154,-2.335,-2.3521,-2.3767,-2.413,-2.4647,-2.4413,-2.4555,-2.5087,-2.5241,-2.5734,-2.6499,-2.6499,-2.6625,-2.6876,-2.719,-2.7419,-2.7645,-2.7645,-2.7645,-2.7607,-2.7306,-2.7369,-2.7682,-2.7996,-2.8448,-2.8938,0.0,0.0,0.0,0.0,0.0,0.0,0.0,0.0,0.0,0.0,0.0,0.0,0.0,0.0,0.0,0.0,-1.541,-1.5459,-1.5566,-1.5684,-1.5712,-1.5712,-1.6064,-1.6414,-1.6759,0.0,0.0,0.0,0.0,0.0,-1.7832,-1.8245,-1.8883,0.0,-2.075,0.0,0.0,0.0,0.0,0.0,0.0,0.0,0.0,0.0,-1.9882,-1.9754,-2.0837,-2.0987,-2.07,-2.1063,-2.1094,-2.0978,-2.1287,-2.1385,0.0,0.0,0.0,0.0,0.0,0.0,0.0,0.0,0.0,0.0,0.0,0.0,0.0,0.0,0.0,0.0,0.0,0.0,0.0,0.0,0.0,0.0,0.0,0.0,0.0,0.0,0.0,0.0,0.0,0.0,0.0,0.0,0.0,-2.2024,-2.2438,-2.2711,-2.2915,-2.2981,-2.3366,-2.3762,-2.4178,-2.4081,-2.4457,-2.5259,-2.5392,-2.5816,-2.6499,-2.6499,-2.6499,-2.6512,-2.6927,-2.7115,-2.7115,-2.7115,-2.719,-2.7266,-2.6713,-2.6914,-2.7519,-2.7795,-2.8335,-2.895,0.0,0.0,0.0,0.0,0.0,0.0,0.0,0.0,0.0,0.0,0.0,0.0,-1.5391,-1.5284,-1.5264,-1.5381,-1.541,-1.5586,-1.6036,-1.6426,-1.6629,-1.6629,-1.6658,0.0,-1.6699,0.0,0.0,0.0,0.0,0.0,-1.8435,-1.8166,-1.8277,-1.8734,-2.0379,-2.0765,-2.0215,0.0,0.0,0.0,0.0,0.0,0.0,0.0,0.0,0.0,0.0,-2.0409,-1.9342,-2.0732,-2.0732,-2.0346,-2.1492,-2.1848,-2.1951,0.0,0.0,0.0,0.0,0.0,0.0,0.0,0.0,0.0,0.0,0.0,0.0,0.0,0.0,0.0,0.0,0.0,0.0,0.0,0.0,0.0,0.0,0.0,0.0,0.0,0.0,0.0,0.0,0.0,0.0,0.0,0.0,-2.173,-2.1765,-2.1892,-2.2126,-2.2441,-2.2956,-2.326,-2.3283,-2.4074,-2.4679,-2.5114,-2.563,-2.6084,-2.6499,-2.6499,-2.6499,-2.6499,-2.6524,-2.6537,-2.6537,-2.6537,-2.6851,-2.7266,-2.6713,-2.7153,-2.8009,-2.7507,-2.8009,-2.8888,0.0,0.0,0.0,0.0,0.0,0.0,0.0,0.0,0.0,0.0,0.0,0.0,0.0,-1.5565,-1.581,-1.586,-1.6094,-1.6297,-1.6484,-1.6609,-1.6634,-1.6519,-1.6928,-1.7084,-1.6967,0.0,0.0,0.0,0.0,-1.7455,-1.7862,-1.7995,-1.8302,-1.8789,-1.9899,-1.9941,-1.9216,-2.0109,0.0,0.0,0.0,0.0,0.0,0.0,0.0,0.0,0.0,0.0,0.0,-2.0582,-2.1192,-2.1856,-2.2285,-2.2409,-2.2513,-2.2983,-2.3499,0.0,0.0,0.0,0.0,0.0,0.0,0.0,0.0,0.0,0.0,0.0,0.0,0.0,0.0,0.0,0.0,0.0,0.0,0.0,0.0,0.0,0.0,0.0,0.0,0.0,0.0,0.0,0.0,0.0,0.0,0.0,-2.2018,-2.2272,-2.2462,-2.2587,-2.2769,-2.2927,-2.3004,-2.3881,-2.438,-2.4537,-2.5124,-2.5586,-2.5946,-2.6323,-2.6499,-2.6499,-2.6499,-2.67,-2.7052,-2.7369,-2.7632,-2.7795,-2.7595,-2.7758,-2.8122,-2.8285,-2.8549,-2.895,0.0,0.0,0.0,0.0,0.0,0.0,0.0,0.0,0.0,0.0,0.0,0.0,0.0,0.0,-1.6261,-1.6105,-1.6475,-1.6607,-1.6398,-1.6724,-1.6847,-1.6635,-1.7255,-1.7555,-1.7402,0.0,0.0,0.0,0.0,0.0,0.0,-1.8024,-1.8347,-1.8579,-1.9253,-1.9289,0.0,0.0,0.0,-1.8714,0.0,0.0,-1.8098,0.0,0.0,0.0,0.0,0.0,0.0,0.0,0.0,-2.1571,-2.192,-2.2373,-2.2932,-2.3485,-2.3709,0.0,-2.3954,0.0,0.0,0.0,0.0,0.0,0.0,0.0,0.0,0.0,0.0,0.0,0.0,0.0,0.0,0.0,0.0,0.0,0.0,0.0,0.0,0.0,0.0,0.0,0.0,0.0,0.0,0.0,0.0,0.0,-2.2018,-2.2235,-2.2463,-2.2678,-2.272,-2.2757,-2.2836,-2.3703,-2.407,-2.3973,-2.467,-2.5128,-2.536,-2.5912,-2.6197,-2.6223,-2.66,-2.6876,-2.709,-2.7607,-2.7946,-2.8109,-2.8109,-2.8335,-2.8699,-2.8825,-2.9013,-2.9277,0.0,0.0,0.0,0.0,0.0,0.0,0.0,0.0,0.0,0.0,0.0,0.0,0.0,0.0,0.0,-1.6153,-1.6484,-1.6459,-1.5867,-1.6808,-1.7317,-1.7143,-1.7682,-1.8008,-1.7974,0.0,0.0,0.0,0.0,0.0,0.0,0.0,-1.8304,-1.8128,-1.8526,-1.8966,-1.9354,0.0,-1.887,-1.7752,0.0,-1.7396,-1.7871,0.0,0.0,0.0,-2.0407,-2.0032,0.0,-1.9868,0.0,0.0,0.0,-2.1839,-2.3187,-2.397,-2.3677,0.0,0.0,0.0,0.0,0.0,0.0,0.0,0.0,0.0,0.0,0.0,0.0,0.0,0.0,0.0,0.0,0.0,0.0,0.0,0.0,0.0,0.0,0.0,0.0,0.0,0.0,0.0,0.0,0.0,0.0,-2.1683,-2.1714,-2.1714,-2.2037,-2.2678,-2.2708,-2.2708,-2.272,-2.3548,-2.381,-2.3508,-2.4372,-2.4763,-2.4775,-2.5335,-2.5586,-2.5649,-2.6753,-2.6977,-2.6537,-2.7102,-2.7632,-2.8134,-2.8134,-2.8812,-2.9729,-2.9126,-2.9315,-2.9792,0.0,0.0,0.0,0.0,0.0,0.0,0.0,0.0,0.0,0.0,0.0,0.0,-1.6304,-1.6556,-1.6617,-1.6396,-1.6493,-1.6616,-1.6735,-1.7031,-1.7301,-1.7523,-1.7838,-1.793,-1.7784,0.0,0.0,0.0,0.0,0.0,0.0,0.0,0.0,0.0,-1.8676,-1.8573,-1.8048,-1.8543,0.0,0.0,-1.7398,-1.7482,0.0,0.0,0.0,0.0,0.0,-1.9494,-1.9817,0.0,-2.1172,-2.252,0.0,0.0,0.0,0.0,0.0,0.0,-2.4538,0.0,0.0,0.0,0.0,0.0,0.0,0.0,0.0,0.0,0.0,0.0,0.0,0.0,0.0,0.0,0.0,0.0,0.0,0.0,0.0,0.0,0.0,0.0,0.0,0.0,0.0,0.0,-2.1683,-2.1819,-2.2061,-2.2297,-2.2525,-2.2678,-2.2878,-2.2909,-2.272,-2.3119,-2.3303,-2.3224,-2.3891,-2.423,-2.4243,-2.4795,-2.5247,-2.5611,-2.5768,-2.609,-2.6562,-2.7494,-2.8197,-2.8662,-2.8662,-2.9151,-2.9779,-2.9616,-2.9654,-2.9792,0.0,0.0,0.0,0.0,0.0,0.0,0.0,0.0,0.0,0.0,0.0,0.0,-1.6683,-1.6735,-1.6709,-1.6526,-1.6507,-1.6603,-1.6812,-1.7102,-1.7305,-1.7437,-1.7799,-1.8018,-1.8079,0.0,0.0,0.0,0.0,0.0,0.0,0.0,0.0,0.0,0.0,0.0,0.0,0.0,0.0,0.0,-1.761,0.0,0.0,-1.8369,-1.844,0.0,0.0,0.0,-2.0082,-2.0082,-2.0905,0.0,0.0,0.0,0.0,0.0,0.0,0.0,0.0,0.0,0.0,0.0,0.0,0.0,-2.3973,-2.3865,0.0,0.0,0.0,0.0,0.0,0.0,0.0,0.0,0.0,0.0,0.0,0.0,0.0,0.0,0.0,0.0,0.0,0.0,0.0,-2.1474,-2.1506,-2.1632,-2.1956,-2.2309,-2.2506,-2.2506,-2.28,-2.2787,-2.2494,-2.2909,-2.3047,-2.2939,-2.3385,-2.364,-2.3622,-2.4217,-2.4644,-2.4946,-2.5053,-2.5498,-2.6185,-2.6791,-2.7532,-2.8285,-2.8712,-2.9101,-2.9465,-2.9704,-2.9792,-2.9792,0.0,0.0,0.0,0.0,0.0,0.0,0.0,0.0,0.0,0.0,0.0,0.0,0.0,-1.6972,-1.6768,-1.6504,-1.6507,-1.6545,-1.6642,-1.7138,-1.7424,-1.7335,-1.7881,-1.8295,-1.863,0.0,0.0,0.0,0.0,0.0,0.0,0.0,0.0,0.0,0.0,0.0,0.0,0.0,0.0,-1.8114,-1.79,-1.8322,0.0,0.0,-1.9264,-1.9668,-2.0264,-2.0205,-1.9912,-1.9928,-1.9798,0.0,0.0,0.0,0.0,0.0,-2.4108,0.0,0.0,0.0,0.0,0.0,0.0,0.0,-2.4145,-2.4047,-2.3997,0.0,0.0,0.0,0.0,0.0,0.0,0.0,0.0,0.0,0.0,0.0,0.0,0.0,0.0,0.0,0.0,-2.1285,-2.1221,-2.119,-2.1221,-2.1411,-2.1757,-2.208,-2.2259,-2.2259,-2.2555,-2.2586,-2.2247,-2.2805,-2.3,-2.2739,-2.2987,-2.3108,-2.312,-2.3665,-2.3941,-2.4029,-2.4487,-2.4988,-2.5511,-2.5477,-2.6214,-2.7381,-2.836,-2.8787,-2.895,-2.9503,-2.9741,-2.9779,-1.0814,0.0,0.0,0.0,0.0,0.0,0.0,0.0,0.0,0.0,0.0,0.0,0.0,-1.6867,-1.6667,-1.6507,-1.6507,-1.6796,-1.7504,-1.7663,-1.8056,-1.8851,-1.8994,-1.901,-1.8916,-1.8716,0.0,0.0,0.0,0.0,0.0,0.0,0.0,0.0,0.0,0.0,0.0,0.0,0.0,-1.8358,-1.8638,0.0,-1.9004,-1.9004,-1.9274,-1.9686,-1.9602,-1.9697,-1.9928,-2.027,-2.0136,-2.008,0.0,0.0,0.0,-2.3557,0.0,0.0,0.0,0.0,0.0,0.0,0.0,0.0,-2.4673,-2.4317,-2.4043,0.0,0.0,0.0,0.0,0.0,0.0,0.0,0.0,0.0,0.0,0.0,0.0,0.0,0.0,0.0,0.0,-2.1757,-2.1506,-2.1221,-2.1443,-2.1757,-2.2092,-2.2402,-2.2598,-2.2598,-2.2878,-2.2878,-2.2598,-2.2927,-2.3078,-2.3017,-2.3078,-2.3108,-2.3108,-2.3221,-2.3521,-2.4004,-2.3935,-2.4297,-2.4938,-2.4796,-2.574,-2.7306,-2.7519,-2.8147,-2.89,-2.9013,-2.939,-2.9729,-1.1455,0.0,0.0,0.0,0.0,0.0,0.0,0.0,0.0,0.0,0.0,0.0,0.0,0.0,0.0,-1.7114,-1.6931,-1.7085,-1.7711,-1.7828,-1.809,-1.8472,-1.8492,-1.866,-1.8995,-1.8784,-1.8939,0.0,0.0,0.0,0.0,0.0,0.0,0.0,0.0,0.0,0.0,0.0,-1.8602,-1.8686,-1.8712,0.0,-1.9144,-1.8924,-1.919,-1.9619,-1.937,-1.9424,-1.9576,-1.9344,-1.9525,0.0,0.0,-2.1335,-2.1717,0.0,-2.355,-2.3798,0.0,0.0,0.0,-2.5087,0.0,0.0,0.0,-2.4596,-2.4355,0.0,0.0,0.0,0.0,0.0,0.0,0.0,0.0,0.0,0.0,0.0,0.0,0.0,0.0,0.0,0.0,-2.2061,-2.1894,-2.1706,-2.1862,-2.2018,-2.2197,-2.234,-2.2445,-2.2445,-2.2726,-2.286,-2.272,-2.2969,-2.3108,-2.3108,-2.3017,-2.3047,-2.3108,-2.3017,-2.321,-2.3547,-2.3429,-2.3785,-2.4374,-2.431,-2.4948,-2.6113,-2.6688,-2.7509,-2.8388,-2.875,-2.9076,-2.9315,-1.2106,0.0,0.0,0.0,0.0,0.0,0.0,0.0,0.0,0.0,0.0,0.0,0.0,0.0,0.0,0.0,-1.7485,-1.7422,0.0,-1.8022,-1.8056,-1.7865,-1.7943,-1.828,-1.8833,-1.859,-1.877,-1.9364,0.0,0.0,0.0,0.0,0.0,0.0,0.0,0.0,0.0,0.0,0.0,-1.8796,0.0,-1.8882,-1.9449,-1.9041,-1.921,-1.959,-1.9273,-1.9111,-1.8945,-1.834,-1.8867,-1.9858,-2.0276,-2.0796,0.0,0.0,0.0,0.0,0.0,0.0,0.0,0.0,0.0,-2.485,0.0,0.0,0.0,0.0,0.0,0.0,0.0,0.0,0.0,0.0,0.0,0.0,0.0,0.0,0.0,0.0,0.0,0.0,0.0,-2.2217,-2.2138,-2.2197,-2.2219,-2.2231,-2.229,-2.234,-2.234,-2.229,-2.2616,-2.2739,-2.272,-2.2969,-2.3078,-2.3047,-2.2939,-2.2939,-2.3017,-2.2909,-2.2909,-2.3017,-2.3017,-2.331,-2.3748,-2.3779,-2.4104,-2.4673,-2.5862,-2.6822,-2.7615,-2.8324,-2.865,-2.8712,-1.2404,-1.2854,0.0,0.0,0.0,0.0,0.0,0.0,0.0,0.0,0.0,0.0,0.0,0.0,0.0,0.0,0.0,0.0,-1.8465,0.0,-1.8529,-1.8494,-1.89,-1.8896,-1.8375,-1.8575,-1.8628,-1.8546,0.0,0.0,0.0,0.0,0.0,0.0,-1.7321,0.0,0.0,0.0,-1.8229,0.0,-1.856,-1.9275,0.0,-1.9678,-1.9647,-1.9777,-1.8968,-1.8432,-1.8193,0.0,-1.888,-1.9451,0.0,-1.9797,-1.9902,-2.149,0.0,0.0,0.0,0.0,0.0,0.0,-2.372,0.0,0.0,0.0,0.0,0.0,0.0,0.0,0.0,0.0,0.0,0.0,0.0,0.0,0.0,0.0,0.0,0.0,0.0,0.0,0.0,0.0,-2.192,-2.219,-2.2277,-2.2389,-2.2641,-2.2878,-2.2878,-2.2659,-2.2909,-2.2939,-2.272,-2.2969,-2.3047,-2.2909,-2.2909,-2.2848,-2.2739,-2.2739,-2.2739,-2.2739,-2.2739,-2.2776,-2.2868,-2.2978,-2.3269,-2.3781,-2.5173,-2.6088,-2.6716,-2.7268,-2.777,-2.8134,-1.3033,-1.3273,0.0,0.0,0.0,0.0,0.0,0.0,0.0,0.0,0.0,0.0,0.0,0.0,0.0,0.0,0.0,-1.827,0.0,0.0,0.0,-1.8079,-1.8263,-1.8354,-1.8299,-1.8318,-1.8419,-1.8563,-1.8378,0.0,0.0,0.0,0.0,0.0,-1.755,0.0,-1.8009,0.0,0.0,0.0,0.0,0.0,0.0,-1.8954,-1.8699,-1.8563,-1.8205,-1.7973,-1.7847,0.0,-1.8605,0.0,0.0,0.0,0.0,0.0,0.0,0.0,0.0,0.0,0.0,0.0,0.0,0.0,-2.4082,0.0,-2.4611,0.0,0.0,0.0,0.0,0.0,0.0,0.0,0.0,0.0,0.0,0.0,0.0,0.0,0.0,0.0,0.0,0.0,0.0,0.0,0.0,-2.2732,-2.2921,-2.3047,-2.3047,-2.2939,-2.3047,-2.3017,-2.283,-2.2939,-2.2909,-2.2769,-2.2665,-2.2635,-2.272,-2.2586,-2.2586,-2.272,-2.272,-2.272,-2.272,-2.2769,-2.2936,-2.3238,-2.4133,-2.5232,-2.6364,-2.6728,-2.719,-2.7595,-1.3199,0.0,0.0,0.0,0.0,0.0,0.0,0.0,0.0,0.0,0.0,0.0,-1.9219,-1.8789,0.0,0.0,-1.8711,-1.8261,0.0,0.0,-1.7881,0.0,0.0,0.0,0.0,-1.8024,-1.8128,-1.8442,0.0,0.0,0.0,0.0,0.0,0.0,0.0,-1.8018,-1.7944,0.0,0.0,-1.8522,-1.8434,-1.8451,-1.849,-1.8184,-1.7916,-1.7647,-1.7647,-1.7647,-1.7666,-1.7781,-1.8338,0.0,-1.8698,0.0,0.0,0.0,0.0,0.0,-2.1388,0.0,0.0,0.0,0.0,0.0,0.0,0.0,0.0,0.0,0.0,0.0,0.0,0.0,0.0,0.0,0.0,0.0,0.0,0.0,0.0,0.0,0.0,0.0,0.0,0.0,0.0,-2.312,-2.2739,-2.2634,-2.3078,-2.3108,-2.3108,-2.3108,-2.3108,-2.3047,-2.2909,-2.2909,-2.28,-2.2616,-2.2482,-2.2463,-2.2555,-2.2402,-2.2432,-2.2555,-2.2555,-2.2555,-2.2567,-2.2586,-2.2678,-2.2794,-2.3263,-2.436,-2.5744,-2.6108,-2.6612,-2.709,-1.258,-1.2521,0.0,0.0,0.0,0.0,0.0,0.0,0.0,0.0,0.0,0.0,0.0,0.0,0.0,0.0,0.0,-1.8027,-1.7974,0.0,-1.7822,0.0,0.0,-1.7822,0.0,0.0,-1.7735,-1.771,0.0,0.0,0.0,0.0,0.0,0.0,0.0,-1.8433,-1.8899,-1.8349,-1.8091,-1.8109,-1.7688,-1.7426,-1.7338,0.0,-1.7856,-1.7505,-1.7505,0.0,0.0,-1.796,-1.8112,0.0,0.0,0.0,0.0,0.0,0.0,0.0,0.0,0.0,0.0,-2.1352,0.0,0.0,0.0,0.0,-2.4105,0.0,0.0,0.0,0.0,0.0,0.0,-2.3134,0.0,0.0,0.0,0.0,0.0,0.0,0.0,0.0,0.0,0.0,0.0,-2.323,-2.2108,-2.1855,-2.3042,-2.3108,-2.3108,-2.3108,-2.3108,-2.3047,-2.2909,-2.2909,-2.2726,-2.242,-2.2389,-2.234,-2.2228,-2.2228,-2.2228,-2.2228,-2.2228,-2.2228,-2.2228,-2.2371,-2.242,-2.242,-2.2641,-2.341,-2.4476,-2.5336,-2.6021,-2.6524,0.0,0.0,0.0,0.0,0.0,0.0,0.0,-1.4859,0.0,0.0,0.0,0.0,0.0,-1.8769,-1.8451,0.0,0.0,-1.8266,-1.8027,-1.8008,0.0,0.0,0.0,-1.7939,0.0,0.0,0.0,0.0,0.0,0.0,0.0,0.0,0.0,0.0,0.0,-1.8779,0.0,0.0,0.0,0.0,0.0,-1.7565,-1.7454,0.0,0.0,-1.7314,-1.7314,-1.7314,0.0,-1.7473,-1.7769,-1.8093,-1.796,-1.8188,-1.8455,-1.8358,-1.8451,0.0,0.0,0.0,-1.9516,-2.0781,0.0,0.0,0.0,0.0,0.0,0.0,0.0,0.0,0.0,0.0,-2.4315,-2.3746,-2.352,0.0,0.0,0.0,0.0,0.0,0.0,0.0,0.0,0.0,0.0,-2.2847,-2.2353,-2.2279,0.0,-2.286,-2.286,-2.286,-2.286,-2.2757,-2.2574,-2.2574,-2.2482,-2.2278,-2.2278,-2.2247,-2.2197,-2.2197,-2.2197,-2.2197,-2.2197,-2.2197,-2.2197,-2.2247,-2.234,-2.2457,-2.2884,-2.3553,-2.4345,-2.476,-2.5519,-2.6339,-1.21,0.0,0.0,0.0,0.0,0.0,0.0,0.0,0.0,0.0,-1.7198,0.0,-1.8951,0.0,-1.8432,0.0,-1.8461,-1.8325,-1.8208,-1.8096,0.0,-1.8223,-1.8086,0.0,0.0,0.0,0.0,0.0,0.0,-1.8785,0.0,0.0,0.0,0.0,0.0,0.0,0.0,0.0,-1.8245,0.0,0.0,-1.76,0.0,0.0,-1.7396,-1.7302,0.0,-1.7107,-1.7107,-1.7107,-1.7353,-1.7636,-1.7373,-1.7654,-1.802,-1.7757,-1.7896,-1.8239,-1.8598,-1.8646,0.0,-2.0169,-2.0845,0.0,-2.2612,0.0,0.0,0.0,0.0,0.0,0.0,0.0,0.0,-2.312,-2.2748,0.0,0.0,-2.3927,0.0,0.0,0.0,0.0,0.0,0.0,-2.2036,-2.2665,-2.2086,-2.1934,0.0,0.0,-2.2622,-2.2485,-2.264,-2.2616,-2.2389,-2.2389,-2.2328,-2.2197,-2.2197,-2.2197,-2.2197,-2.2197,-2.2197,-2.2197,-2.2197,-2.2197,-2.2197,-2.2197,-2.2247,-2.2388,-2.2921,-2.3531,-2.4193,-2.462,-2.5397,-2.6201,0.0,0.0,0.0,0.0,-1.2645,0.0,0.0,0.0,-1.5724,0.0,-1.7405,-1.7665,-1.8456,-1.8232,-1.8163,-1.8527,-1.8266,-1.8242,-1.8607,-1.8301,0.0,0.0,-1.8281,-1.8227,-1.8627,0.0,0.0,0.0,0.0,0.0,0.0,0.0,0.0,0.0,-2.0137,0.0,-1.9004,-1.8802,-1.8472,-1.8048,-1.7879,-1.7443,-1.6971,-1.6917,-1.7147,-1.744,-1.7046,-1.6908,-1.6908,-1.6908,-1.6908,-1.6908,-1.6908,-1.6908,-1.6908,-1.6908,-1.7038,-1.7329,-1.7863,-1.818,-1.8524,-1.9413,0.0,0.0,0.0,0.0,-2.1319,0.0,0.0,0.0,0.0,0.0,0.0,-2.1402,-2.1711,-2.1983,0.0,0.0,0.0,0.0,0.0,0.0,0.0,-2.0858,-1.9985,-2.2651,-2.1363,0.0,0.0,0.0,-2.2487,-2.2084,-2.2455,-2.2586,-2.2389,-2.2389,-2.2328,-2.2197,-2.2197,-2.2197,-2.2197,-2.2197,-2.2197,-2.2197,-2.2197,-2.2197,-2.2197,-2.2197,-2.2197,-2.2246,-2.283,-2.3396,-2.3972,-2.4817,-2.5583,-2.6213,-1.2568,-1.2652,-1.2753,0.0,-1.2833,-1.3128,0.0,0.0,0.0,0.0,-1.5914,-1.6229,-1.7548,-1.7868,-1.8026,-1.8164,-1.8644,0.0,0.0,0.0,0.0,-1.9121,-1.9014,-1.9004,-1.9121,-1.9121,0.0,-1.9287,0.0,0.0,-1.9922,0.0,0.0,0.0,0.0,0.0,-1.9004,-1.9105,-1.8634,-1.781,-1.7741,-1.7761,0.0,0.0,-1.7367,-1.7637,-1.709,-1.6908,-1.6908,-1.6908,-1.6908,-1.6908,-1.6908,-1.6908,-1.6908,-1.6908,-1.6943,-1.6996,-1.7176,-1.723,-1.7472,-1.8311,-1.9264,-2.0229,0.0,0.0,0.0,0.0,0.0,0.0,0.0,0.0,0.0,0.0,0.0,0.0,0.0,0.0,0.0,-2.2193,0.0,0.0,-2.2428,-2.1672,-2.145,-2.2308,-2.1655,0.0,0.0,0.0,0.0,-2.1743,-2.2122,-2.2309,-2.2247,-2.2247,-2.2216,-2.2197,-2.2197,-2.2197,-2.2197,-2.2197,-2.2197,-2.2197,-2.2197,-2.2197,-2.2197,-2.2197,-2.2197,-2.2282,-2.324,-2.4155,-2.4962,-2.5501,-2.5904,-2.6201,-1.279,0.0,0.0,-1.301,0.0,0.0,-1.3368,0.0,0.0,-1.5363,-1.5836,0.0,-1.756,-1.7852,-1.8138,-1.8562,-1.9022,0.0,-1.9551,0.0,0.0,-1.9551,-1.9385,-1.9375,-1.9561,-1.9561,0.0,-1.9881,0.0,0.0,-2.0205,0.0,0.0,0.0,0.0,-2.0157,0.0,-1.9124,-1.8614,-1.7985,-1.7783,0.0,0.0,-1.7477,-1.7429,-1.7493,-1.7156,-1.6968,-1.6908,-1.6908,-1.6908,-1.6908,-1.6908,-1.6908,-1.6908,-1.6908,-1.6908,-1.6908,-1.6908,-1.6908,-1.6998,-1.7465,-1.827,-1.9188,-1.9996,-2.0706,-2.12,0.0,0.0,0.0,0.0,0.0,0.0,0.0,0.0,0.0,0.0,0.0,0.0,0.0,-2.0648,0.0,-2.1603,-2.1361,-2.1257,-2.1507,0.0,0.0,0.0,0.0,0.0,-2.2175,-2.2335,-2.2371,-2.2278,-2.2278,-2.2247,-2.2197,-2.2197,-2.2197,-2.2197,-2.2197,-2.2197,-2.2197,-2.2197,-2.2197,-2.2197,-2.2197,-2.2197,-2.2294,-2.3396,-2.4398,-2.5347,-2.5641,-2.5828,-2.5945,0.0,0.0,0.0,0.0,0.0,0.0,0.0,-1.46,0.0,-1.5207,0.0,-1.7243,-1.7687,-1.7809,-1.8145,-1.888,0.0,-1.9461,-1.9782,-1.9584,-1.9619,-1.999,-1.9648,-1.9629,-1.999,-2.0,-2.0185,0.0,0.0,0.0,0.0,0.0,0.0,0.0,0.0,0.0,0.0,-1.9026,-1.8624,0.0,-1.8068,-1.7781,-1.7649,-1.7615,-1.7474,-1.727,-1.7235,-1.7072,-1.6908,-1.6908,-1.6908,-1.6908,-1.6908,-1.6908,-1.6908,-1.6908,-1.6908,-1.6908,-1.6908,-1.6908,-1.6908,-1.6908,-1.7185,-1.7668,-1.8381,-1.8765,-1.8988,-1.9023,-1.9369,-1.9323,0.0,0.0,0.0,0.0,0.0,0.0,0.0,0.0,0.0,0.0,0.0,0.0,0.0,-2.0608,-2.0435,0.0,0.0,0.0,0.0,0.0,0.0,-2.2792,-2.2732,-2.2586,-2.2285,0.0,-2.2297,-2.2092,-2.2154,-2.2197,-2.2197,-2.2197,-2.2197,-2.2197,-2.2197,-2.2197,-2.2197,-2.2197,-2.227,-2.2498,-2.3517,-2.4458,-2.5312,-2.55,-2.5571,-2.5571,0.0,0.0,0.0,0.0,0.0,-1.4324,-1.4265,-1.4508,-1.4894,-1.5425,-1.5395,-1.5617,-1.6331,-1.674,-1.6992,-1.7152,-1.8483,0.0,0.0,0.0,0.0,-2.0488,-2.0419,-2.0419,-2.0488,-2.0488,-2.0527,0.0,0.0,0.0,0.0,0.0,0.0,0.0,0.0,0.0,-1.9883,-1.9385,0.0,-1.9134,-1.9056,-1.8776,-1.8385,-1.8264,-1.7973,-1.7569,-1.7304,-1.7072,-1.6908,-1.6908,-1.6908,-1.6908,-1.6908,-1.6908,-1.6908,-1.6908,-1.6908,-1.6908,-1.6908,-1.6908,-1.6908,-1.6908,-1.7185,-1.7558,-1.7668,-1.7747,-1.7875,-1.8149,-1.8287,-1.836,-1.8541,0.0,0.0,0.0,0.0,0.0,0.0,0.0,0.0,0.0,0.0,0.0,0.0,0.0,0.0,0.0,0.0,0.0,0.0,0.0,0.0,0.0,-2.2535,0.0,0.0,0.0,-2.2099,-2.1557,-2.1987,-2.2197,-2.2197,-2.2197,-2.2197,-2.2197,-2.2197,-2.2197,-2.2197,-2.2197,-2.2702,-2.3589,-2.4157,-2.4771,-2.5312,-2.5347,-2.5347,-2.5418,0.0,0.0,0.0,0.0,0.0,0.0,0.0,-1.4631,0.0,-1.5189,-1.5106,-1.532,-1.6087,-1.6213,-1.6437,-1.6828,-1.8183,-1.8937,-1.8735,-1.9889,-2.0507,-2.0244,-2.0488,0.0,-2.0605,-2.0605,-2.0605,-2.0605,0.0,0.0,0.0,0.0,0.0,0.0,0.0,-2.0234,0.0,0.0,0.0,-1.959,-1.9375,-1.9023,-1.8607,-1.8546,-1.816,-1.7672,-1.7501,-1.7348,-1.7185,-1.6978,-1.6908,-1.6908,-1.6908,-1.6908,-1.6908,-1.6908,-1.6908,-1.6908,-1.6908,-1.6908,-1.6908,-1.6908,-1.7185,-1.7505,-1.7505,-1.7642,-1.7779,-1.7735,-1.7745,-1.787,-1.8328,-1.9056,0.0,0.0,0.0,0.0,0.0,0.0,0.0,0.0,0.0,0.0,0.0,0.0,0.0,0.0,0.0,0.0,0.0,0.0,0.0,0.0,0.0,0.0,0.0,0.0,0.0,-2.2068,-2.2235,-2.2309,-2.2309,-2.2216,-2.2197,-2.2197,-2.2197,-2.2197,-2.2209,-2.2486,-2.3095,-2.3854,-2.4326,-2.4843,-2.5312,-2.5312,-2.5382,-2.55,0.0,-1.4123,0.0,0.0,-1.467,0.0,-1.4428,-1.4767,-1.5016,-1.4815,-1.4873,-1.5163,-1.5728,-1.5604,-1.5693,-1.6277,-1.7449,-1.8056,-1.7858,-1.9268,-1.9995,-1.9795,-2.0195,-2.0468,-2.0468,-2.0556,-2.0605,0.0,0.0,0.0,0.0,0.0,0.0,0.0,0.0,0.0,0.0,0.0,-1.9746,-2.0019,-1.9687,-1.9297,-1.8861,-1.8773,-1.8401,-1.7865,-1.7745,-1.7613,-1.7495,-1.7151,-1.7012,-1.6968,-1.6968,-1.6943,-1.6908,-1.6908,-1.6908,-1.6908,-1.6908,-1.6908,-1.6908,-1.6908,-1.7151,-1.7358,-1.7358,-1.7564,-1.7701,-1.7539,-1.7573,-1.7732,-1.8142,-1.8695,0.0,0.0,0.0,0.0,0.0,0.0,0.0,0.0,0.0,0.0,0.0,0.0,0.0,0.0,0.0,0.0,0.0,0.0,0.0,0.0,0.0,-2.2905,-2.2671,0.0,-2.2622,-2.2512,-2.2297,-2.2254,-2.2389,-2.2247,-2.2197,-2.2197,-2.2197,-2.2258,-2.2402,-2.2963,-2.3493,-2.4011,-2.4494,-2.4939,-2.5312,-2.5312,-2.5382,-2.5548,0.0,0.0,0.0,0.0,0.0,0.0,-1.5004,-1.5047,-1.4933,-1.4409,-1.4388,-1.4395,-1.4481,-1.4233,-1.4134,-1.4177,-1.5236,-1.6141,-1.6695,-1.7867,-1.8787,-1.9329,-1.9746,-1.9971,-1.9971,-2.0361,-2.0605,0.0,0.0,0.0,0.0,0.0,0.0,0.0,0.0,0.0,0.0,-2.0312,-2.0507,-2.0537,-2.0498,-2.0185,-1.9756,-1.9365,-1.8955,-1.8455,-1.7885,-1.7672,-1.7647,-1.7495,-1.7323,-1.7166,-1.7166,-1.7038,-1.6908,-1.6908,-1.6908,-1.6908,-1.6908,-1.6908,-1.6908,-1.6908,-1.6943,-1.6978,-1.6978,-1.6978,-1.7116,-1.7436,-1.7735,-1.811,-1.8539,-1.8369,-1.8296,0.0,0.0,0.0,0.0,0.0,0.0,0.0,0.0,0.0,0.0,-1.9584,0.0,0.0,0.0,0.0,0.0,0.0,0.0,-2.2887,0.0,-2.2515,-2.1922,-2.1958,-2.1982,-2.1982,-2.1639,-2.1808,-2.2389,-2.2247,-2.2197,-2.2197,-2.2197,-2.2493,-2.2987,-2.3505,-2.3989,-2.4506,-2.5023,-2.5264,-2.5312,-2.5312,-2.5312,-2.5455,0.0,0.0,0.0,0.0,0.0,0.0,0.0,-1.4462,-1.4421,-1.3797,-1.4077,-1.4358,-1.43,-1.406,-1.3798,-1.3572,-1.4808,-1.5513,-1.5342,-1.7204,-1.8305,-1.8323,-1.9102,-1.9658,-1.9902,-2.0088,-2.0303,0.0,0.0,0.0,0.0,0.0,0.0,0.0,0.0,-2.0225,-2.0303,-2.0215,-2.0322,-2.0605,-2.0605,-2.0303,-1.9873,-1.9443,-1.9014,-1.8549,-1.8051,-1.7896,-1.7862,-1.7803,-1.7598,-1.7358,-1.7245,-1.7132,-1.7072,-1.6943,-1.6908,-1.6908,-1.6908,-1.6908,-1.6908,-1.6908,-1.6908,-1.6908,-1.6908,-1.6908,-1.6943,-1.7116,-1.7426,-1.769,-1.7644,-1.8062,-1.8334,0.0,0.0,0.0,0.0,0.0,0.0,0.0,0.0,0.0,0.0,0.0,0.0,0.0,0.0,0.0,0.0,0.0,0.0,-2.2176,0.0,-2.206,-2.1401,-2.2202,-2.2414,-2.2021,-2.2199,-2.2408,-2.2586,-2.2525,-2.2432,-2.234,-2.2216,-2.2486,-2.3047,-2.3589,-2.4073,-2.4544,-2.5107,-2.5312,-2.5312,-2.5312,-2.5587,-2.6045,-1.3594,0.0,-1.3928,0.0,-1.423,-1.4162,-1.3718,-1.406,-1.4231,-1.3754,-1.4243,-1.451,-1.4124,-1.3845,-1.3586,-1.3306,-1.432,-1.483,-1.4441,-1.6179,-1.7152,-1.6965,-1.7798,0.0,-1.9077,-1.9239,-1.9667,-2.0371,-2.0371,0.0,0.0,0.0,0.0,0.0,-2.0185,-2.0205,-2.0361,-2.0185,-2.0283,-2.0605,-2.0605,-2.0381,-2.0049,-1.9492,-1.9092,-1.8724,-1.8203,-1.8008,-1.8008,-1.8008,-1.7837,-1.7598,-1.7407,-1.7304,-1.7245,-1.7038,-1.7003,-1.6968,-1.6908,-1.6908,-1.6908,-1.6908,-1.6908,-1.6908,-1.6908,-1.6908,-1.6908,-1.6908,-1.722,-1.7367,-1.6978,-1.7707,-1.816,-1.7586,0.0,0.0,0.0,0.0,0.0,0.0,-1.7755,-1.8218,-1.8511,0.0,0.0,0.0,0.0,0.0,0.0,0.0,0.0,0.0,0.0,0.0,0.0,-2.1824,-2.2175,-2.2101,-2.223,-2.2482,-2.2769,-2.2647,-2.2512,-2.2402,-2.2416,-2.2758,-2.3288,-2.3773,-2.429,-2.4748,-2.5168,-2.5312,-2.5312,-2.5312,-2.572,-2.6384,-1.2705,-1.2705,-1.2875,-1.3307,-1.3392,-1.3476,-1.3688,-1.4104,-1.4423,-1.4569,-1.4943,-1.4794,-1.3707,-1.3387,-1.3213,-1.3206,-1.3474,-1.378,-1.417,-1.4468,-1.4812,0.0,0.0,-1.6293,-1.7198,-1.7697,-1.8592,-1.9922,0.0,0.0,-1.9922,0.0,-1.9922,-1.9941,-2.041,-2.0322,-1.9951,-2.0419,-2.0595,-2.0605,-2.0605,-2.0595,-2.0507,-1.9609,-1.9287,-1.917,-1.832,-1.8008,-1.8008,-1.8008,-1.8008,-1.7974,-1.775,-1.7588,-1.7461,-1.7279,-1.7201,-1.7132,-1.6934,-1.6908,-1.6908,-1.6908,-1.6908,-1.6908,-1.6908,-1.6908,-1.6908,-1.6908,-1.722,-1.7367,-1.6978,-1.7229,-1.7514,-1.7505,0.0,0.0,0.0,0.0,0.0,0.0,-1.8076,-1.8112,-1.8112,0.0,0.0,0.0,0.0,0.0,0.0,0.0,0.0,-2.0794,-2.0828,0.0,-2.0783,-2.0369,-2.0794,-2.2082,-2.1293,-2.162,-2.2878,-2.2543,-2.2389,-2.2414,-2.2834,-2.33,-2.383,-2.4302,-2.4819,-2.53,-2.5312,-2.5312,-2.5312,-2.5312,-2.5636,-2.6239,-1.2705,-1.2833,-1.3009,-1.3185,-1.3307,-1.3455,-1.3559,-1.3801,-1.4122,-1.4555,-1.4861,-1.5059,-1.5035,-1.4974,-1.4661,0.0,-1.4314,-1.4227,0.0,-1.4214,-1.4568,-1.4504,-1.5085,-1.5668,-1.624,-1.6405,-1.6998,-1.8074,0.0,0.0,0.0,-2.0082,-2.04,-2.0361,-2.0546,-2.0527,-2.041,-2.0546,-2.0605,-2.0605,-2.0605,-2.0605,-2.0537,-1.9932,-1.9541,-1.9209,-1.8607,-1.8217,-1.8008,-1.8008,-1.8008,-1.7974,-1.794,-1.7794,-1.7623,-1.7461,-1.7314,-1.7201,-1.7132,-1.7003,-1.6908,-1.6908,-1.6908,-1.6908,-1.6908,-1.6908,-1.6908,-1.6908,-1.722,-1.7367,-1.6978,-1.7229,-1.7401,-1.7151,-1.6978,0.0,0.0,0.0,0.0,0.0,-1.752,-1.7694,0.0,-1.81,0.0,0.0,0.0,0.0,0.0,0.0,0.0,0.0,-2.0245,0.0,-1.9651,-2.04,-2.0773,-2.073,-2.0933,-2.1262,-2.1671,-2.1336,-2.1713,-2.2564,-2.2073,-2.2843,-2.4403,-2.3491,-2.3672,-2.4492,-2.4492,-2.4492,-2.4611,-2.5673,-2.6372,-2.6979,-1.3187,-1.3188,-1.3281,-1.3393,-1.3324,-1.3392,-1.3616,-1.3831,-1.4104,-1.4572,-1.5072,-1.5572,-1.6001,-1.6189,0.0,-1.501,-1.4938,-1.4569,-1.3736,-1.3943,-1.3934,-1.3696,-1.3946,-1.44,-1.5013,-1.5021,0.0,-1.6674,-1.7037,-1.773,-1.8816,-1.9362,-1.9805,-2.0128,-2.0128,-2.0294,-2.0605,-2.0605,-2.0605,-2.0605,-2.0605,-2.0605,-2.0556,-2.0078,-1.9746,-1.9473,-1.9033,-1.8568,-1.8242,-1.8242,-1.81,-1.8008,-1.8008,-1.7896,-1.7784,-1.7623,-1.7476,-1.7373,-1.7314,-1.7176,-1.7003,-1.7003,-1.6968,-1.6908,-1.6908,-1.6908,-1.6908,-1.6908,-1.7116,-1.7185,-1.6943,-1.7116,-1.7185,-1.6943,-1.6908,-1.6908,-1.6908,0.0,0.0,0.0,0.0,0.0,0.0,-1.8173,-1.8522,0.0,0.0,0.0,0.0,0.0,0.0,-1.9533,-1.9644,0.0,-1.9108,-1.9944,-2.0258,-2.0096,-2.0773,-2.1092,-2.1103,-2.102,-2.1476,-2.2264,-2.1981,-2.2674,-2.399,-2.3212,-2.3327,-2.3913,-2.4168,-2.4428,-2.4782,-2.5985,-2.6907,-2.7714,-1.3902,-1.3703,0.0,0.0,-1.3493,0.0,-1.3876,-1.4121,-1.4352,-1.4678,-1.5503,-1.6167,-1.6553,-1.7005,-1.686,-1.5911,0.0,0.0,0.0,-1.3709,-1.3132,-1.2797,-1.2496,-1.2696,-1.3564,-1.36,-1.426,-1.5618,-1.6618,-1.7358,-1.7883,-1.794,-1.8487,-1.9301,-1.9301,-1.9775,-2.0605,-2.0605,-2.0605,-2.0605,-2.0605,-2.0605,-2.0556,-2.0117,-1.9941,-1.9863,-1.9473,-1.9053,-1.8637,-1.8617,-1.8344,-1.8047,-1.8018,-1.8008,-1.7974,-1.7784,-1.7706,-1.7681,-1.7564,-1.7358,-1.7235,-1.7201,-1.7038,-1.6908,-1.6908,-1.6908,-1.6908,-1.6908,-1.6908,-1.6908,-1.6908,-1.6908,-1.6908,-1.6908,-1.6908,-1.6908,-1.6908,0.0,0.0,0.0,0.0,0.0,0.0,-1.8654,-1.8775,0.0,0.0,0.0,0.0,0.0,-1.9585,-1.9119,-1.9108,-1.9108,-1.9108,-1.9108,-1.944,-2.0085,-2.0701,-2.1001,-2.1058,-2.1383,-2.1553,-2.1677,-2.2391,-2.278,-2.2907,-2.3293,-2.3482,-2.3567,-2.4164,-2.4865,-2.5592,-2.6226,-2.7261,-2.837,0.0,0.0,-1.4148,-1.4173,-1.409,-1.4134,-1.4458,-1.4542,-1.4737,-1.5201,-1.5429,-1.5839,-1.6527,-1.6676,-1.6807,-1.6936,-1.6411,-1.5669,-1.4586,-1.4056,-1.3492,-1.2842,-1.2496,-1.2409,-1.2629,-1.2629,-1.2996,-1.3757,-1.5389,-1.6277,-1.6405,-1.7491,-1.8487,-1.9301,-1.9301,-1.9775,-2.0605,-2.0605,-2.0605,-2.0605,-2.0605,-2.0605,-2.0595,-2.0488,-2.0205,-1.9902,-1.9805,-1.9492,-1.9082,-1.8715,-1.8539,-1.8393,-1.8115,-1.8008,-1.7974,-1.794,-1.7818,-1.7672,-1.7647,-1.7554,-1.7392,-1.7245,-1.7038,-1.6908,-1.6908,-1.6908,-1.6908,-1.6908,-1.6908,-1.6908,-1.6908,-1.6908,-1.6908,-1.6908,-1.6908,-1.6908,-1.6908,-1.6908,0.0,0.0,-1.7186,-1.7186,-1.7186,-1.7603,-1.8079,0.0,0.0,0.0,0.0,-1.9741,-1.9585,-1.9119,-1.9108,-1.9108,-1.9108,-1.9108,-1.9352,-1.9865,-2.0025,-2.0273,-2.0578,-2.067,-2.1196,-2.213,-2.1703,-2.2331,-2.3548,-2.2462,-2.2252,-2.2735,-2.3254,-2.3944,-2.488,-2.6503,-2.7744,-2.8698,-1.4207,-1.4363,-1.4551,-1.4818,-1.4642,-1.4603,-1.5024,-1.4976,-1.4946,-1.5045,-1.5391,-1.5683,-1.5879,-1.6447,-1.6824,-1.6958,-1.6679,-1.6195,-1.5456,-1.4525,-1.381,-1.3364,-1.2681,-1.2305,-1.2305,-1.2305,-1.2557,-1.3096,-1.4103,-1.4734,-1.5008,-1.5981,-1.7143,-1.8342,-1.8607,-1.9411,-2.0605,-2.0605,-2.0605,-2.0605,-2.0605,-2.0605,-2.0605,-2.0605,-2.0458,-2.0215,-2.0215,-1.9941,-1.9541,-1.926,-1.8929,-1.8559,-1.8334,-1.8256,-1.8256,-1.8256,-1.8086,-1.7852,-1.7852,-1.7725,-1.752,-1.727,-1.7132,-1.7003,-1.6908,-1.6908,-1.6908,-1.6908,-1.6908,-1.6908,-1.6908,-1.6908,-1.6908,-1.6908,-1.7055,-1.711,-1.6936,-1.7064,0.0,-1.6927,-1.6908,-1.6908,-1.6908,-1.7254,-1.7737,-1.835,-1.8557,0.0,-1.9175,-1.9073,-1.8995,-1.9108,-1.9108,-1.9108,-1.9108,-1.9316,-1.9544,-1.9793,-2.0,-2.0193,-2.0395,-2.0602,-2.1094,-2.1737,-2.1517,-2.2009,-2.2879,-2.2217,-2.2156,-2.2506,-2.3253,-2.4052,-2.4988,-2.6667,-2.7591,-2.8156,-1.5114,-1.4989,-1.5018,-1.5453,-1.5149,-1.5018,-1.546,-1.5356,-1.5124,-1.4831,-1.5356,-1.5594,-1.5172,-1.6123,-1.6737,-1.6636,-1.6536,-1.6504,-1.6507,-1.5056,-1.4131,-1.4001,-1.2973,-1.2345,-1.2305,-1.2305,-1.2499,-1.2982,-1.3068,-1.3369,-1.3916,-1.4387,-1.5496,-1.7156,-1.7732,-1.8886,-2.0401,-2.0527,-2.0605,-2.0605,-2.0605,-2.0605,-2.0605,-2.0605,-2.0605,-2.0605,-2.0605,-2.0322,-2.0,-1.9932,-1.9385,-1.8705,-1.8705,-1.8656,-1.8617,-1.8676,-1.8442,-1.8193,-1.8125,-1.7901,-1.7638,-1.7339,-1.7235,-1.7166,-1.6968,-1.6908,-1.6908,-1.6908,-1.6908,-1.6908,-1.6908,-1.6908,-1.6927,-1.6991,-1.7229,-1.7312,-1.7037,0.0,-1.7284,-1.6945,-1.6908,-1.6908,-1.6908,-1.7254,-1.7608,-1.7906,-1.7974,-1.8139,-1.8504,-1.8251,-1.8431,-1.9171,-1.9081,-1.9073,-1.9212,-1.9668,-1.9927,-2.0,-2.0348,-2.0529,-2.0602,-2.1005,-2.1217,-2.1248,-2.1714,-2.1911,-2.1942,-2.2408,-2.2604,-2.2685,-2.3703,-2.4511,-2.5334,-2.6604,-2.7064,-2.7313,-1.5093,-1.539,-1.5677,-1.573,-1.5697,-1.5677,-1.573,-1.5737,-1.5642,-1.5397,-1.5493,-1.5493,-1.5391,-1.5534,-1.592,-1.6534,-1.6593,-1.6546,-1.6521,-1.5644,-1.4789,-1.4015,-1.3169,-1.2596,-1.2305,-1.2305,-1.2325,-1.2409,-1.289,-1.3369,-1.3916,-1.4387,-1.539,-1.6814,-1.7641,-1.8567,-1.9539,-2.0294,-2.0605,-2.0605,-2.0605,-2.0605,-2.0605,-2.0605,-2.0605,-2.0605,-2.0605,-2.0556,-2.0449,-2.0039,-1.959,-1.9189,-1.9189,-1.8936,-1.8676,-1.9082,-1.9141,-1.9004,-1.8607,-1.8123,-1.7672,-1.7638,-1.7398,-1.7201,-1.7166,-1.7003,-1.6908,-1.6908,-1.6908,-1.6908,-1.6908,-1.6908,-1.7009,-1.7348,-1.7174,-1.7092,-1.7367,0.0,-1.6972,-1.6908,-1.6908,-1.6908,-1.6908,-1.7254,-1.7505,-1.7573,-1.7847,-1.8164,-1.8551,-1.8478,-1.8823,-1.9671,-1.8976,-1.8968,-1.9689,-2.01,-2.0514,-2.0907,-2.0969,-2.1217,-2.159,-2.1662,-2.1694,-2.1725,-2.219,-2.2387,-2.2428,-2.2894,-2.308,-2.3173,-2.3711,-2.4445,-2.5256,-2.5815,-2.6509,-2.7232,-1.5303,-1.5502,-1.5683,-1.5784,-1.5784,-1.5784,-1.5784,-1.5784,-1.573,-1.554,-1.5588,-1.5547,-1.5261,-1.5445,-1.5724,-1.5913,-1.6109,-1.629,-1.6525,-1.6029,-1.5361,-1.4476,-1.3665,-1.2925,-1.2311,-1.257,-1.2577,-1.2305,-1.3147,-1.3522,-1.3509,-1.4268,-1.5194,-1.6292,-1.6976,-1.8037,-1.9341,-1.9736,-2.0167,-2.0605,-2.0605,-2.0605,-2.0605,-2.0605,-2.0605,-2.0605,-2.0605,-2.0605,-2.0576,-2.0332,-1.998,-1.9619,-1.9619,-1.9482,-1.9329,-1.9561,-1.9297,-1.8945,-1.8984,-1.8436,-1.7886,-1.8049,-1.7726,-1.7314,-1.7235,-1.7038,-1.6908,-1.6908,-1.6908,-1.6908,-1.6908,-1.6908,-1.6963,-1.7147,-1.7202,0.0,0.0,-1.7202,-1.7147,-1.6936,-1.6908,-1.6991,-1.7202,-1.7406,-1.7675,-1.8124,-1.8107,-1.8218,-1.8634,-1.8416,-1.8565,-1.9178,-1.9394,-1.9729,-2.012,-2.0565,-2.0907,-2.1114,-2.1373,-2.16,-2.1818,-2.2066,-2.218,-2.2201,-2.2666,-2.2873,-2.2904,-2.337,-2.3598,-2.3608,-2.4053,-2.4472,-2.4892,-2.5545,-2.5746,-2.5883,-1.5547,-1.5588,-1.5635,-1.5784,-1.5784,-1.5784,-1.5784,-1.5784,-1.573,-1.5588,-1.5683,-1.5642,-1.522,-1.5499,-1.5635,-1.5439,-1.5581,-1.592,-1.6393,-1.6285,-1.5773,-1.4825,-1.3853,-1.2963,-1.2311,-1.2825,-1.2832,-1.2305,-1.3369,-1.3705,-1.3289,-1.4153,-1.4955,-1.574,-1.6287,-1.731,-1.8656,-1.8856,-1.945,-2.0284,-2.0284,-2.0411,-2.0605,-2.0605,-2.0605,-2.0605,-2.0605,-2.0605,-2.0605,-2.0605,-2.0273,-1.9932,-2.0029,-2.0,-1.9932,-2.0039,-1.9521,-1.8948,-1.9219,-1.8809,-1.8354,-1.8553,-1.8213,-1.7824,-1.763,-1.7465,-1.7296,-1.7134,-1.7116,-1.7053,-1.6927,-1.6908,-1.6936,-1.7027,0.0,0.0,0.0,-1.7229,-1.7284,-1.7064,-1.7046,-1.7202,-1.7605,-1.7642,-1.7889,-1.8507,-1.8276,-1.8276,-1.8676,-1.8397,-1.8471,-1.8964,-1.9909,-2.0478,-2.055,-2.1041,-2.1205,-2.1141,-2.1707,-2.1924,-2.183,-2.241,-2.2656,-2.2687,-2.3153,-2.335,-2.3381,-2.3846,-2.4033,-2.4064,-2.4363,-2.4497,-2.4583,-2.5263,-2.5062,-2.47,-1.5784,-1.5784,-1.5784,-1.5784,-1.5784,-1.5784,-1.5784,-1.5784,-1.5778,-1.5784,-1.5778,-1.5737,-1.5493,-1.5493,-1.5493,-1.5391,-1.5439,-1.5534,-1.5825,-1.6311,-1.6032,-1.4846,-1.3251,-1.2388,-1.2305,-1.2825,-1.2832,-1.2305,-1.3369,-1.3895,-1.3842,-1.4172,-1.4604,-1.5171,-1.5786,-1.6255,-1.6673,-1.7464,-1.8439,-1.9381,-1.9381,-1.9893,-2.0605,-2.0605,-2.0605,-2.0605,-2.0605,-2.0605,-2.0605,-2.0605,-2.0273,-1.999,-2.0429,-2.0244,-1.999,-2.0439,-2.0185,-1.9746,-1.9385,-1.9238,-1.9199,-1.9238,-1.9073,-1.8881,-1.8872,-1.8716,-1.842,-1.7837,-1.7727,-1.7571,-1.7007,-1.6908,-1.7027,-1.7394,0.0,0.0,-1.7403,-1.7165,-1.7073,-1.7413,-1.7449,-1.7614,-1.8036,-1.8082,-1.8091,-1.8156,-1.8128,-1.8284,-1.8689,-1.8667,-1.9002,-1.9788,-2.0247,-2.0666,-2.1025,-2.1518,-2.1565,-2.1203,-2.2037,-2.2253,-2.1928,-2.2765,-2.3143,-2.3163,-2.3629,-2.3867,-2.3867,-2.4312,-2.4456,-2.4456,-2.4487,-2.4497,-2.4497,-2.4572,-2.454,-2.4625,-1.4873,-1.535,-1.5784,-1.5784,-1.5784,-1.5784,-1.5784,-1.5784,-1.5784,-1.5784,-1.5784,-1.5784,-1.5689,-1.5588,-1.5493,-1.5445,-1.5159,-1.5207,-1.5778,-1.5698,-1.5509,-1.5291,-1.3507,-1.2577,-1.2798,-1.2996,-1.2996,-1.2804,-1.3849,-1.4311,-1.4318,-1.4638,-1.4885,-1.5131,-1.5325,-1.5726,-1.6214,-1.6813,-1.7545,-1.8318,-1.8439,-1.9015,-1.9775,-1.9775,-2.0128,-2.0605,-2.0605,-2.0605,-2.0605,-2.0605,-2.0488,-2.039,-2.0546,-2.0488,-2.0352,-2.0556,-2.0488,-2.0283,-2.0165,-1.9697,-1.9346,-1.9609,-1.9335,-1.9004,-1.9004,-1.8848,-1.8635,-1.842,-1.8355,-1.8236,-1.7896,-1.7832,-1.7851,-1.7862,0.0,-1.7715,-1.7862,-1.7752,-1.7715,-1.7862,-1.788,-1.8045,-1.8411,-1.8485,-1.8586,-1.8834,-1.8852,-1.8916,-1.9072,-1.9051,-1.9351,-1.9889,-2.0053,-2.0322,-2.0781,-2.0979,-2.1258,-2.1628,-2.1986,-2.2339,-2.2705,-2.3074,-2.336,-2.3639,-2.3789,-2.3984,-2.4259,-2.4125,-2.4239,-2.4454,-2.4186,-2.4239,-2.4497,-2.4497,-2.4497,-2.454,-1.4729,-1.535,-1.5784,-1.5784,-1.5784,-1.5784,-1.5784,-1.5784,-1.5784,-1.5784,-1.5784,-1.5784,-1.5784,-1.5683,-1.5588,-1.5493,-1.5166,-1.5118,-1.5547,-1.4969,-1.475,-1.5156,-1.3724,-1.2893,-1.2952,-1.3348,-1.3435,-1.3096,-1.4283,-1.4751,-1.4617,-1.4939,-1.5048,-1.4957,-1.4957,-1.5193,-1.5636,-1.6049,-1.6657,-1.7415,-1.7553,-1.8118,-1.8895,-1.8895,-1.9253,-1.9805,-2.0089,-2.0206,-2.0245,-2.0527,-2.0605,-2.0605,-2.0605,-2.0605,-2.0605,-2.0605,-2.0605,-2.0605,-2.0605,-2.0175,-1.9756,-2.0049,-1.9789,-1.9511,-1.9511,-1.9389,-1.9229,-1.9068,-1.9002,-1.8927,-1.8573,-1.8471,-1.8443,-1.8295,-1.823,-1.8193,-1.8193,-1.8156,-1.8136,-1.8255,-1.8274,-1.8467,-1.8861,-1.8898,-1.9008,-1.9283,-1.9301,-1.9301,-1.9301,-1.9301,-1.942,-1.9706,-1.9696,-1.9929,-2.0378,-2.0654,-2.1007,-2.1461,-2.1868,-2.232,-2.2775,-2.3018,-2.3355,-2.363,-2.3581,-2.3754,-2.4024,-2.3711,-2.3754,-2.4013,-2.3711,-2.3797,-2.4057,-2.4239,-2.4282,-2.4325,-1.5588,-1.5784,-1.5778,-1.5778,-1.5778,-1.5784,-1.5784,-1.5784,-1.5784,-1.5784,-1.5784,-1.5784,-1.5784,-1.5784,-1.5737,-1.554,-1.5493,-1.5404,-1.5124,-1.4199,-1.39,-1.4252,-1.3779,-1.3215,-1.262,-1.3927,-1.4104,-1.3102,-1.4624,-1.5131,-1.4624,-1.4939,-1.4957,-1.4692,-1.4692,-1.4692,-1.4741,-1.4999,-1.5733,-1.6698,-1.6698,-1.722,-1.7997,-1.7997,-1.7997,-1.8118,-1.8975,-1.9301,-1.942,-2.0294,-2.0566,-2.0566,-2.0605,-2.0605,-2.0605,-2.0605,-2.0605,-2.0605,-2.0605,-2.0605,-2.0605,-2.0605,-2.0605,-2.0605,-2.0605,-2.0605,-2.0449,-1.9811,-1.9696,-1.9514,-1.8851,-1.8692,-1.8692,-1.8692,-1.8554,-1.8415,-1.8415,-1.8239,-1.8246,-1.8669,-1.8715,-1.8871,-1.9265,-1.9301,-1.9301,-1.9301,-1.9301,-1.9301,-1.9301,-1.9301,-1.9301,-1.9301,-1.9301,-1.9512,-1.9893,-2.0747,-2.0939,-2.0526,-2.1839,-2.2244,-2.185,-2.2722,-2.3091,-2.3091,-2.3091,-2.3091,-2.3091,-2.3091,-2.3091,-2.3091,-2.3091,-2.3091,-2.3144,-2.3624,-2.3797,-2.3841,-1.2528,-1.3752,-1.4729,-1.4729,-1.535,-1.5784,-1.5784,-1.5784,-1.5784,-1.5784,-1.5784,-1.5784,-1.5784,-1.5784,-1.5784,-1.5737,-1.5588,-1.5228,-1.4498,-1.3842,-1.3523,-1.3606,-1.3041,-1.2999,-1.3583,-1.3605,-1.3772,-1.4165,-1.4617,-1.4948,-1.516,-1.513,-1.5048,-1.4999,-1.4999,-1.4873,-1.4734,-1.5131,-1.5416,-1.5575,-1.5741,-1.6304,-1.7107,-1.7107,-1.7472,-1.8037,-1.8278,-1.8407,-1.8447,-1.8678,-1.8798,-1.8877,-1.949,-2.0089,-2.0605,-2.0605,-2.0605,-2.0605,-2.0605,-2.0605,-2.0605,-2.0605,-2.0605,-2.0605,-2.0605,-2.0605,-2.0527,-2.0372,-2.0342,-2.0226,-1.9908,-1.9803,-1.9765,-1.9572,-1.9379,-1.9234,-1.9234,-1.907,-1.8999,-1.9118,-1.9127,-1.9173,-1.9292,-1.9301,-1.9301,-1.9301,-1.9301,-1.9301,-1.9301,-1.9301,-1.9439,-1.9692,-1.9701,-1.9893,-2.0338,-2.0318,-2.0664,-2.1419,-2.1802,-2.226,-2.2722,-2.2639,-2.2794,-2.3091,-2.274,-2.2784,-2.3047,-2.274,-2.2784,-2.3057,-2.275,-2.2794,-2.3135,-2.3276,-2.3309,-2.3319,-1.1707,-1.278,-1.3806,-1.425,-1.4825,-1.535,-1.573,-1.5784,-1.5784,-1.5784,-1.5784,-1.5784,-1.5784,-1.5784,-1.5784,-1.5784,-1.5583,-1.5127,-1.4365,-1.3623,-1.3291,-1.3441,-1.2729,-1.2785,-1.3655,-1.375,-1.4007,-1.4488,-1.478,-1.5068,-1.5389,-1.5257,-1.5173,-1.509,-1.5173,-1.5082,-1.4866,-1.5257,-1.534,-1.5215,-1.5347,-1.5707,-1.618,-1.618,-1.6509,-1.7033,-1.735,-1.7472,-1.7553,-1.7876,-1.7997,-1.8078,-1.8607,-1.9164,-1.9638,-1.9962,-2.0089,-2.0167,-2.0527,-2.0605,-2.0605,-2.0605,-2.0605,-2.0605,-2.0605,-2.0605,-2.0605,-2.0605,-2.0605,-2.0566,-2.0459,-2.042,-2.0381,-2.0216,-2.0029,-1.9872,-1.9872,-1.9597,-1.9429,-1.9429,-1.9341,-1.9301,-1.9301,-1.9301,-1.9301,-1.9301,-1.9301,-1.9301,-1.9301,-1.9457,-1.9668,-1.9875,-2.004,-2.0314,-2.075,-2.0512,-2.0758,-2.154,-2.1665,-2.2055,-2.253,-2.2264,-2.2264,-2.253,-2.2264,-2.2264,-2.252,-2.2264,-2.2309,-2.252,-2.2211,-2.2309,-2.2564,-2.274,-2.2828,-2.2828,-1.2242,-1.249,-1.2877,-1.3854,-1.4196,-1.4634,-1.554,-1.573,-1.5784,-1.5784,-1.5784,-1.5784,-1.5784,-1.5784,-1.5771,-1.5792,-1.5504,-1.5045,-1.4512,-1.3549,-1.3188,-1.3639,-1.2848,-1.2656,-1.3247,-1.4166,-1.4559,-1.4368,-1.507,-1.5389,-1.5389,-1.5389,-1.5298,-1.5131,-1.5305,-1.5298,-1.5131,-1.5305,-1.5389,-1.5389,-1.5389,-1.5389,-1.5389,-1.5389,-1.5389,-1.5506,-1.6304,-1.6576,-1.6698,-1.7513,-1.7836,-1.7876,-1.7876,-1.7957,-1.8158,-1.8935,-1.9173,-1.9381,-2.0167,-2.0362,-2.0362,-2.0362,-2.0362,-2.0401,-2.0566,-2.0605,-2.0605,-2.0605,-2.0605,-2.0605,-2.0605,-2.0605,-2.0605,-2.0605,-2.0411,-2.0303,-2.0303,-1.9912,-1.9645,-1.9645,-1.9429,-1.9341,-1.9341,-1.9301,-1.9301,-1.9301,-1.9338,-1.9356,-1.9356,-1.9751,-1.9957,-1.9994,-2.0342,-2.0769,-2.1163,-2.1163,-2.1163,-2.1172,-2.1504,-2.1696,-2.1696,-2.1696,-2.1696,-2.1696,-2.1696,-2.1696,-2.1696,-2.1696,-2.1696,-2.1696,-2.1696,-2.1696,-2.1731,-2.2176,-2.2353,-2.2397,-1.0212,-1.0935,-1.1609,-1.1804,-1.3221,-1.4394,-1.4586,-1.5302,-1.5784,-1.5784,-1.5784,-1.5784,-1.5784,-1.5784,-1.5738,-1.5511,-1.4875,-1.4392,-1.4261,-1.3464,-1.3147,-1.3464,-1.3074,-1.308,-1.359,-1.4169,-1.4622,-1.4941,-1.522,-1.5389,-1.5389,-1.5389,-1.5389,-1.5347,-1.5389,-1.5389,-1.5347,-1.5389,-1.5389,-1.5389,-1.5389,-1.5389,-1.5389,-1.5389,-1.5389,-1.5431,-1.5624,-1.5665,-1.5707,-1.5914,-1.6427,-1.6984,-1.6984,-1.7464,-1.8037,-1.8247,-1.8278,-1.8318,-1.8519,-1.8559,-1.8559,-1.8559,-1.8559,-1.8917,-2.0284,-2.0605,-2.0605,-2.0605,-2.0605,-2.0605,-2.0605,-2.0605,-2.0605,-2.0605,-2.0411,-2.0303,-2.0303,-2.0029,-1.9824,-1.9824,-1.9676,-1.9518,-1.9518,-1.939,-1.9301,-1.9301,-1.9604,-1.9756,-1.9756,-2.0131,-2.0488,-2.0842,-2.0934,-2.1181,-2.1549,-2.1559,-2.1559,-2.1559,-2.165,-2.1696,-2.1696,-2.1696,-2.1696,-2.1696,-2.1696,-2.1696,-2.1696,-2.1696,-2.1696,-2.1696,-2.1696,-2.1696,-2.1687,-2.182,-2.1865,-2.1909,-0.9579,-1.0064,-1.0596,-1.1126,-1.2101,-1.3173,-1.4148,-1.4729,-1.5255,-1.573,-1.5784,-1.5784,-1.5784,-1.5705,-1.5451,-1.5017,-1.4608,-1.4289,-1.415,-1.3519,-1.3319,-1.373,-1.3339,-1.3367,-1.3864,-1.4237,-1.4524,-1.479,-1.509,-1.5264,-1.5264,-1.5347,-1.5389,-1.5389,-1.5389,-1.5389,-1.5389,-1.5389,-1.5389,-1.5389,-1.5389,-1.5389,-1.5389,-1.5389,-1.5389,-1.5389,-1.5389,-1.5389,-1.5389,-1.5389,-1.5707,-1.6064,-1.6064,-1.6386,-1.6837,-1.7269,-1.7391,-1.7464,-1.7876,-1.7997,-1.7997,-1.7997,-1.7997,-1.8359,-1.9687,-1.9971,-2.0089,-2.0527,-2.0605,-2.0605,-2.0605,-2.0605,-2.0605,-2.0605,-2.0489,-2.045,-2.045,-2.0225,-2.0098,-2.0098,-1.9912,-1.979,-1.9866,-1.9805,-1.9758,-1.987,-2.009,-2.0209,-2.0209,-2.0585,-2.0897,-2.1099,-2.13,-2.1511,-2.1696,-2.1696,-2.1696,-2.1696,-2.1696,-2.1696,-2.1696,-2.1696,-2.1696,-2.1696,-2.1696,-2.1696,-2.1696,-2.1696,-2.1696,-2.1696,-2.1696,-2.1696,-2.1696,-2.1696,-2.1696,-2.1741,-0.9579,-0.9579,-0.9867,-1.0788,-1.1077,-1.1755,-1.3511,-1.3908,-1.4388,-1.5397,-1.554,-1.5568,-1.5718,-1.5451,-1.505,-1.4519,-1.4476,-1.4342,-1.4102,-1.3688,-1.362,-1.4075,-1.3682,-1.3627,-1.4082,-1.4237,-1.4356,-1.4398,-1.4824,-1.5048,-1.5048,-1.5257,-1.5347,-1.5347,-1.5389,-1.5389,-1.5389,-1.5389,-1.5389,-1.5389,-1.5389,-1.5389,-1.5389,-1.5389,-1.5389,-1.5389,-1.5389,-1.5389,-1.5389,-1.5389,-1.5389,-1.5389,-1.5389,-1.5389,-1.5548,-1.6263,-1.6501,-1.6624,-1.735,-1.7553,-1.7553,-1.7553,-1.7553,-1.7796,-1.8647,-1.8975,-1.9332,-2.0206,-2.0372,-2.0411,-2.0566,-2.0605,-2.0605,-2.0605,-2.0605,-2.0605,-2.0605,-2.0459,-2.0342,-2.0342,-2.0204,-2.0137,-2.0348,-2.0344,-2.0411,-2.0578,-2.0576,-2.0622,-2.0622,-2.0998,-2.1218,-2.1218,-2.1513,-2.1696,-2.1696,-2.1696,-2.1696,-2.1696,-2.1696,-2.1696,-2.1696,-2.1696,-2.1696,-2.1696,-2.1696,-2.1696,-2.1696,-2.1696,-2.1696,-2.1696,-2.1696,-2.1696,-2.1696,-2.1696,-2.1696,-2.1696,-0.9579,-0.9579,-0.9628,-0.9772,-1.0592,-1.1268,-1.156,-1.2339,-1.3318,-1.434,-1.449,-1.4737,-1.5385,-1.4963,-1.4609,-1.4529,-1.4289,-1.4128,-1.4088,-1.4048,-1.4006,-1.4088,-1.4048,-1.4048,-1.4088,-1.4124,-1.4243,-1.4398,-1.465,-1.4741,-1.4741,-1.4999,-1.5131,-1.5131,-1.5305,-1.5389,-1.5389,-1.5389,-1.5389,-1.5389,-1.5389,-1.5389,-1.5389,-1.5389,-1.5389,-1.5389,-1.5389,-1.5389,-1.5389,-1.5389,-1.5389,-1.5389,-1.5389,-1.5389,-1.5431,-1.5548,-1.559,-1.5582,-1.5707,-1.5748,-1.5748,-1.5748,-1.5748,-1.5989,-1.6862,-1.7634,-1.8399,-1.9292,-1.946,-1.9696,-2.044,-2.0605,-2.0605,-2.0605,-2.0605,-2.0605,-2.0605,-2.0566,-2.0566,-2.0566,-2.0691,-2.0845,-2.1059,-2.0898,-2.0801,-2.0857,-2.097,-2.1025,-2.1025,-2.1385,-2.1604,-2.1604,-2.1659,-2.1696,-2.1696,-2.1696,-2.1696,-2.1696,-2.1696,-2.1696,-2.1696,-2.1696,-2.1696,-2.1696,-2.1696,-2.1696,-2.1696,-2.1696,-2.1696,-2.1696,-2.1696,-2.1696,-2.1696,-2.1696,-2.1696,-2.1696,-0.9579,-0.9579,-0.9579,-0.9579,-1.0015,-1.0498,-1.1126,-1.156,-1.2242,-1.327,-1.3337,-1.3584,-1.4406,-1.45,-1.4456,-1.4295,-1.4162,-1.4088,-1.4088,-1.4088,-1.4088,-1.4088,-1.4088,-1.4088,-1.4088,-1.4088,-1.4124,-1.4243,-1.4447,-1.4524,-1.4524,-1.4783,-1.4957,-1.509,-1.5173,-1.5305,-1.5389,-1.5389,-1.5389,-1.5389,-1.5389,-1.5389,-1.5389,-1.5389,-1.5389,-1.5389,-1.5389,-1.5389,-1.5389,-1.5389,-1.5389,-1.5389,-1.5389,-1.5389,-1.5389,-1.5389,-1.5389,-1.5389,-1.5389,-1.5389,-1.5389,-1.5389,-1.5389,-1.5506,-1.5906,-1.627,-1.6919,-1.8287,-1.8567,-1.8847,-1.9696,-1.9854,-2.001,-2.0527,-2.0605,-2.0693,-2.0908,-2.0937,-2.1025,-2.1279,-2.1384,-2.1552,-2.1757,-2.1678,-2.1646,-2.1744,-2.1792,-2.1764,-2.1676,-2.1817,-2.1874,-2.1696,-2.1696,-2.1696,-2.1696,-2.1696,-2.1696,-2.1696,-2.1696,-2.1696,-2.1696,-2.1696,-2.1696,-2.1696,-2.1696,-2.1696,-2.1696,-2.1696,-2.1696,-2.1696,-2.1696,-2.1696,-2.1696,-2.1696,-2.1696,-2.1696]}]]